     2.11           OBSERVATION DATA    G (GPS)             RINEX VERSION / TYPE
teqc 2010Oct21 OPUS Account 20111026 16:34:54UTC            PGM / RUN BY / DATE
C 1523                                                      MARKER NAME
1184                                                        MARKER NUMBER
CSMIDDLETON NGS                                             OBSERVER / AGENCY
0220269730 TRIMBLE 5700 NP 1.22 / SP 1.22                   REC # / TYPE / VERS
60041226 TRM41249.00 NONE                                   ANT # / TYPE
  -746865.8881 -5507010.0151  3119539.6920                  APPROX POSITION XYZ
        2.0010        0.0000        0.0000                  ANTENNA: DELTA H/E/N
     1     1                                                WAVELENGTH FACT L1/2
     5    L1    L2    C1    P1    P2                        # / TYPES OF OBSERV
  2011     8     2     0     0   30.0000000     GPS         TIME OF FIRST OBS
                                                            END OF HEADER
 11  8  2  0  0 30.0000000  0  8G17G10G04G12G27G28G09G02
 -72871012.98457 -56737264.34355  21580106.4844                   21580104.7034
 -19313054.17257 -15013972.53454  22710519.8054                   22710519.3714
 -57416604.46958 -44726863.30056  19814876.1414                   19814874.9614
  -2698722.69956  -2091464.07553  24326782.3444                   24326780.8444
 -40476319.12957 -31528004.34255  22330845.3754                   22330844.7974
 -90330859.26657 -70363608.29055  22156863.2814                   22156861.3404
 -28530527.49257 -22219254.18755  21997698.3594                   21997697.1414
 -31977529.76258 -24905553.73055  21671289.1414                   21671286.5124
 11  8  2  0  1  0.0000000  0  8G17G10G04G12G27G28G09G02
 -72924497.04347 -56778940.24745  21569928.7274                   21569926.9574
 -19488906.28947 -15151000.03944  22677056.0234                   22677055.8914
 -57494338.85948 -44787435.54546  19800083.8284                   19800082.7774
  -2883199.19146  -2235211.89443  24291677.5864                   24291676.2274
 -40555699.27047 -31589859.01045  22315740.1954                   22315739.2974
 -90353970.03147 -70381616.72844  22152465.2504                   22152463.9304
 -28620959.32847 -22289720.54145  21980489.6564                   21980488.4614
 -32131097.96548 -25025217.21646  21642065.9304                   21642063.3054
 11  8  2  0  1 30.0000000  0  8G17G10G04G12G27G28G09G02
 -72977847.16447 -56820511.79245  21559776.6414                   21559774.7304
 -19664521.32047 -15287842.85444  22643637.3594                   22643637.5434
 -57571479.90248 -44847545.44946  19785404.3444                   19785403.2154
  -3067622.76246  -2378918.51744  24256582.2504                   24256581.4694
 -40634552.75047 -31651303.30745  22300734.5234                   22300734.2154
 -90376661.73047 -70399298.62845  22148146.9064                   22148145.8134
 -28710703.14547 -22359650.80245  21963411.7894                   21963410.9614
 -32284273.00047 -25144574.34846  21612917.6334                   21612914.8754
 11  8  2  0  2  0.0000000  0  8G17G10G04G12G27G28G09G02
 -73031070.25847 -56861984.34545  21549648.3524                   21549646.8404
 -19839903.17646 -15424503.96744  22610263.1724                   22610262.7774
 -57648036.22348 -44907199.71946  19770836.0234                   19770834.9804
  -3251998.76246  -2522588.07044  24221496.6024                   24221495.8164
 -40712887.75047 -31712343.57045  22285827.9534                   22285827.6484
 -90398942.08247 -70416659.98345  22143907.5164                   22143905.8364
 -28799766.75447 -22429051.02345  21946463.6254                   21946463.0004
 -32437061.18448 -25263630.03846  21583843.1954                   21583840.0084
 11  8  2  0  2 30.0000000  0  8G17G10G04G12G27G28G09G02
 -73084169.89847 -56903360.71145  21539544.1954                   21539542.2664
 -20015051.89847 -15560983.38744  22576933.6884                   22576933.4454
 -57724012.64148 -44966402.11246  19756378.4844                   19756377.0824
  -3436328.84447  -2666221.83944  24186419.7814                   24186419.6564
 -40790708.71147 -31772983.30645  22271018.8984                   22271018.7034
 -90420815.52747 -70433704.29144  22139745.3364                   22139743.5474
 -28888154.16047 -22497924.32445  21929643.7194                   21929643.2854
 -32589465.19547 -25382386.36046  21554841.4064                   21554838.7424
 11  8  2  0  3  0.0000000  0  8G17G10G04G12G27G28G09G02
 -71561721.98847 -55717037.69045  21829256.1564                   21829254.5044
 -18614536.16847 -14469672.36944  22843443.2424                   22843442.5554
 -56223985.26648 -43797549.61146  20041824.4064                   20041822.8554
  -2045182.94547  -1582211.99444  24451146.6644                   24451145.3404
 -39292591.66447 -30605619.38345  22556101.5394                   22556100.8444
 -88866858.98047 -69222829.09744  22435453.1804                   22435452.0204
 -27400440.52747 -21338666.95645  22212746.4384                   22212745.3634
 -31166056.67647 -24273236.84345  21825707.0944                   21825704.1214
 11  8  2  0  3 30.0000000  0  8G17G10G04G12G27G28G09G02
 -71614574.34047 -55758221.35745  21819199.0554                   21819197.0704
 -18789208.52046 -14605780.60144  22810203.5474                   22810203.7464
 -56298804.73848 -43855850.49146  20027586.7114                   20027585.2544
  -2229415.25847  -1725769.57744  24416088.8204                   24416087.1024
 -39369386.68447 -30665459.68245  22541487.8204                   22541487.1764
 -88887918.56247 -69239239.19944  22431446.1174                   22431444.2704
 -27487476.53147 -21406487.22345  22196183.8914                   22196183.5704
 -31317688.91048 -24391391.78945  21796852.2424                   21796849.2974
 11  8  2  0  4  0.0000000  0  8G17G10G04G12G27G28G09G02
 -71667302.82447 -55799308.50945  21809165.1954                   21809163.0124
 -18963637.09047 -14741698.91444  22777010.9304                   22777010.9884
 -56373047.53548 -43913702.01646  20013458.0864                   20013457.0354
  -2413595.38346  -1869286.48443  24381040.0554                   24381038.1254
 -39445669.71547 -30724901.02445  22526971.4614                   22526971.3954
 -88908571.97747 -69255332.79844  22427515.6254                   22427514.5084
 -27573837.94547 -21473781.84645  22179749.9844                   22179749.0354
 -31468933.84848 -24509244.94046  21768071.4384                   21768068.7384
 11  8  2  0  4 30.0000000  0  8G17G10G04G12G27G28G09G02
 -71719911.00047 -55840301.91345  21799154.0864                   21799151.9454
 -19137822.45346 -14877427.71244  22743864.1644                   22743864.4224
 -56446719.11348 -43971108.43146  19999439.3284                   19999438.0944
  -2597725.99646  -2012764.84343  24346000.6094                   24345999.3984
 -39521445.64547 -30783947.25445  22512551.8914                   22512550.9804
 -88928823.75847 -69271113.44145  22423661.5554                   22423660.3554
 -27659529.12147 -21540554.20745  22163443.0554                   22163442.3134
 -31619794.47748 -24626798.63546  21739363.5394                   21739360.5984
 11  8  2  0  5  0.0000000  0  8G17G10G04G12G27G28G09G02
 -71772394.15647 -55881197.88545  21789166.5394                   21789164.8054
 -19311756.80547 -15012960.89944  22710765.8524                   22710765.7974
 -56519815.53948 -44028066.68046  19985529.7114                   19985528.5044
  -2781800.14546  -2156199.21343  24310972.3914                   24310971.2344
 -39596710.59447 -30842595.27345  22498229.0704                   22498229.0824
 -88948669.52747 -69286577.71044  22419885.6414                   22419884.1764
 -27744545.94147 -21606801.08845  22147265.4774                   22147264.8714
 -31770265.28147 -24744048.56246  21710730.0314                   21710727.2114
 11  8  2  0  5 30.0000000  0  8G17G10G04G12G27G28G09G02
 -71824750.07847 -55921994.72945  21779203.8054                   21779202.1134
 -19485434.54747 -15148294.16144  22677715.6094                   22677715.8954
 -56592336.59048 -44084576.60246  19971729.2974                   19971727.9104
  -2965813.72746  -2299586.28043  24275955.3134                   24275955.3714
 -39671463.66047 -30900844.44045  22484004.6254                   22484003.7664
 -88968108.16047 -69301724.74545  22416186.6644                   22416184.7544
 -27828887.05147 -21672521.44545  22131216.1954                   22131214.8754
 -31920343.05948 -24860992.26946  21682170.7424                   21682168.3244
 11  8  2  0  6  0.0000000  0  8G17G10G04G12G27G28G09G02
 -71876971.91847 -55962687.09345  21769266.6254                   21769264.8754
 -19658845.00847 -15283419.15644  22644716.8834                   22644716.8484
 -56664276.15648 -44140633.40846  19958039.6644                   19958038.2624
  -3149757.80546  -2442919.25543  24240952.0084                   24240951.4614
 -39745698.41847 -30958689.74445  22469877.6414                   22469877.8324
 -88987132.91847 -69316549.26744  22412565.9694                   22412565.0514
 -27912546.14147 -21737710.37945  22115296.5864                   22115295.5274
 -32070020.09048 -24977623.65845  21653688.3364                   21653685.4694
 11  8  2  0  6 30.0000000  0  8G17G10G04G12G27G28G09G02
 -71929068.27047 -56003281.67545  21759352.4534                   21759351.2344
 -19831993.93047 -15418340.34144  22611767.6024                   22611767.4574
 -56735644.64848 -44196245.21646  19944458.7664                   19944457.2734
  -3333639.41446  -2586203.60743  24205959.9064                   24205959.0084
 -39819424.93047 -31016139.00045  22455848.4224                   22455848.1604
 -89005753.37147 -69331058.77644  22409023.0084                   22409020.9344
 -27995532.95347 -21802375.43245  22099504.1094                   22099503.4184
 -32219304.53947 -25093949.17945  21625281.0314                   21625277.9144
 11  8  2  0  7  0.0000000  0  8G17G10G04G12G27G28G09G02
 -71981034.85247 -56043775.12545  21749463.8524                   21749462.2304
 -20004873.42247 -15553051.59444  22578870.6024                   22578870.0204
 -56806439.22348 -44251409.81646  19930986.8444                   19930985.5084
  -3517452.36746  -2729434.49043  24170981.8524                   24170980.2234
 -39892639.96147 -31073189.69545  22441916.3674                   22441915.8094
 -89023965.97347 -69345250.43644  22405556.9924                   22405555.7114
 -28077843.89147 -21866513.85245  22083841.2034                   22083840.0394
 -32368191.34448 -25209964.83146  21596948.6414                   21596945.1454
 11  8  2  0  7 30.0000000  0  8G17G10G04G12G27G28G09G02
 -72032876.59047 -56084171.29045  21739598.7194                   21739597.3094
 -20177485.44947 -15687554.43744  22546023.3834                   22546022.4574
 -56876666.45748 -44306132.33646  19917622.9774                   19917621.5394
  -3701199.65247  -2872614.12443  24136016.6024                   24136014.2504
 -39965349.98047 -31129846.88745  22428080.3284                   22428079.8634
 -89041776.08247 -69359128.46344  22402168.0554                   22402166.4304
 -28159484.88747 -21930130.21445  22068305.2504                   22068304.4144
 -32516684.47347 -25325673.73146  21568690.5084                   21568687.8324
 11  8  2  0  8  0.0000000  0  8G17G10G04G12G27G28G09G02
 -72084588.93747 -56124466.64645  21729757.9534                   21729756.6134
 -20349821.84047 -15821842.47644  22513228.4224                   22513228.2074
 -56946323.30948 -44360410.40146  19904367.7504                   19904366.5744
  -3884875.01646  -3015737.76943  24101064.5234                   24101062.7854
 -40037551.40647 -31186107.77545  22414340.4694                   22414340.1484
 -89059180.24247 -69372690.20044  22398856.1644                   22398854.6374
 -28240452.33647 -21993221.76145  22052897.4614                   22052897.1764
 -32664779.03547 -25441072.05546  21540509.5394                   21540506.3554
 11  8  2  0  8 30.0000000  0  8G17G10G04G12G27G28G09G02
 -72136171.54347 -56164660.88645  21719942.2894                   21719940.2664
 -20521878.80547 -15955912.78344  22480487.4614                   22480486.6914
 -57015410.72348 -44414244.75246  19891221.0554                   19891219.7544
  -4068475.85246  -3158803.30344  24066125.8134                   24066125.2114
 -40109244.81647 -31241972.78745  22400697.7194                   22400697.1254
 -89076178.92247 -69385935.95044  22395621.0944                   22395620.1604
 -28320746.63347 -22055788.75245  22037618.4774                   22037617.4964
 -32812473.86347 -25556158.90346  21512403.9224                   21512401.3594
 11  8  2  0  9  0.0000000  0  8G17G10G04G12G27G28G09G02
 -72187625.55947 -56204754.91845  21710151.0004                   21710149.1414
 -20693655.04747 -16089764.34844  22447799.1254                   22447798.8984
 -57083931.71948 -44467637.73346  19878181.6174                   19878180.5594
  -4252002.34846  -3301810.89943  24031202.1174                   24031201.0234
 -40180432.97747 -31297444.13345  22387151.0314                   22387150.2664
 -89092774.24247 -69398867.42744  22392463.0474                   22392461.8954
 -28400370.77747 -22117833.54845  22022466.4844                   22022465.8834
 -32959769.65247 -25670934.80846  21484374.2894                   21484371.7384
 11  8  2  0  9 30.0000000  0  8G17G10G04G12G27G28G09G02
 -72238950.81647 -56244748.62145  21700383.9224                   21700382.6564
 -20865147.01247 -16223394.41544  22415165.3674                   22415164.9224
 -57151888.04348 -44520590.71446  19865250.1414                   19865248.8134
  -4435452.35247  -3444758.88543  23996292.7814                   23996291.8794
 -40251116.96947 -31352522.58845  22373700.6484                   22373699.6914
 -89108966.85547 -69411485.10444  22389382.8754                   22389381.2234
 -28479325.41447 -22179356.67745  22007441.5634                   22007440.5784
 -33106665.67647 -25785399.22546  21456421.3444                   21456418.1914
 11  8  2  0 10  0.0000000  0  8G17G10G04G12G27G28G09G02
 -72290147.02747 -56284641.78645  21690641.7894                   21690640.2234
 -21036350.61347 -16356799.75644  22382586.2894                   22382585.7934
 -57219280.43748 -44573104.26646  19852425.8524                   19852424.6914
  -4618822.81247  -3587644.90644  23961398.5864                   23961397.1454
 -40321297.38347 -31407208.66345  22360345.3284                   22360344.9614
 -89124756.99647 -69423789.15844  22386377.2274                   22386376.1914
 -28557611.03947 -22240358.48045  21992544.3444                   21992543.4494
 -33253160.82847 -25899551.25546  21428544.3054                   21428541.0164
 11  8  2  0 10 30.0000000  0  8G17G10G04G12G27G28G09G02
 -72341214.59047 -56324434.69945  21680924.1174                   21680922.2814
 -21207263.12947 -16489978.27945  22350062.9924                   22350062.5514
 -57286111.18748 -44625180.16446  19839708.1414                   19839707.2344
  -4802113.00047  -3730468.40344  23926519.4224                   23926518.5274
 -40390976.12947 -31461503.80545  22347085.7894                   22347086.0704
 -89140146.00447 -69435780.64844  22383449.6484                   22383447.8984
 -28635229.15247 -22300840.12745  21977774.4384                   21977773.4184
 -33399254.91847 -26013390.78446  21400743.3444                   21400740.3874
 11  8  2  0 11  0.0000000  0  8G17G10G04G12G27G28G09G02
 -72392151.12547 -56364125.50945  21671231.0634                   21671229.3054
 -21377878.92247 -16622925.60844  22317595.5554                   22317595.1294
 -57352379.53548 -44676817.82646  19827097.7424                   19827096.2344
  -4985318.48047  -3873225.87444  23891656.6564                   23891655.6024
 -40460152.15647 -31515407.24645  22333922.2584                   22333921.9774
 -89155132.35547 -69447458.37644  22380597.3834                   22380596.3794
 -28712178.77347 -22360800.88245  21963131.4694                   21963130.3834
 -33544945.04747 -26126915.54146  21373019.2974                   21373016.2624
 11  8  2  0 11 30.0000000  0  8G17G10G04G12G27G28G09G02
 -72442958.25847 -56403715.49245  21661562.6564                   21661561.0904
 -21548196.82447 -16755640.82144  22285184.9534                   22285184.5514
 -57418089.40648 -44728020.32146  19814593.2814                   19814592.3554
  -5168439.19546  -4015917.27344  23856810.0164                   23856808.7624
 -40528828.82047 -31568921.55545  22320852.9924                   22320853.0704
 -89169719.02747 -69458824.63944  22377821.1954                   22377820.3594
 -28788462.84847 -22420243.04445  21948614.7504                   21948613.9844
 -33690232.53548 -26240126.52946  21345371.9694                   21345368.8284
 11  8  2  0 12  0.0000000  0  8G17G10G04G12G27G28G09G02
 -70918217.29347 -55215605.65845  21951711.3594                   21951709.5044
 -20142790.90247 -15660519.27444  22552624.7584                   22552624.5864
 -55907822.93048 -43551189.30546  20101987.8674                   20101986.4804
  -3776050.17646  -2930938.74444  24121772.5864                   24121771.6994
 -39021588.02347 -30394448.24145  22607672.3364                   22607671.4344
 -87608489.37947 -68242282.13944  22674913.8284                   22674912.6094
 -27288662.96147 -21251567.82445  22234017.2194                   22234016.1174
 -32259695.03547 -25125421.94646  21617594.3524                   21617591.1844
 11  8  2  0 12 30.0000000  0  8G17G10G04G12G27G28G09G02
 -70968774.14147 -55255000.60245  21942090.6024                   21942089.0164
 -20312511.50047 -15792769.01644  22520327.8674                   22520327.4494
 -55972428.64148 -43601531.39946  20089693.6254                   20089692.2504
  -3959004.07046  -3073500.17844  24086957.2814                   24086956.4884
 -39089277.88747 -30447193.61645  22594791.6484                   22594790.8484
 -87622287.57847 -68253034.00644  22672287.8134                   22672286.5594
 -27363628.16447 -21309982.28345  22219752.1254                   22219751.7074
 -32404183.89547 -25238010.64046  21590098.6024                   21590095.9144
 11  8  2  0 13  0.0000000  0  8G17G10G04G12G27G28G09G02
 -71019201.87947 -55294294.94545  21932494.7504                   21932492.7814
 -20481924.53947 -15924779.13344  22488089.3834                   22488089.1024
 -56036480.96148 -43651442.30146  20077504.7034                   20077503.5004
  -4141867.63346  -3215991.19244  24052159.6254                   24052158.4304
 -39156472.77047 -30499553.29945  22582004.4224                   22582003.7464
 -87635688.96947 -68263476.70944  22669737.9064                   22669736.6764
 -27437931.85947 -21367881.28545  22205612.5234                   22205611.2344
 -32548268.68747 -25350284.45746  21562680.8754                   21562677.3594
 11  8  2  0 13 30.0000000  0  8G17G10G04G12G27G28G09G02
 -71069503.84447 -55333491.31445  21922922.3674                   21922920.9844
 -20651030.34047 -16056549.83244  22455909.6804                   22455909.2034
 -56099984.87148 -43700925.87946  20065420.6564                   20065419.1334
  -4324642.37946  -3358413.00944  24017378.5554                   24017377.0704
 -39223177.14547 -30551530.76345  22569310.8834                   22569310.3914
 -87648697.85947 -68273613.56944  22667262.3054                   22667261.3324
 -27511578.86347 -21425268.59445  22191597.6254                   22191596.5634
 -32691952.26648 -25462245.65446  21535338.6174                   21535335.5554
 11  8  2  0 14  0.0000000  0  8G17G10G04G12G27G28G09G02
 -71119674.53147 -55372585.36845  21913375.0474                   21913373.2934
 -20819820.38747 -16188074.48745  22423790.2584                   22423789.4844
 -56162937.19948 -43749979.62646  20053441.3754                   20053439.9144
  -4507320.96146  -3500759.93344  23982615.5944                   23982614.4144
 -39289387.46147 -30603123.23445  22556711.6254                   22556711.1374
 -87661309.72747 -68283441.04044  22664862.3674                   22664861.6374
 -27584565.68447 -21482141.46045  22177708.7894                   22177707.7234
 -32835229.36748 -25573890.12046  21508073.4844                   21508070.4144
 11  8  2  0 14 30.0000000  0  8G17G10G04G12G27G28G09G02
 -71169720.34047 -55411582.13945  21903851.4614                   21903850.3204
 -20988297.57047 -16319355.33745  22391730.2734                   22391729.8094
 -56225345.91848 -43798609.79446  20041565.2974                   20041564.0474
  -4689907.97746  -3643035.46044  23947871.1024                   23947869.6294
 -39355111.18447 -30654336.56745  22544204.9064                   22544204.2304
 -87673532.41047 -68292965.27144  22662537.1174                   22662535.6804
 -27656899.62147 -21538505.58745  22163944.2734                   22163943.6454
 -32978105.23448 -25685221.90846  21480885.3204                   21480881.9774
 11  8  2  0 15  0.0000000  0  8G17G10G04G12G27G28G09G02
 -71219635.62547 -55450477.19645  21894353.5784                   21894351.6134
 -21156453.24647 -16450385.67745  22359731.1334                   22359730.5704
 -56287206.98448 -43846813.24146  20029793.6254                   20029792.1054
  -4872396.19946  -3785233.97944  23913144.5164                   23913143.0594
 -39420344.22347 -30705167.54045  22531791.6564                   22531790.8794
 -87685361.37547 -68302182.70544  22660284.9454                   22660284.3244
 -27728576.43047 -21594357.66345  22150304.7814                   22150303.8874
 -33120573.95348 -25796236.45446  21453774.3834                   21453770.9774
 11  8  2  0 15 30.0000000  0  8G17G10G04G12G27G28G09G02
 -71269418.81247 -55489269.29645  21884879.7504                   21884878.3674
 -21324282.64147 -16581161.77845  22327794.3444                   22327793.8674
 -56348521.09848 -43894590.47046  20018126.0164                   20018124.4184
  -5054782.00846  -3927352.75944  23878437.5784                   23878436.5474
 -39485086.70747 -30755616.22644  22519471.5864                   22519470.8444
 -87696795.82847 -68311092.74844  22658109.9694                   22658108.9414
 -27799595.90647 -21649697.53445  22136790.7584                   22136789.2704
 -33262633.55548 -25906932.21246  21426741.3674                   21426738.1454
 11  8  2  0 16  0.0000000  0  8G17G10G04G12G27G28G09G02
 -71319066.10247 -55527955.53145  21875432.5474                   21875430.8634
 -21491778.89547 -16711678.26545  22295920.5864                   22295920.1414
 -56409286.16848 -43941939.88846  20006562.5394                   20006560.9654
  -5237059.22746  -4069386.87543  23843751.8444                   23843749.9574
 -39549336.35247 -30805680.90645  22507244.8444                   22507244.4104
 -87707832.90247 -68319693.11644  22656009.5314                   22656008.3014
 -27869955.93047 -21704523.57045  22123401.1564                   22123400.3094
 -33404280.18448 -26017306.17246  21399786.8284                   21399783.4064
 11  8  2  0 16 30.0000000  0  8G17G10G04G12G27G28G09G02
 -71368577.99247 -55566536.25645  21866010.4614                   21866008.9064
 -21658939.33647 -16841933.08145  22264111.3204                   22264110.3954
 -56469504.80548 -43988863.50346  19995103.5944                   19995101.5204
  -5419227.00446  -4211335.73443  23809085.8364                   23809083.8134
 -39613095.51247 -30855363.38245  22495111.9924                   22495111.4534
 -87718474.64547 -68327985.45544  22653984.6564                   22653983.5664
 -27939658.69947 -21758837.41945  22110137.5474                   22110136.5044
 -33545513.79748 -26127358.29246  21372910.7344                   21372907.3794
 11  8  2  0 17  0.0000000  0  8G17G10G04G12G27G28G09G02
 -71417952.09447 -55605009.61345  21856615.1804                   21856613.5554
 -21825758.47747 -16971921.96745  22232366.1644                   22232365.5124
 -56529176.50848 -44035360.93646  19983747.9774                   19983746.5594
  -5601281.03547  -4353195.99344  23774442.6024                   23774441.1884
 -39676363.43447 -30904663.08045  22483072.5004                   22483071.8444
 -87728719.50447 -68335968.50144  22652035.5164                   22652033.9414
 -28008703.60947 -21812638.69145  22096998.0864                   22096997.2544
 -33686331.53947 -26237086.36246  21346114.1094                   21346110.9384
 11  8  2  0 17 30.0000000  0  8G17G10G04G12G27G28G09G02
 -71467190.37947 -55643377.12545  21847245.2274                   21847243.8594
 -21992235.39147 -17101644.16545  22200686.8754                   22200686.3204
 -56588305.40648 -44081435.40946  19972496.3674                   19972494.7384
  -5783221.21946  -4494967.51843  23739820.0634                   23739818.1804
 -39739143.85547 -30953582.90645  22471126.0864                   22471125.2424
 -87738571.00847 -68343645.06144  22650160.4774                   22650159.6884
 -28077094.27747 -21865930.12945  22083984.2894                   22083983.2114
 -33826735.46547 -26346491.98446  21319395.7974                   21319392.7544
 11  8  2  0 18  0.0000000  0  8G17G10G04G12G27G28G09G02
 -71516289.63347 -55681636.31645  21837902.1094                   21837900.6374
 -22158363.28947 -17231094.44445  22169073.5234                   22169073.3134
 -56646890.21148 -44127085.90646  19961347.7894                   19961346.6134
  -5965042.44147  -4636646.37043  23705220.9224                   23705218.9654
 -39801435.05947 -31002121.54545  22459272.2664                   22459271.8014
 -87748027.06247 -68351013.48044  22648361.3134                   22648360.1294
 -28144828.92647 -21918710.39845  22071095.0004                   22071093.3834
 -33966722.01247 -26455572.38346  21292757.4924                   21292754.0634
 11  8  2  0 18 30.0000000  0  8G17G10G04G12G27G28G09G02
 -71565250.71147 -55719787.82245  21828584.8284                   21828583.5744
 -22324140.13747 -17360271.14045  22137527.5234                   22137526.7854
 -56704933.75448 -44172314.64446  19950302.8134                   19950301.5274
  -6146743.99647  -4778231.94943  23670644.0864                   23670642.2304
 -39863239.46547 -31050280.84745  22447511.5164                   22447511.0824
 -87757089.77747 -68358075.37144  22646636.9064                   22646635.9774
 -28211910.14547 -21970981.50945  22058329.6644                   22058328.6024
 -34106291.71148 -26564327.94846  21266198.2194                   21266195.3634
 11  8  2  0 19  0.0000000  0  8G17G10G04G12G27G28G09G02
 -71614066.31647 -55757825.96545  21819295.5004                   21819294.2274
 -22489555.34047 -17489166.04644  22106049.7974                   22106049.4344
 -56762430.53948 -44217117.33546  19939361.1884                   19939360.2304
  -6328316.15647  -4919716.67944  23636092.3364                   23636090.8714
 -39924551.46547 -31098056.44945  22435844.3754                   22435843.6374
 -87765752.60547 -68364825.70644  22644987.9774                   22644986.9414
 -28278332.30947 -22022739.06745  22045690.0554                   22045688.5354
 -34245436.70348 -26672752.58346  21239719.8204                   21239716.9064
 11  8  2  0 19 30.0000000  0  8G17G10G04G12G27G28G09G02
 -71662736.77047 -55795751.01145  21810034.1094                   21810032.6954
 -22654606.97347 -17617777.64945  22074641.7814                   22074641.1174
 -56819383.45747 -44261496.24246  19928523.6484                   19928522.1564
  -6509758.06647  -5061099.93744  23601565.0234                   23601563.0824
 -39985373.77747 -31145450.48045  22424270.2814                   22424269.7234
 -87774017.85947 -68371266.20844  22643414.8674                   22643413.8014
 -28344098.08647 -22073985.13545  22033175.0314                   22033174.4844
 -34384157.84848 -26780846.94546  21213321.8284                   21213318.8954
 11  8  2  0 20  0.0000000  0  8G17G10G04G12G27G28G09G02
 -71711260.84847 -55833561.98945  21800800.3754                   21800798.5274
 -22819289.98447 -17746102.04944  22043303.5704                   22043302.4694
 -56875792.88348 -44305451.64546  19917789.2814                   19917788.2584
  -6691066.03546  -5202378.83543  23567062.9774                   23567061.5904
 -40045706.45347 -31192462.98045  22412788.7114                   22412789.0204
 -87781885.10947 -68377396.59944  22641918.6884                   22641917.0984
 -28409207.73847 -22124719.94045  22020784.9534                   22020784.0594
 -34522452.93448 -26888609.31646  21187005.2034                   21187002.2464
 11  8  2  0 20 30.0000000  0  8G17G10G04G12G27G28G09G02
 -71759645.10947 -55871264.02245  21791593.1724                   21791591.4734
 -22983607.99247 -17874141.99945  22012034.5234                   22012033.9494
 -56931667.52048 -44348990.31546  19907156.5314                   19907155.0704
  -6872244.52347  -5343556.80244  23532585.2974                   23532584.3094
 -40105557.83647 -31239100.45544  22401399.7814                   22401399.2544
 -87789362.23847 -68383222.99444  22640495.0634                   22640494.1564
 -28473669.42247 -22174949.86145  22008518.6644                   22008517.5744
 -34660328.47348 -26996044.77346  21160768.2894                   21160765.3404
 11  8  2  0 21  0.0000000  0  8G17G10G04G12G27G28G09G02
 -70232466.28147 -54681254.55445  22082205.3834                   22082204.3204
 -21572131.02747 -16774289.77645  22280629.7584                   22280629.0314
 -55411586.25848 -43164511.42046  20196418.7504                   20196417.2464
  -5477864.39846  -4257026.80344  23797926.9534                   23797926.2304
 -38589506.38347 -30057761.72245  22689895.0314                   22689894.2384
 -86221028.94547 -67161145.13744  22938939.7114                   22938938.6214
 -26962061.82047 -20997073.82145  22296167.5004                   22296166.9024
 -33222358.43048 -25875548.60246  21434404.9304                   21434401.5904
 11  8  2  0 21 30.0000000  0  8G17G10G04G12G27G28G09G02
 -70280557.78147 -54718728.45645  22073054.4224                   22073052.2274
 -21735696.87147 -16901743.63445  22249503.8984                   22249503.3754
 -55466384.90248 -43207211.65646  20185990.9774                   20185989.4654
  -5658765.62946  -4397988.75444  23763502.8134                   23763501.4064
 -38648387.80547 -30103643.36545  22678689.9534                   22678689.6414
 -86227716.90247 -67166356.62644  22937666.9224                   22937665.8324
 -27025220.55147 -21046288.44145  22284148.9924                   22284148.2774
 -33359381.94148 -25982320.13246  21408330.4224                   21408327.2234
 11  8  2  0 22  0.0000000  0  8G17G10G04G12G27G28G09G02
 -70328504.80547 -54756089.76645  22063930.3204                   22063928.3164
 -21898884.19947 -17028902.53845  22218450.8524                   22218449.9224
 -55520650.68448 -43249496.67846  20175664.1094                   20175662.7664
  -5839527.30947  -4538841.94444  23729105.3444                   23729103.8984
 -38706788.91447 -30149150.75045  22667576.7974                   22667576.6334
 -86234014.07447 -67171263.55144  22936468.6644                   22936467.9104
 -27087732.58247 -21094999.12945  22272253.7974                   22272252.5634
 -33495981.06648 -26088760.97146  21382336.4844                   21382332.9144
 11  8  2  0 22 30.0000000  0  8G17G10G04G12G27G28G09G02
 -70376304.37547 -54793336.19145  22054834.0944                   22054832.5744
 -22061687.12147 -17155761.90845  22187470.2344                   22187469.6024
 -55574382.74648 -43291365.82546  20165439.3364                   20165437.7584
  -6020144.73047  -4679582.71644  23694734.3754                   23694733.1884
 -38764708.87947 -30194283.22345  22656554.7814                   22656554.5354
 -86239918.67647 -67175864.60944  22935345.0084                   22935344.2304
 -27149597.21947 -21143205.34245  22260481.0864                   22260480.3714
 -33632152.54348 -26194868.58246  21356423.8914                   21356420.5594
 11  8  2  0 23  0.0000000  0  8G17G10G04G12G27G28G09G02
 -70423955.31647 -54830466.80545  22045766.4454                   22045765.1134
 -22224101.51247 -17282318.53445  22156563.8134                   22156563.1294
 -55627582.43048 -43332820.13346  20155315.8674                   20155314.6174
  -6200614.94147  -4820208.82544  23660392.1094                   23660390.9344
 -38822148.53547 -30239041.45045  22645624.6724                   22645624.2934
 -86245431.85547 -67180160.62344  22934295.8284                   22934295.2584
 -27210815.20347 -21190907.69945  22248831.4694                   22248831.0314
 -33767895.43448 -26300642.22846  21330592.8444                   21330589.3164
 11  8  2  0 23 30.0000000  0  8G17G10G04G12G27G28G09G02
 -70471453.82047 -54867478.65445  22036728.0864                   22036726.8164
 -22386120.41047 -17408567.01545  22125732.0704                   22125731.9454
 -55680247.96548 -43373858.21446  20145293.7894                   20145292.6454
  -6380931.90647  -4960715.49944  23626079.6414                   23626077.7704
 -38879105.90247 -30283423.85445  22634786.2664                   22634785.5124
 -86250550.96547 -67184149.62244  22933321.8364                   22933320.8014
 -27271384.59047 -21238104.61444  22237305.8754                   22237305.2974
 -33903205.52748 -26406078.63046  21304844.0634                   21304841.2154
 11  8  2  0 24  0.0000000  0  8G17G10G04G12G27G28G09G02
 -70518804.65647 -54904375.42245  22027717.1254                   22027715.7504
 -22547745.54747 -17534508.64645  22094976.1094                   22094975.5274
 -55732386.28948 -43414485.47946  20135372.3524                   20135371.3324
  -6561098.19147  -5101104.74444  23591794.5784                   23591793.6994
 -38935587.57047 -30327435.56545  22624037.9614                   22624037.1884
 -86255281.47347 -67187835.78544  22932421.8594                   22932420.9064
 -27331312.29747 -21284801.55645  22225901.8134                   22225900.9924
 -34038087.82448 -26511181.68446  21279176.5944                   21279173.2544
 11  8  2  0 24 30.0000000  0  8G17G10G04G12G27G28G09G02
 -70566005.56647 -54941155.38145  22018735.1414                   22018733.9454
 -22708971.50447 -17660139.21045  22064295.5554                   22064295.2384
 -55783997.26648 -43454701.83046  20125551.2734                   20125549.8984
  -6741109.67647  -5241373.39244  23557539.1954                   23557538.3834
 -38991593.28147 -30371076.43145  22613380.4144                   22613380.2194
 -86259623.08247 -67191218.90044  22931595.0474                   22931594.7034
 -27390598.05547 -21330998.24845  22214620.2894                   22214619.4224
 -34172539.94948 -26615949.54546  21253591.0704                   21253588.1294
 11  8  2  0 25  0.0000000  0  8G17G10G04G12G27G28G09G02
 -70613056.34447 -54977818.33945  22009781.8914                   22009780.4804
 -22869795.25047 -17785456.37245  22033692.0234                   22033691.5554
 -55835083.01248 -43494508.90746  20115829.9064                   20115828.4804
  -6920964.59047  -5381520.03044  23523314.4304                   23523313.1254
 -39047124.80947 -30414347.76945  22602812.8914                   22602813.0394
 -86263576.89847 -67194299.85044  22930843.4224                   22930842.6134
 -27449244.07047 -21376696.45445  22203460.2584                   22203458.7664
 -34306561.53548 -26720381.92746  21228087.5864                   21228084.7384
 11  8  2  0 25 30.0000000  0  8G17G10G04G12G27G28G09G02
 -70659959.07447 -55014365.96845  22000856.6954                   22000854.8954
 -23030215.83247 -17910459.39545  22003165.5164                   22003164.6524
 -55885648.01248 -43533910.20646  20106207.5864                   20106206.5984
  -7100663.12947  -5521544.84644  23489119.2344                   23489117.4414
 -39102186.28147 -30457252.89244  22592335.2114                   22592335.0514
 -86267146.68747 -67197081.56244  22930164.2114                   22930163.3594
 -27507254.25047 -21421899.21845  22192421.3984                   22192420.3404
 -34440154.80148 -26824480.55246  21202665.5554                   21202662.7234
 11  8  2  0 26  0.0000000  0  8G17G10G04G12G27G28G09G02
 -70706705.19547 -55050791.52745  21991961.1884                   21991959.8364
 -23190222.55947 -18035139.91345  21972716.7894                   21972716.0944
 -55935686.44148 -43572901.19246  20096685.8284                   20096684.5904
  -7280195.08647  -5661439.86744  23454954.2664                   23454953.1254
 -39156771.65647 -30499786.97144  22581947.8674                   22581947.8444
 -86270325.80947 -67199558.86044  22929558.6174                   22929558.1134
 -27564622.82047 -21466602.01345  22181504.2114                   22181503.7034
 -34573311.62548 -26928239.08346  21177326.6414                   21177323.6954
 11  8  2  0 26 30.0000000  0  9G17G10G04G12G27G28G05G09G02
 -70753306.72347 -55087104.42545  21983092.8914                   21983092.3164
 -23349823.78547 -18159504.45945  21942345.6254                   21942344.9534
 -55985211.84848 -43611492.42246  20087261.0944                   20087260.2624
  -7459569.63747  -5801212.19244  23420820.8674                   23420819.1764
 -39210894.28947 -30541960.47245  22571648.6804                   22571648.9184
 -86273126.88747 -67201741.57444  22929025.4844                   22929025.3524
   4446100.69156   3485926.82653  24640135.4454                   24640138.6604
 -27621363.60247 -21510815.63645  22170707.1484                   22170706.3714
 -34706043.36348 -27031666.39346  21152069.1024                   21152065.5124
 11  8  2  0 27  0.0000000  0  9G17G10G04G12G27G28G05G09G02
 -70799772.27347 -55123311.38745  21974250.7034                   21974249.9534
 -23509025.23047 -18283557.50345  21912050.6724                   21912049.9734
 -56034235.48048 -43649692.66346  20077932.3914                   20077931.2934
  -7638794.10547  -5940867.59944  23386715.5234                   23386713.5084
 -39264565.35547 -30583782.13245  22561435.6644                   22561435.8164
 -86275560.57847 -67203638.00544  22928563.0944                   22928562.1644
   4256907.84846   3338504.14544  24604132.5314                   24604136.0634
 -27677487.96547 -21554548.90745  22160027.1174                   22160026.4344
 -34838358.97748 -27134769.44046  21126890.0234                   21126886.7704
 11  8  2  0 27 30.0000000  0  9G17G10G04G12G27G28G05G09G02
 -70846108.35547 -55159417.43545  21965433.6954                   21965432.1844
 -23667830.89547 -18407302.12545  21881830.7344                   21881830.3244
 -56082766.46548 -43687509.02146  20068697.0944                   20068695.8364
  -7817872.65647  -6080409.29244  23352638.2584                   23352636.4414
 -39317793.47747 -30625258.63044  22551306.7274                   22551306.8324
 -86277634.89547 -67205254.43544  22928167.9144                   22928166.8244
   4067667.87546   3191044.64744  24568121.9844                   24568124.7814
 -27733004.24247 -21597808.38845  22149462.3834                   22149461.7154
 -34970265.24648 -27237553.52146  21101789.0004                   21101785.7114
 11  8  2  0 28  0.0000000  0  9G17G10G04G12G27G28G05G09G02
 -70892313.89147 -55195421.78745  21956641.0864                   21956639.5044
 -23826236.49247 -18530735.01645  21851687.3364                   21851686.7114
 -56130805.82448 -43724942.28446  20059555.4064                   20059554.1024
  -7996802.65247  -6219835.23044  23318588.8674                   23318587.4884
 -39370579.78147 -30666390.86144  22541261.9614                   22541261.6174
 -86279350.47347 -67206591.32443  22927841.6024                   22927840.9924
   3878383.48446   3043550.57444  24532102.4304                   24532104.3794
 -27787913.77747 -21640595.04244  22139013.2274                   22139012.4144
 -35101761.21148 -27340017.89446  21076766.1484                   21076762.6294
 11  8  2  0 28 30.0000000  0  9G17G10G04G12G27G28G05G09G02
 -70938381.17247 -55231318.39545  21947874.7194                   21947873.6334
 -23984231.75047 -18653848.16345  21821621.3054                   21821620.9694
 -56178348.42248 -43761988.46046  20050508.3594                   20050507.2074
  -8175574.41447  -6359137.89144  23284569.7424                   23284568.2704
 -39422918.57846 -30707174.35344  22531301.9614                   22531301.6804
 -86280701.76646 -67207644.32743  22927584.2584                   22927583.8674
   3689064.66446   2896029.63743  24496075.4384                   24496078.0514
 -27842211.17247 -21682904.74544  22128681.2584                   22128680.6254
 -35232839.21148 -27442156.57646  21051822.6644                   21051819.7114
 11  8  2  0 29  0.0000000  0  9G17G10G04G12G27G28G05G09G02
 -70984308.29347 -55267105.77945  21939135.1954                   21939133.6094
 -24141811.73847 -18776637.71445  21791635.0314                   21791634.5864
 -56225394.44548 -43798647.69546  20041556.0944                   20041555.0204
  -8354183.68047  -6498313.89344  23250581.5554                   23250580.1334
 -39474810.04746 -30747609.29544  22521427.8204                   22521427.5554
 -86281687.34847 -67208412.38343  22927396.9614                   22927395.8054
   3499716.22746   2748485.59143  24460042.9064                   24460046.5164
 -27895896.93447 -21724737.82645  22118464.6174                   22118464.2154
 -35363497.35948 -27543968.09846  21026959.8444                   21026956.1134
 11  8  2  0 29 30.0000000  0  9G17G10G04G12G27G28G05G09G02
 -71030096.03547 -55302784.56945  21930421.8204                   21930420.5864
 -24298974.48447 -18899102.13745  21761728.2504                   21761727.7034
 -56271947.49648 -43834922.80046  20032697.3524                   20032696.4144
  -8532629.63747  -6637362.64844  23216624.2114                   23216622.6954
 -39526257.33247 -30787698.11345  22511637.2344                   22511637.7504
 -86282310.25047 -67208897.82143  22927279.0314                   22927277.3754
   3310339.24646   2600919.41543  24424006.5314                   24424008.5944
 -27948974.23847 -21766096.79745  22108364.6804                   22108364.1134
 -35493736.48848 -27645453.10646  21002175.5004                   21002172.4344
 11  8  2  0 30  0.0000000  0  9G17G10G04G12G27G28G05G09G02
 -71075742.15647 -55338352.97945  21921735.5314                   21921734.3834
 -24455715.04747 -19021237.60245  21731901.1094                   21731900.6134
 -56318007.50848 -43870813.72146  20023932.5084                   20023930.9734
  -8710908.07847  -6776280.88144  23182698.9614                   23182698.0594
 -39577260.73846 -30827441.04944  22501931.7584                   22501932.1804
 -86282569.77047 -67209100.15243  22927229.5084                   22927228.5594
   3120937.91046   2453334.15843  24387963.4064                   24387966.4454
 -28001443.32047 -21806981.83745  22098380.2344                   22098379.1414
 -35623554.63348 -27746610.08346  20977472.0314                   20977468.9304
 11  8  2  0 30 30.0000000  0  9G17G10G04G12G27G28G05G09G02
 -69545822.18747 -54146207.56945  22212870.1254                   22212868.6254
 -23036602.17647 -17915435.34245  22001949.3444                   22001948.7854
 -54788152.58248 -42678718.96546  20315054.2504                   20315052.4304
  -7313588.04747  -5687460.03444  23448600.1094                   23448598.2704
 -38052397.68047 -29639236.09644  22792103.8134                   22792103.1844
 -84707044.62147 -65981418.29044  23227041.6954                   23227040.9024
   4506944.24646   3533339.38543  24651711.7424                   24651714.4614
 -26477881.99247 -20619791.20645  22388304.1644                   22388303.6994
 -34177524.88748 -26619833.63346  21252642.1954                   21252638.9534
 11  8  2  0 31  0.0000000  0  9G17G10G04G12G27G28G05G09G02
 -69591174.71947 -54181547.23845  22204239.5634                   22204238.5434
 -23192479.14847 -18036897.86345  21972286.7664                   21972286.5234
 -54833223.93448 -42713839.50646  20306477.0084                   20306476.0904
  -7491515.08647  -5826104.42044  23414741.0784                   23414740.2814
 -38102509.55547 -29678284.33044  22782567.6954                   22782567.5434
 -84706572.40247 -65981050.41244  23227132.2584                   23227130.6484
   4317512.05546   3385730.11743  24615664.3754                   24615666.3244
 -26529131.68047 -20659726.07545  22378552.1564                   22378551.9494
 -34306491.76248 -26720327.28046  21228100.7734                   21228097.7034
 11  8  2  0 31 30.0000000  0  9G17G10G04G12G27G28G05G09G02
 -69636375.68747 -54216768.78145  22195637.9614                   22195636.9224
 -23347915.81247 -18158017.29545  21942708.5164                   21942707.5784
 -54877799.49248 -42748573.71946  20297994.7274                   20297993.5594
  -7669258.58247  -5964605.77744  23380917.8444                   23380917.1884
 -38152174.15647 -29716984.04744  22773116.9144                   22773116.1024
 -84705731.91447 -65980395.58244  23227292.1724                   23227291.4144
   4128072.43846   3238115.05943  24579614.8444                   24579616.5234
 -26579770.88747 -20699185.21244  22368915.6954                   22368914.5824
 -34435028.51248 -26820485.76746  21203641.2504                   21203637.9454
 11  8  2  0 32  0.0000000  0  9G17G10G04G12G27G28G05G09G02
 -69681420.90647 -54251868.98945  22187066.3444                   22187064.8324
 -23502904.81247 -18278787.90345  21913214.8204                   21913214.2154
 -54921877.78948 -42782920.44646  20289606.6954                   20289605.6294
  -7846812.71547  -6102959.62044  23347130.3524                   23347129.0354
 -38201389.58647 -29755333.76344  22763751.8364                   22763751.6134
 -84704520.80947 -65979451.93743  23227522.8754                   23227521.4884
   3938632.00046   3090499.40743  24543565.2974                   24543567.5554
 -26629797.74247 -20738167.21145  22359395.4384                   22359395.2894
 -34563131.16848 -26920305.99246  21179263.8594                   21179260.9344
 11  8  2  0 32 30.0000000  0  9G17G10G04G12G27G28G05G09G02
 -69726314.91447 -54286851.33845  22178523.2664                   22178521.9694
 -23657448.08647 -18399211.17345  21883805.8984                   21883805.5594
 -54965466.02348 -42816885.31546  20281312.4224                   20281310.8954
  -8024180.12147  -6241167.93644  23313378.7114                   23313377.5204
 -38250162.71947 -29793338.80945  22754470.4454                   22754470.4104
 -84702945.37547 -65978224.41344  23227822.5474                   23227821.5944
   3749188.18046   2942881.05243  24507515.0084                   24507516.5554
 -26679219.47347 -20776677.66144  22349991.6954                   22349990.5354
 -34690804.28148 -27019791.52946  21154968.5234                   21154964.9104
 11  8  2  0 33  0.0000000  0  9G17G10G04G12G27G28G05G09G02
 -69771052.23047 -54321711.59545  22170010.2974                   22170008.6884
 -23811537.57847 -18519280.86445  21854484.4384                   21854483.1994
 -55008561.28548 -42850466.04046  20273111.7664                   20273110.4304
  -8201353.18747  -6379224.82444  23279663.5004                   23279662.5044
 -38298490.58647 -29830996.91644  22745273.8204                   22745273.8834
 -84701002.17246 -65976710.30944  23228191.6024                   23228191.9024
   3559748.93446   2795266.27443  24471465.3054                   24471467.8404
 -26728033.51247 -20814714.59844  22340702.3674                   22340701.3094
 -34818043.05548 -27118938.61346  21130755.8674                   21130752.7384
 11  8  2  0 33 30.0000000  0  9G17G10G04G12G27G28G05G09G02
 -69815631.09847 -54356448.39545  22161526.9774                   22161525.3674
 -23965168.58247 -18638993.27945  21825248.9694                   21825248.1334
 -55051164.20748 -42883663.13946  20265004.8054                   20265003.3754
  -8378327.88747  -6517127.13844  23245986.3984                   23245985.3754
 -38346373.56647 -29868308.34344  22736162.0314                   22736161.9184
 -84698690.85946 -65974909.35544  23228631.7974                   23228631.3484
   3370318.28946   2647658.21643  24435418.1644                   24435419.7304
 -26776240.28147 -20852278.35545  22331529.0864                   22331528.3444
 -34944845.64848 -27217745.80646  21106626.4304                   21106622.7734
 11  8  2  0 34  0.0000000  0  9G17G10G04G12G27G28G05G09G02
 -69860048.55147 -54391059.38945  22153074.6644                   22153073.2974
 -24118335.51247 -18758344.10145  21796101.8834                   21796101.3554
 -55093274.39848 -42916476.28046  20256991.2344                   20256990.0864
  -8555099.32447  -6654871.07945  23212348.4224                   23212346.9384
 -38393811.16447 -29905272.71144  22727135.6724                   22727134.8054
 -84696010.29347 -65972820.67944  23229142.1174                   23229141.6454
   3180901.38746   2500060.84544  24399373.6724                   24399375.7154
 -26823839.62547 -20889368.79345  22322470.8594                   22322470.1644
 -35071209.66848 -27316211.25846  21082580.0634                   21082576.8914
 11  8  2  0 34 30.0000000  0  9G17G10G04G12G27G28G05G09G02
 -69904310.50447 -54425549.22945  22144651.9774                   22144650.4494
 -24271041.74247 -18877335.91345  21767043.1884                   21767042.4844
 -55134900.36748 -42948912.11246  20249070.0234                   20249069.0204
  -8731672.10547  -6792460.19244  23178747.7194                   23178746.3484
 -38440811.85947 -29941896.68744  22718191.3524                   22718190.8524
 -84692968.56246 -65970450.61644  23229720.6954                   23229720.5434
   2991494.34046   2352471.14344  24363329.9694                   24363332.3714
 -26870840.39147 -20925992.77245  22313527.1884                   22313526.3794
 -35197141.62948 -27414340.04046  21058615.6724                   21058612.5704
 11  8  2  0 35  0.0000000  0  9G17G10G04G12G27G28G05G09G02
 -69948417.19947 -54459918.10145  22136258.6884                   22136257.2504
 -24423284.58647 -18995966.66745  21738071.9614                   21738071.0234
 -55176044.77748 -42980972.69346  20241240.4924                   20241239.4574
  -8908044.12547  -6929892.88244  23145185.1414                   23145183.6644
 -38487378.14547 -29978182.12044  22709330.2274                   22709329.5354
 -84689567.30946 -65967800.36444  23230368.6954                   23230367.7734
   2802099.60246   2204891.07244  24327288.9144                   24327292.1804
 -26917245.42247 -20962152.56344  22304696.7344                   22304695.7584
 -35322641.60548 -27512132.20846  21034734.1174                   21034730.4734
 11  8  2  0 35 30.0000000  0  9G17G10G04G12G27G28G05G09G02
 -69992363.36347 -54494161.87545  22127896.0394                   22127894.8134
 -24575055.88347 -19114229.97445  21709191.2504                   21709190.4224
 -55216704.98448 -43012655.97846  20233503.1954                   20233501.8914
  -9084207.75447  -7067163.22044  23111662.3284                   23111660.6804
 -38533507.09847 -30014126.79544  22700551.8134                   22700551.8094
 -84685803.23846 -65964867.41043  23231084.1724                   23231084.2424
   2612724.42646   2057326.19544  24291252.2734                   24291254.8444
 -26963052.15247 -20997846.14845  22295979.3524                   22295979.5394
 -35447704.96148 -27609584.14846  21010935.2974                   21010932.0514
 11  8  2  0 36  0.0000000  0  9G17G10G04G12G27G28G05G09G02
 -70036144.06647 -54528276.71845  22119564.8594                   22119563.7814
 -24726348.69547 -19232120.45545  21680400.8364                   21680400.1724
 -55256878.93448 -43043960.36446  20225858.5474                   20225857.1914
  -9260156.64847  -7204266.20944  23078179.9064                   23078178.2544
 -38579196.69547 -30049729.08944  22691857.2584                   22691857.6294
 -84681673.31246 -65961649.35143  23231870.3914                   23231869.8324
   2423376.43446   1909782.48944  24255220.2664                   24255222.2154
 -27008258.43047 -21033071.84644  22287377.0634                   22287376.6914
 -35572327.26248 -27706692.41146  20987220.4924                   20987216.9184
 11  8  2  0 36 30.0000000  0  9G17G10G04G12G27G28G05G09G02
 -70079759.35247 -54562262.66145  22111265.1254                   22111263.6334
 -24877160.18047 -19349635.84645  21651702.5234                   21651701.6764
 -55296569.10548 -43074887.76746  20218305.5634                   20218304.6214
  -9435888.60547  -7341200.17244  23044739.5944                   23044737.7274
 -38624449.18747 -30084990.82144  22683246.2894                   22683245.8284
 -84677179.80546 -65958148.03243  23232725.3134                   23232724.8554
   2234057.03146   1762261.14443  24219193.8674                   24219195.8674
 -27052866.94947 -21067831.75645  22278888.3594                   22278888.2974
 -35696508.82448 -27803457.23946  20963589.4454                   20963585.9304
 11  8  2  0 37  0.0000000  0  9G17G10G04G12G27G28G05G09G02
 -70123210.38347 -54596120.61745  22102996.6484                   22102995.4454
 -25027489.02047 -19466775.19045  21623096.2274                   21623095.1254
 -55335779.45348 -43105441.28846  20210843.9774                   20210842.6214
  -9611403.14847  -7477964.73944  23011339.6484                   23011338.2584
 -38669268.55147 -30119915.02844  22674717.2734                   22674716.9104
 -84672325.73846 -65954365.68743  23233649.4924                   23233648.6764
   2044767.60246   1614763.03443  24183172.4224                   24183175.0354
 -27096882.02347 -21102129.25245  22270512.8204                   22270512.0824
 -35820251.33248 -27899879.95146  20940041.6804                   20940038.4614
 11  8  2  0 37 30.0000000  0  9G17G10G04G12G27G28G05G09G02
 -70166493.48847 -54629847.73745  22094760.3444                   22094758.9654
 -25177328.71947 -19583533.35545  21594582.5554                   21594581.6334
 -55374508.70348 -43135619.92846  20203473.9304                   20203473.1174
  -9786694.25847  -7614555.18644  22977983.0474                   22977981.5354
 -38713653.53147 -30154500.77644  22666271.4454                   22666270.8244
 -84667108.99246 -65950300.77243  23234641.8984                   23234640.7424
   1855514.87146   1467293.58943  24147159.3594                   24147161.5164
 -27140302.64847 -21135963.52944  22262249.7894                   22262250.0824
 -35943551.64548 -27995958.08446  20916578.6334                   20916574.7774
 11  8  2  0 38  0.0000000  0  9G17G10G04G12G27G28G05G09G02
 -70209602.64847 -54663439.30945  22086556.5634                   22086555.5984
 -25326670.60947 -19699903.62345  21566163.0704                   21566162.5124
 -55412753.23048 -43165420.85846  20196196.3054                   20196195.1684
  -9961753.48847  -7750964.94544  22944670.5394                   22944668.8484
 -38757600.24647 -30188744.99744  22657908.1254                   22657908.2774
 -84661525.35546 -65945949.97343  23235705.0164                   23235703.8674
   1666306.53546   1319858.69843  24111153.8364                   24111155.3914
 -27183125.55947 -21169332.03944  22254101.1804                   22254100.6844
 -36066403.68448 -28091686.91246  20893200.6254                   20893196.9534
 11  8  2  0 38 30.0000000  0  9G17G10G04G12G27G28G05G09G02
 -70252537.18047 -54696894.81945  22078386.6174                   22078385.5474
 -25475511.85247 -19815883.77745  21537839.8914                   21537839.6764
 -55450515.62548 -43194846.10146  20189010.3444                   20189009.8364
 -10136579.03547  -7887192.63145  22911402.0314                   22911400.7854
 -38801110.98847 -30222649.50144  22649628.1954                   22649628.6884
 -84655576.76246 -65941314.73243  23236837.3284                   23236835.4494
   1477145.05146   1172460.33343  24075157.4774                   24075158.9884
 -27225353.04347 -21202236.61444  22246065.6564                   22246065.6844
 -36188807.76248 -28187066.69746  20869908.0864                   20869904.6054
 11  8  2  0 39  0.0000000  0  9G17G10G04G12G27G28G05G09G02
 -70295303.51647 -54730219.25045  22070248.2974                   22070247.2344
 -25623856.00047 -19931476.58445  21509611.1024                   21509610.2934
 -55487804.61348 -43223902.46646  20181914.7734                   20181913.6414
 -10311175.14847  -8023241.53444  22878177.4694                   22878176.2814
 -38844194.53147 -30256221.14844  22641429.7504                   22641430.2894
 -84649271.10246 -65936401.32943  23238037.2664                   23238035.8484
   1288026.85246   1025095.57243  24039169.5704                   24039170.7774
 -27266994.41847 -21234684.46944  22238141.4144                   22238141.4384
 -36310770.64148 -28282102.68046  20846699.0164                   20846695.4734
 11  8  2  0 39 30.0000000  0  9G17G10G04G12G27G28G05G09G02
 -70337898.05147 -54763409.82945  22062143.1724                   22062141.7854
 -25771697.35247 -20046677.59745  21481477.7734                   21481476.4024
 -55524619.52748 -43252589.42346  20174908.9694                   20174907.6294
 -10485536.26247  -8159107.33845  22844997.6174                   22844996.3134
 -38886850.24247 -30289459.39744  22633313.4454                   22633313.3014
 -84642607.26646 -65931208.81443  23239304.9144                   23239304.1914
   1098957.85546    877769.31143  24003190.6564                   24003192.0044
 -27308049.35247 -21266675.35444  22230329.4304                   22230328.8134
 -36432289.58248 -28376792.73646  20823574.8444                   20823571.5234
 11  8  2  0 40  0.0000000  0  9G17G10G04G12G27G28G05G09G02
 -68804895.08647 -53568862.10245  22353863.9384                   22353862.8164
 -24343603.96547 -18933877.52745  21753234.9924                   21753233.7234
 -53985537.34048 -42053304.61446  20467786.6804                   20467785.7344
  -9084230.01647  -7067180.35045  23111657.1334                   23111656.4414
 -37353654.89546 -29094761.76644  22925070.3204                   22925070.0554
 -83060162.79746 -64698135.26243  23540434.4694                   23540433.6374
   2485370.96146   1958091.33243  24267016.3524                   24267017.1334
 -25773095.01647 -20070607.04645  22522421.7504                   22522420.6954
 -34977936.42248 -27243530.50946  21100329.0394                   21100325.6254
 11  8  2  0 40 30.0000000  0  9G17G10G04G12G27G28G05G09G02
 -68847137.02747 -53601777.90845  22345825.0164                   22345824.1454
 -24490422.29747 -19048281.38545  21725296.5234                   21725295.3404
 -54021402.60248 -42081251.56646  20460961.6804                   20460960.2544
  -9258105.50447  -7202667.71444  23078570.2194                   23078568.7704
 -37395453.24647 -29127331.93944  22917116.2344                   22917116.4494
 -83052778.57846 -64692381.41543  23541839.3754                   23541838.3014
   2296416.20747   1810854.04143  24231060.0004                   24231060.2544
 -25812976.69547 -20101683.72345  22514832.0234                   22514831.4454
 -35098559.25448 -27337522.30546  21077375.4924                   21077371.6564
 11  8  2  0 41  0.0000000  0  9G17G10G04G12G27G28G05G09G02
 -68889199.01647 -53634553.49845  22337820.9694                   22337820.1024
 -24636722.25847 -19162281.34045  21697455.9924                   21697455.4024
 -54056793.60248 -42108828.97546  20454227.3054                   20454225.6054
  -9431731.85547  -7337960.95245  23045530.3984                   23045528.7624
 -37436823.27347 -29159568.35844  22909243.9304                   22909244.2234
 -83045033.66446 -64686346.48143  23543313.0474                   23543313.0354
   2107525.39847   1663666.57843  24195114.3674                   24195116.0864
 -25852272.68047 -20132303.98044  22507353.6724                   22507353.6484
 -35218731.48048 -27431162.97646  21054507.1724                   21054504.0664
 11  8  2  0 41 30.0000000  0  9G17G10G04G12G27G28G05G09G02
 -68931076.81647 -53667185.56145  22329852.0784                   22329851.0394
 -24782497.03147 -19275872.02945  21669716.4534                   21669715.2774
 -54091708.85248 -42136035.67646  20447583.2894                   20447581.9654
  -9605102.44947  -7473054.88245  23012539.0634                   23012537.1564
 -37477763.38747 -29191469.81644  22901453.9774                   22901453.3284
 -83036926.07846 -64680028.99943  23544856.1254                   23544855.9224
   1918705.45346   1516534.30244  24159182.9304                   24159184.7464
 -25890981.46547 -20162466.70045  22499988.2504                   22499987.5634
 -35338449.15248 -27524449.45146  21031726.1024                   21031722.0084
 11  8  2  0 42  0.0000000  0  9G17G10G04G12G27G28G05G09G02
 -68972777.23847 -53699679.40945  22321916.9924                   22321915.5824
 -24927750.57047 -19389056.57345  21642075.0084                   21642074.1684
 -54126157.85248 -42162879.05446  20441027.4454                   20441026.0904
  -9778222.41847  -7607953.52045  22979595.2034                   22979593.6254
 -37518283.36747 -29223043.85444  22893742.7344                   22893742.7854
 -83028464.66846 -64673435.77443  23546466.5234                   23546465.6914
   1729951.54746   1369453.54043  24123264.3364                   24123265.4734
 -25929113.31647 -20192179.85444  22492731.7814                   22492731.8674
 -35457719.90248 -27617387.66846  21009029.1884                   21009025.8404
 11  8  2  0 42 30.0000000  0  9G17G10G04G12G27G28G05G09G02
 -69014295.02347 -53732030.94445  22314016.6024                   22314015.2854
 -25072475.14547 -19501828.92945  21614535.1884                   21614533.9614
 -54160137.81248 -42189356.95446  20434561.5164                   20434559.9184
  -9951084.29347  -7742651.04045  22946700.0084                   22946698.6644
 -37558380.12547 -29254288.12844  22886112.9614                   22886113.0124
 -83019646.05546 -64666564.26343  23548144.1954                   23548144.8054
   1541271.70346   1222430.46044  24087359.6024                   24087360.8284
 -25966665.74247 -20221441.52345  22485585.7664                   22485585.5744
 -35576538.83248 -27709973.82646  20986418.7664                   20986415.2464
 11  8  2  0 43  0.0000000  0  9G17G10G04G12G27G28G05G09G02
 -69055623.42247 -53764234.91245  22306151.5784                   22306150.7464
 -25216662.36347 -19614182.57745  21587097.4454                   21587095.9024
 -54193645.23048 -42215466.64846  20428185.2664                   20428183.7974
 -10123679.73447  -7877140.94045  22913856.9454                   22913855.5204
 -37598049.84847 -29285199.66744  22878564.3674                   22878563.9804
 -83010465.63346 -64659410.77843  23549891.6724                   23549892.0514
   1352674.57846   1075471.81244  24051470.7584                   24051471.7074
 -26003635.49647 -20250249.14844  22478550.9144                   22478550.5084
 -35694900.32048 -27802203.53846  20963895.1254                   20963891.6884
 11  8  2  0 43 30.0000000  0  9G17G10G04G12G27G28G05G09G02
 -69096762.28147 -53796291.18545  22298323.9454                   22298322.2424
 -25360308.96947 -19726114.95945  21559762.2504                   21559761.1844
 -54226682.63748 -42241210.09546  20421898.4064                   20421896.7114
 -10296006.44947  -8011421.47045  22881063.7814                   22881062.4804
 -37637295.21547 -29315780.48544  22871096.0554                   22871095.3954
 -83000925.57846 -64651977.07743  23551707.2664                   23551707.3954
   1164162.39146    928579.40444  24015597.7734                   24015599.3874
 -26040025.41447 -20278604.96144  22471626.3444                   22471626.0274
 -35812804.70748 -27894077.06946  20941458.7814                   20941455.3914
 11  8  2  0 44  0.0000000  0  9G17G10G04G12G27G28G05G09G02
 -69137714.15247 -53828201.74945  22290530.3984                   22290529.2424
 -25503415.09447 -19837626.19345  21532529.9534                   21532528.8634
 -54259255.01248 -42266591.18046  20415700.0864                   20415698.6994
 -10468064.85947  -8145492.92245  22848323.0004                   22848320.3594
 -37676121.20347 -29346034.55444  22863707.3754                   22863707.4494
 -82991030.07846 -64644266.35043  23553590.7114                   23553590.0474
    975735.41846    781753.38444  23979741.3054                   23979742.3484
 -26075840.97347 -20306513.20344  22464810.3284                   22464810.1414
 -35930254.80148 -27985596.59846  20919108.5474                   20919105.3594
 11  8  2  0 44 30.0000000  0  9G17G10G04G12G27G28G05G09G02
 -69178475.20747 -53859963.61345  22282774.0234                   22282772.6954
 -25645974.90647 -19948711.73145  21505401.7034                   21505400.5314
 -54291361.21948 -42291609.00746  20409590.5164                   20409589.0394
 -10639848.90247  -8279350.58745  22815632.9774                   22815631.3714
 -37714526.87947 -29375961.06944  22856399.1724                   22856399.4844
 -82980777.79346 -64636277.64643  23555540.8134                   23555541.6954
    787399.73846    634998.47444  23943901.8524                   23943903.0634
 -26111081.69147 -20333973.52944  22458104.4384                   22458104.2974
 -36047247.34848 -28076759.59746  20896845.7814                   20896842.2194
 11  8  2  0 45  0.0000000  0  9G17G10G04G12G27G28G05G09G02
 -69219042.44547 -53891574.48645  22275054.0474                   22275053.1174
 -25787983.09447 -20059367.41745  21478378.2814                   21478377.6414
 -54323001.46148 -42316263.74246  20403569.3984                   20403568.1564
 -10811353.41847  -8412990.42445  22782996.9844                   22782995.0394
 -37752512.23847 -29405560.07844  22849170.8444                   22849170.7234
 -82970167.81246 -64628010.26043  23557560.5164                   23557560.4344
    599160.64546    488318.83244  23908080.5474                   23908082.3714
 -26145747.78947 -20360986.09645  22451508.1884                   22451507.4414
 -36163780.42248 -28167564.57146  20874670.0784                   20874666.7114
 11  8  2  0 45 30.0000000  0  9G17G10G04G12G27G28G05G09G02
 -69259411.21547 -53923030.67145  22267372.0784                   22267371.2034
 -25929432.47347 -20169587.68045  21451461.5314                   21451460.6454
 -54354173.56648 -42340553.69946  20397637.3754                   20397636.3204
 -10982572.36347  -8546407.73345  22750414.6254                   22750413.2974
 -37790075.42647 -29434830.15344  22842022.6414                   22842022.8984
 -82959197.52046 -64619462.07443  23559648.3204                   23559647.7854
    411024.68846    341719.60344  23872280.3754                   23872280.6454
 -26179837.78147 -20387549.75044  22445021.1024                   22445020.5824
 -36279850.09448 -28258008.44846  20852582.8674                   20852579.5234
 11  8  2  0 46  0.0000000  0  9G17G10G04G12G27G28G05G09G02
 -69299588.28547 -53954337.50645  22259727.1254                   22259726.0234
 -26070327.78947 -20279376.21745  21424649.9924                   21424648.7344
 -54384887.37948 -42364486.55846  20391792.6954                   20391791.7894
 -11153510.48447  -8679606.22245  22717886.2114                   22717884.9454
 -37827225.77047 -29463778.49644  22834953.4144                   22834952.8714
 -82947876.03146 -64610640.18743  23561802.6094                   23561802.1094
    222987.59846    195197.34844  23836497.7194                   23836498.0514
 -26213361.48047 -20413672.16444  22438641.5314                   22438640.8324
 -36395463.93048 -28348097.13346  20830582.3524                   20830578.7464
 11  8  2  0 46 30.0000000  0  9G17G10G04G12G27G28G05G09G02
 -69339569.47747 -53985491.68145  22252119.2114                   22252117.6054
 -26210663.20747 -20388728.45745  21397944.9694                   21397943.7344
 -54415141.66448 -42388061.33946  20386036.1024                   20386034.6374
 -11324161.63347  -8812581.13145  22685412.2424                   22685410.8164
 -37863962.44147 -29492404.51644  22827962.7974                   22827962.9414
 -82936201.71546 -64601543.36643  23564024.6024                   23564023.8524
     35055.55147     48756.95044  23800735.8134                   23800735.8554
 -26246318.69147 -20439353.13444  22432370.0164                   22432369.8134
 -36510618.78548 -28437828.17446  20808668.7504                   20808665.5164
 11  8  2  0 47  0.0000000  0  9G17G10G04G12G27G28G05G09G02
 -69379351.44547 -54016490.64245  22244548.5864                   22244547.3094
 -26350431.90247 -20497639.09445  21371347.7194                   21371346.2734
 -54444935.22748 -42411277.11546  20380366.4304                   20380365.2424
 -11494519.73047  -8945327.65045  22652994.0394                   22652992.6684
 -37900284.08247 -29520707.13544  22821050.8674                   22821050.6564
 -82924172.55546 -64592170.01343  23566312.9144                   23566312.8674
   -152765.02747    -97596.58344  23764993.8914                   23764995.0124
 -26278708.33247 -20464591.86544  22426206.4454                   22426206.2344
 -36625311.07848 -28527198.78446  20786843.4454                   20786840.2704
 11  8  2  0 47 30.0000000  0  9G17G10G04G12G27G28G05G09G02
 -69418935.67247 -54047335.49745  22237015.6024                   22237014.7774
 -26489633.71547 -20606108.00745  21344858.3914                   21344857.7234
 -54474272.91448 -42434137.66946  20374783.8914                   20374782.7584
 -11664584.87947  -9077845.91745  22620631.9774                   22620630.0394
 -37936195.57047 -29548690.14044  22814216.8594                   22814217.4494
 -82911792.96946 -64582523.69543  23568669.6884                   23568669.2974
   -340473.59847   -243862.86444  23729274.4384                   23729274.5704
 -26310535.75447 -20489392.47044  22420149.6484                   22420149.6524
 -36739543.85548 -28616211.31746  20765105.8204                   20765102.3404
 11  8  2  0 48  0.0000000  0  9G17G10G04G12G27G28G05G09G02
 -69458316.58247 -54078021.93145  22229522.1564                   22229520.6454
 -26628260.47347 -20714128.82345  21318478.7194                   21318477.7074
 -54503151.64148 -42456640.58546  20369288.1724                   20369287.0984
 -11834349.19547  -9210129.77045  22588326.4774                   22588325.5664
 -37971693.98447 -29576351.28844  22807461.6254                   22807462.0634
 -82899059.31246 -64572601.45543  23571092.6884                   23571092.5044
   -528062.01646   -390035.53144  23693577.5394                   23693577.4104
 -26341798.62147 -20513753.19445  22414200.4924                   22414200.3364
 -36853312.21948 -28704861.97946  20743456.2584                   20743453.2464
 11  8  2  0 48 30.0000000  0  9G17G10G04G12G27G28G05G09G02
 -69497489.46147 -54108546.28745  22222067.3524                   22222066.7304
 -26766305.77047 -20821696.54545  21292209.7274                   21292208.4144
 -54531569.91448 -42478784.69846  20363880.3674                   20363879.4454
 -12003805.91847  -9342173.93045  22556080.3444                   22556078.7774
 -38006777.79747 -29603689.36344  22800785.6644                   22800785.8594
 -82885969.32846 -64562401.61643  23573582.4614                   23573584.1954
   -715523.84047   -536109.50144  23657904.3754                   23657905.1214
 -26372495.80947 -20537673.10244  22408359.1414                   22408358.3054
 -36966612.21948 -28793147.67846  20721896.2894                   20721892.7034
 11  8  2  0 49  0.0000000  0  9G17G10G04G12G27G28G05G09G02
 -69536455.80947 -54138909.69845  22214652.5944                   22214651.2624
 -26903768.71547 -20928810.50045  21266051.3054                   21266050.2464
 -54559531.75848 -42500573.14646  20358559.5084                   20358558.2074
 -12172954.82847  -9473978.25245  22523892.4534                   22523890.5084
 -38041451.20747 -29630707.63844  22794188.2114                   22794187.7544
 -82872526.28946 -64551926.66443  23576140.9224                   23576141.9844
   -902857.93046   -682083.99944  23622255.8984                   23622256.1604
 -26402631.71547 -20561155.64644  22402625.0314                   22402624.2424
 -37079445.98448 -28881070.05646  20700424.7274                   20700420.9694
 11  8  2  0 49 30.0000000  0  9G17G10G04G12G27G28G05G09G02
 -67999799.77347 -52941515.41045  22507068.7814                   22507067.0944
 -25465228.01647 -19807869.66345  21539796.5004                   21539795.3244
 -53011624.54348 -41294411.68446  20653116.4224                   20653115.1174
 -10766373.74647  -8377941.00545  22791555.7584                   22791553.7074
 -36500301.19547 -28429811.56744  23087458.7194                   23087458.8834
 -81283318.72346 -63313583.21043  23878558.3204                   23878558.0904
    485358.86746    399643.55244  23886424.2814                   23886424.8444
 -24856794.43047 -19356607.15844  22696788.1804                   22696787.4144
 -35616395.81647 -27741030.94446  20978833.8134                   20978830.2274
 11  8  2  0 50  0.0000000  0  9G17G10G04G12G27G28G05G09G02
 -68038358.55147 -52971561.20545  22499731.4304                   22499729.6884
 -25601525.63347 -19914075.55745  21513859.9454                   21513858.8054
 -53038687.98848 -41315500.08146  20647966.4774                   20647965.1134
 -10934906.58647  -8509265.27545  22759485.0394                   22759482.9224
 -36534167.95747 -28456201.29244  23081014.0784                   23081014.5314
 -81269182.88746 -63302568.32543  23881248.2424                   23881248.2344
    298281.58647    253869.22844  23850825.0084                   23850824.9414
 -24885824.05147 -19379227.64844  22691263.5164                   22691263.4614
 -35728305.39148 -27828233.19146  20957538.1484                   20957534.5664
 11  8  2  0 50 30.0000000  0  9G17G10G04G12G27G28G05G09G02
 -68076711.09847 -53001446.34345  22492432.6254                   22492431.5084
 -25737234.50047 -20019822.69845  21488034.7664                   21488034.3204
 -53065303.74248 -41336239.63146  20642901.5864                   20642900.1254
 -11103125.55147  -8640344.97745  22727473.6804                   22727472.4694
 -36567633.34047 -28482278.24844  23074645.8674                   23074646.0124
 -81254701.38346 -63291284.12443  23884003.4384                   23884003.7584
    111338.72746    108199.58344  23815249.7504                   23815250.6454
 -24914302.71147 -19401418.86144  22685844.3834                   22685843.6724
 -35839751.72748 -27915074.48546  20936330.8984                   20936327.0394
 11  8  2  0 51  0.0000000  0  9G17G10G04G12G27G28G05G09G02
 -68114850.31647 -53031165.21845  22485175.3524                   22485174.0704
 -25872345.60947 -20125104.04045  21462324.7114                   21462323.1994
 -53091467.75848 -41356627.19046  20637922.8284                   20637921.6454
 -11271021.66847  -8771173.09545  22695524.3754                   22695522.8834
 -36600693.12547 -28508039.14544  23068354.9224                   23068355.3284
 -81239869.53546 -63279726.95643  23886826.3134                   23886826.5864
    -75459.92646    -37357.66944  23779703.3284                   23779704.2584
 -24942227.25446 -19423178.28044  22680530.7734                   22680529.6804
 -35950728.46948 -28001549.84646  20915212.7814                   20915208.9224
 11  8  2  0 51 30.0000000  0  9G17G10G04G12G27G28G05G09G02
 -68152777.44547 -53060718.84345  22477958.0394                   22477956.6214
 -26006858.42247 -20229919.20745  21436727.7504                   21436726.2734
 -53117184.25048 -41376666.03146  20633028.7664                   20633027.7704
 -11438594.06247  -8901748.95045  22663636.3914                   22663635.1954
 -36633351.68447 -28533487.44144  23062140.8054                   23062140.5594
 -81224691.10546 -63267899.69843  23889714.5164                   23889714.7664
   -262113.79347   -182802.08444  23744184.5554                   23744185.4574
 -24969602.41047 -19444509.61344  22675321.5234                   22675320.6094
 -36061237.98048 -28087661.15146  20894183.3594                   20894179.3634
 11  8  2  0 52  0.0000000  0  9G17G10G04G12G27G28G05G09G02
 -68190491.63347 -53090106.55145  22470781.1954                   22470779.8204
 -26140769.87947 -20334265.76145  21411244.8594                   21411244.0234
 -53142454.94948 -41396357.49546  20628220.3444                   20628219.2194
 -11605840.03947  -9032070.49045  22631810.4384                   22631808.9924
 -36665611.03947 -28558624.62644  23056001.2344                   23056001.5984
 -81209167.06246 -63255803.09843  23892668.6334                   23892668.8134
   -448619.47346   -328131.02844  23708693.5394                   23708694.1054
 -24996430.64147 -19465414.75444  22670216.0704                   22670215.8914
 -36171279.91848 -28173408.09146  20873242.8204                   20873239.3874
 11  8  2  0 52 30.0000000  0  9G17G10G04G12G27G28G05G09G02
 -68227994.51247 -53119329.59245  22463644.8204                   22463643.3554
 -26274079.63747 -20438143.46545  21385877.1254                   21385875.7774
 -53167284.57448 -41415705.25946  20623495.1884                   20623493.9064
 -11772759.20347  -9162137.33445  22600046.6484                   22600045.2934
 -36697475.74247 -28583454.27544  23049937.7974                   23049938.1884
 -81193301.55146 -63243440.49643  23895688.1254                   23895688.4494
   -634976.29347   -473343.97144  23673231.3134                   23673231.6054
 -25022716.94947 -19485897.62944  22665214.1954                   22665213.4694
 -36280857.11348 -28258792.90146  20852391.0234                   20852387.5594
 11  8  2  0 53  0.0000000  0  9G17G10G04G12G27G28G05G09G02
 -68265287.10547 -53148388.79745  22456548.5864                   22456546.6804
 -26406786.56647 -20541551.42345  21360623.6724                   21360622.3404
 -53191677.21547 -41434712.52346  20618853.4454                   20618852.2194
 -11939350.64847  -9291948.82045  22568345.8204                   22568344.0744
 -36728949.98847 -28607979.70944  23043948.9144                   23043948.8134
 -81177098.38746 -63230814.69843  23898770.8834                   23898772.0394
   -821183.00847   -618439.95644  23637797.0554                   23637797.2814
 -25048466.26647 -19505962.08844  22660314.2344                   22660313.7854
 -36389971.64548 -28343817.17946  20831627.3594                   20831623.7704
 11  8  2  0 53 30.0000000  0  9G17G10G04G12G27G28G05G09G02
 -68302366.98447 -53177282.22145  22449492.2274                   22449490.8594
 -26538886.33247 -20644486.27045  21335485.7274                   21335484.8794
 -53215632.82448 -41453379.24246  20614294.9844                   20614293.9064
 -12105609.68447  -9421501.30345  22536707.4304                   22536705.7734
 -36760034.12547 -28632201.13744  23038033.6724                   23038033.5124
 -81160556.93446 -63217925.41243  23901919.3914                   23901919.2774
  -1007234.44147   -763414.96444  23602392.5944                   23602393.1914
 -25073679.35547 -19525608.64744  22655515.9774                   22655516.0984
 -36498621.88348 -28428479.69146  20810951.9144                   20810948.2114
 11  8  2  0 54  0.0000000  0  9G17G10G04G12G27G28G05G09G02
 -68339227.35247 -53206004.61145  22442477.9454                   22442477.0784
 -26670370.09447 -20746941.12345  21310465.2034                   21310464.0664
 -53239147.88348 -41471702.67646  20609820.3054                   20609819.0234
 -12271527.50047  -9550787.90745  22505134.4774                   22505132.7544
 -36790724.32847 -28656115.63244  23032193.2504                   23032193.7624
 -81143672.85946 -63204769.02743  23905132.0314                   23905132.3834
  -1193121.65247   -908262.01844  23567019.1884                   23567019.4024
 -25098352.85947 -19544834.79244  22650821.0164                   22650820.0234
 -36606801.74248 -28512775.66346  20790365.9064                   20790362.1054
 11  8  2  0 54 30.0000000  0  9G17G10G04G12G27G28G05G09G02
 -68375872.40647 -53234559.24745  22435504.7664                   22435503.3524
 -26801240.35247 -20848917.94545  21285561.7034                   21285560.1254
 -53262229.32448 -41489688.23446  20605427.9144                   20605427.0164
 -12437106.24647  -9679810.28745  22473625.4304                   22473624.1764
 -36821027.91447 -28679728.91144  23026426.7894                   23026426.9184
 -81126453.02346 -63191351.05143  23908408.8364                   23908408.7304
  -1378846.71147  -1052982.68644  23531676.5004                   23531677.0274
 -25122494.71147 -19563646.64544  22646227.1414                   22646226.6454
 -36714516.72348 -28596709.39446  20769868.3444                   20769864.3484
 11  8  2  0 55  0.0000000  0  9G17G10G04G12G27G28G05G09G02
 -68412295.89847 -53262941.19245  22428573.8914                   22428572.1054
 -26931488.96548 -20950410.32645  21260776.1024                   21260774.6094
 -53284874.05947 -41507333.48346  20601118.7194                   20601117.3984
 -12602337.91847  -9808562.18245  22442183.0164                   22442181.6094
 -36850941.84047 -28703038.44944  23020734.6094                   23020734.1914
 -81108893.68046 -63177668.56443  23911750.6094                   23911750.6094
  -1564401.12547  -1197570.38344  23496366.3444                   23496367.2384
 -25146102.33646 -19582042.23944  22641734.3204                   22641734.5394
 -36821761.52348 -28680276.75446  20749460.1724                   20749456.7034
 11  8  2  0 55 30.0000000  0  9G17G10G04G12G27G28G05G09G02
 -68448505.77747 -53291156.71445  22421682.9304                   22421681.6024
 -27061121.77347 -21051422.89045  21236108.0234                   21236106.8164
 -53307092.57447 -41524646.62046  20596890.5004                   20596889.1884
 -12767228.30547  -9937048.18045  22410805.3754                   22410803.5664
 -36880476.99247 -28726052.91644  23015114.1254                   23015114.0824
 -81091004.93046 -63163729.25842  23915154.1484                   23915154.2464
  -1749790.07047  -1342029.17944  23461088.3444                   23461088.2114
 -25169187.15246 -19600030.42944  22637342.0234                   22637341.4884
 -36928545.18748 -28763484.78746  20729139.9774                   20729136.1844
 11  8  2  0 56  0.0000000  0  9G17G10G04G12G27G28G05G09G02
 -68484492.73047 -53319198.52245  22414835.2734                   22414833.7584
 -27190127.54347 -21151946.84045  21211558.5554                   21211557.2704
 -53328878.55947 -41541622.72446  20592744.9614                   20592743.8364
 -12931766.03947 -10065259.38645  22379494.9144                   22379493.6094
 -36909626.94547 -28748767.20244  23009566.6564                   23009567.3484
 -81072779.75446 -63149527.87142  23918623.5234                   23918622.6374
  -1935001.87547  -1486349.96544  23425844.0554                   23425844.1294
 -25191743.41046 -19617606.76644  22633049.1954                   22633048.9654
 -37034859.11748 -28846326.81146  20708909.1174                   20708905.2664
 11  8  2  0 56 30.0000000  0  9G17G10G04G12G27G28G05G09G02
 -68520253.97747 -53347064.42245  22408029.3134                   22408028.6844
 -27318501.98847 -21251978.84745  21187129.8594                   21187128.7934
 -53350232.33248 -41558262.04446  20588681.8204                   20588680.2854
 -13095946.67247 -10193192.30245  22348252.2814                   22348250.9384
 -36938392.21147 -28771181.75044  23004092.6484                   23004093.6914
 -81054218.03145 -63135064.31242  23922153.6954                   23922154.9304
  -2120031.91847  -1630529.08444  23390633.8984                   23390633.0864
 -25213771.88746 -19634771.83044  22628857.4454                   22628857.3164
 -37140702.00848 -28928801.76246  20688767.8444                   20688764.4574
 11  8  2  0 57  0.0000000  0  9G17G10G04G12G27G28G05G09G02
 -68555796.73047 -53374760.10445  22401266.2344                   22401264.9884
 -27446249.73847 -21351522.51045  21162820.0944                   21162818.7704
 -53371163.61747 -41574572.14546  20584698.4614                   20584697.0864
 -13259774.75847 -10320850.54645  22317077.0394                   22317075.2504
 -36966782.69947 -28793304.26444  22998690.6254                   22998691.1764
 -81035329.21146 -63120345.87542  23925749.3524                   23925749.7934
  -2304884.48847  -1774569.93144  23355456.4384                   23355457.2034
 -25235283.07046 -19651533.85144  22624764.0784                   22624763.9884
 -37246081.66048 -29010915.76846  20668714.5474                   20668711.1334
 11  8  2  0 57 30.0000000  0  9G17G10G04G12G27G28G05G09G02
 -68591112.93447 -53402279.23045  22394545.9144                   22394544.7304
 -27573361.42247 -21450570.55345  21138631.5084                   21138630.5864
 -53391667.53548 -41590549.23746  20580796.7734                   20580795.2894
 -13423240.63347 -10448226.51845  22285970.3984                   22285969.0704
 -36994793.84047 -28815131.19544  22993360.4774                   22993360.8984
 -81016108.06246 -63105368.43343  23929407.8204                   23929407.9614
  -2489549.56647  -1918464.67444  23320316.0474                   23320316.3404
 -25256273.14547 -19667889.75244  22620769.9924                   22620770.2704
 -37350991.25048 -29092663.47846  20648751.2274                   20648747.4884
 11  8  2  0 58  0.0000000  0  9G17G10G04G12G27G28G05G09G02
 -68626207.27747 -53429625.49145  22387867.7584                   22387866.5984
 -27699839.80147 -21549125.10245  21114563.7274                   21114562.6524
 -53411751.74248 -41606199.27746  20576975.1484                   20576973.6764
 -13586346.58247 -10575322.02045  22254932.6174                   22254930.8094
 -37022433.27747 -28836668.44744  22988101.3834                   22988101.1524
 -80996561.39546 -63090137.34643  23933126.4144                   23933127.5984
  -2674029.20347  -2062214.92544  23285211.0634                   23285210.5084
 -25276750.27047 -19683846.00144  22616872.6644                   22616873.0274
 -37455436.47748 -29174049.35246  20628876.0944                   20628872.1254
 11  8  2  0 58 30.0000000  0  9G17G10G04G12G27G28G05G09G02
 -68661075.81247 -53456795.79345  22381232.1024                   22381231.0784
 -27825679.70347 -21647182.14045  21090617.2424                   21090615.7814
 -53431415.13348 -41621521.40246  20573233.2274                   20573231.4574
 -13749087.09047 -10702132.78645  22223964.3284                   22223962.2974
 -37049700.48047 -28857915.68244  22982912.6254                   22982912.7894
 -80976687.75046 -63074651.49743  23936908.5944                   23936910.0164
  -2858317.37147  -2205815.99544  23250141.4144                   23250142.4384
 -25296714.01247 -19699402.18044  22613074.2504                   22613073.9574
 -37559414.71148 -29255071.33946  20609089.4614                   20609085.6054
 11  8  2  0 59  0.0000000  0  9G17G10G04G12G27G28G05G09G02
 -67120293.91047 -52256186.53045  22674433.3444                   22674432.2464
 -26375451.05547 -20517133.81645  21366586.3204                   21366585.1954
 -51875236.07448 -40408914.35146  20869364.4304                   20869362.9144
 -12336030.96947  -9601050.06645  22492859.7504                   22492857.8794
 -35501173.64847 -27651271.44544  23277586.9224                   23277587.6214
 -79381066.98046 -61831310.69343  24240545.2424                   24240546.2664
  -1466981.50047  -1121658.03144  23514904.2894                   23514904.8834
 -23740743.89146 -18486957.98244  22909165.3134                   22909165.1644
 -36087499.44948 -28108124.37046  20889185.6954                   20889181.8634
 11  8  2  0 59 30.0000000  0  9G17G10G04G12G27G28G05G09G02
 -67154706.38747 -52283001.47145  22667885.0474                   22667884.0554
 -26500003.31247 -20614187.51445  21342884.5314                   21342883.5314
 -51894061.89848 -40423583.83146  20865781.6564                   20865780.6374
 -12498029.89147  -9727282.96045  22462031.9844                   22462030.4184
 -35527700.73047 -27671941.94744  23272539.3204                   23272539.8834
 -79360542.85246 -61815317.96943  24244450.6024                   24244451.7624
  -1650874.50447  -1264951.18944  23479910.7734                   23479910.5904
 -23759687.87946 -18501719.50844  22905560.8754                   22905560.6024
 -36190542.10948 -28188417.33446  20869577.4384                   20869573.8204
 11  8  2  1  0  0.0000000  0  9G17G10G04G12G27G28G05G09G02
 -67188893.10947 -52309640.49045  22661379.0864                   22661378.0164
 -26623911.73447 -20710739.50045  21319305.7504                   21319304.6334
 -51912475.82447 -40437932.34946  20862277.4774                   20862276.5474
 -12659657.27047  -9853226.33745  22431275.4924                   22431273.6334
 -35553864.91847 -27692329.68144  23267559.9774                   23267560.5984
 -79339699.77046 -61799076.69643  24248417.8594                   24248418.2114
  -1834568.86747  -1408089.53844  23444954.8284                   23444955.1804
 -23778129.91046 -18516089.99544  22902051.0704                   22902051.0314
 -36293121.08648 -28268348.99446  20850057.0944                   20850053.5164
 11  8  2  1  0 30.0000000  0  9G17G10G04G12G27G28G05G09G02
 -67222852.58647 -52336102.43645  22654917.4144                   22654916.5044
 -26747172.87948 -20806787.12045  21295850.1174                   21295849.0704
 -51930479.05947 -40451960.87446  20858851.9454                   20858850.8594
 -12820909.34047  -9978877.28645  22400590.1094                   22400588.3634
 -35579667.71147 -27712435.84444  23262650.1024                   23262651.0474
 -79318538.12946 -61782587.17043  24252445.0394                   24252445.5904
  -2018060.60247  -1551070.00445  23410037.3284                   23410038.2934
 -23796071.72346 -18530070.67144  22898637.1414                   22898636.9344
 -36395235.72748 -28347918.83246  20830625.3444                   20830621.7734
 11  8  2  1  1  0.0000000  0  9G17G10G04G12G27G28G05G09G02
 -67256584.48847 -52362387.06345  22648498.4844                   22648497.0044
 -26869784.54747 -20902328.65245  21272518.1094                   21272516.2304
 -51948074.09047 -40465671.30046  20855503.5234                   20855502.1804
 -12981783.79747 -10104233.98245  22369976.6174                   22369974.9844
 -35605111.50847 -27732262.22144  23257808.4774                   23257808.9414
 -79297059.88346 -61765851.00743  24256531.9774                   24256532.4614
  -2201347.12147  -1693890.55044  23375158.3204                   23375159.4454
 -23813517.03546 -18543664.46344  22895317.2814                   22895317.8954
 -36496886.80948 -28427127.44746  20811282.1484                   20811278.0904
 11  8  2  1  1 30.0000000  0  9G17G10G04G12G27G28G05G09G02
 -67290085.89847 -52388492.05145  22642123.0314                   22642121.9774
 -26991742.16047 -20997360.55645  21249310.0704                   21249308.9184
 -51965260.98848 -40479063.70446  20852232.9924                   20852231.9104
 -13142275.62547 -10229292.53545  22339436.1804                   22339434.6914
 -35630196.68047 -27751809.16044  23253035.7194                   23253036.0164
 -79275265.05545 -61748868.17242  24260678.2274                   24260679.0004
  -2384422.90247  -1836546.87044  23340321.0314                   23340320.7114
 -23830466.32447 -18556871.75544  22892091.8524                   22892091.5274
 -36598072.82448 -28505973.69046  20792026.2114                   20792022.5474
 11  8  2  1  2  0.0000000  0  9G17G10G04G12G27G28G05G09G02
 -67323352.90647 -52414414.42445  22635792.9844                   22635791.5824
 -27113040.82847 -21091878.95745  21226227.3204                   21226226.4224
 -51982039.05548 -40492137.53546  20849040.2344                   20849039.0084
 -13302379.14147 -10354048.48945  22308969.6254                   22308967.8484
 -35654922.88747 -27771076.40244  23248330.0314                   23248330.3524
 -79253152.35945 -61731637.59442  24264887.2734                   24264887.1334
  -2567281.92247  -1979034.31644  23305523.6174                   23305524.0634
 -23846919.97747 -18569692.81644  22888960.8204                   22888961.3634
 -36698790.82048 -28584455.22746  20772860.8594                   20772856.8634
 11  8  2  1  2 30.0000000  0  9G17G10G04G12G27G28G05G09G02
 -67356394.34847 -52440161.03945  22629505.2584                   22629504.1564
 -27233687.40247 -21185889.25145  21203269.0234                   21203267.8284
 -51998419.60548 -40504901.61646  20845923.1644                   20845922.0664
 -13462100.96947 -10478507.03645  22278575.6954                   22278574.1884
 -35679301.73047 -27790072.92944  23243690.7974                   23243691.0864
 -79230733.12145 -61714168.17242  24269152.2814                   24269153.4264
  -2749930.26247  -2121357.60344  23270767.0164                   23270766.4734
 -23862889.97347 -18582137.02444  22885922.2274                   22885922.3674
 -36799050.84848 -28662579.91746  20753781.6724                   20753778.1294
 11  8  2  1  3  0.0000000  0  9G17G10G04G12G27G28G05G09G02
 -67389202.73447 -52465726.02545  22623262.0474                   22623260.9964
 -27353673.03547 -21279384.51445  21180436.9924                   21180435.2704
 -52014398.12148 -40517352.40546  20842882.5554                   20842881.3714
 -13621431.90247 -10602660.97445  22248255.6564                   22248253.9184
 -35703329.09847 -27808795.63944  23239118.2114                   23239118.5864
 -79208002.402 6                  24273478.805
  -2932358.10947  -2263509.03544  23236051.3134                   23236051.9104
 -23878372.97346 -18594201.72944  22882975.9924                   22882975.5234
 -36898846.69948 -28740342.91346  20734791.3914                   20734787.7274
 11  8  2  1  3 30.0000000  0  9G17G10G04G12G27G28G05G09G02
 -67421777.32847 -52491108.85045  22617063.2734                   22617061.9884
 -27472995.27747 -21372362.86345  21157730.2424                   21157729.2974
 -52029977.09848 -40529491.88446  20839918.0474                   20839916.8444
 -13780368.82447 -10726507.90145  22218010.9454                   22218009.2344
 -35727007.74647 -27827246.57644  23234612.2034                   23234612.5044
 -79184961.969 6                  24277863.383
  -3114562.46947  -2405486.35744  23201379.3834                   23201379.5274
 -23893371.93046 -18605889.26144  22880121.5784                   22880121.6454
 -36998178.82048 -28817744.54946  20715888.8914                   20715885.2664
 11  8  2  1  4  0.0000000  0  9G17G10G04G12G27G28G05G09G02
 -67454119.98447 -52516310.96145  22610909.1884                   22610907.5044
 -27591654.81647 -21464824.81245  21135150.0784                   21135149.0514
 -52045161.17647 -40541323.63146  20837028.2974                   20837027.3324
 -13938911.92647 -10850047.96245  22187841.8674                   22187839.5554
 -35750342.75446 -27845429.76744  23230172.2034                   23230172.5514
 -79161616.60546 -61660311.18253  24282306.9304                   24282306.9574
  -3296543.08247  -2547289.32544  23166749.1884                   23166749.5474
 -23907892.88346 -18617204.32844  22877358.9924                   22877358.2704
 -37097050.38748 -28894787.32446  20697074.2424                   20697070.9224
 11  8  2  1  4 30.0000000  0  9G17G10G04G12G27G28G05G09G02
 -67486230.01247 -52541331.76545  22604798.1884                   22604797.0204
 -27709648.99648 -21556768.29545  21112696.7114                   21112695.2734
 -52059952.72347 -40552849.52846  20834213.6094                   20834212.4574
 -14097058.17247 -10973278.78045  22157747.0784                   22157745.7774
 -35773336.36347 -27863346.90744  23225796.5084                   23225797.3204
 -79137967.87546 -61641883.69643  24286806.3134                   24286807.6254
  -3478296.49247  -2688915.26544  23132162.5784                   23132163.2274
 -23921938.43446 -18628148.94744  22874685.4064                   22874685.7304
 -37195461.72748 -28971471.46546  20678347.3524                   20678343.8754
 11  8  2  1  5  0.0000000  0  9G17G10G04G12G27G28G05G09G02
 -67518107.21947 -52566171.19345  22598731.9384                   22598730.7344
 -27826976.59047 -21648192.37645  21090369.5864                   21090368.9304
 -52074354.21947 -40564071.49346  20831472.6094                   20831471.8984
 -14254805.64847 -11096198.84145  22127728.9774                   22127726.9494
 -35795991.52746 -27881000.33744  23221485.5554                   23221486.3754
 -79114018.13746 -61623221.64643  24291364.0784                   24291364.5594
  -3659820.52347  -2830362.48044  23097619.9844                   23097619.7854
 -23935512.39446 -18638726.09344  22872102.3524                   22872103.1294
 -37293414.15248 -29047798.03246  20659707.2114                   20659703.7624
 11  8  2  1  5 30.0000000  0  8G17G10G04G12G27G05G09G02
 -67549748.14547 -52590826.47445  22592711.0314                   22592709.5204
 -27943632.53947 -21739093.09445  21068171.1484                   21068169.5004
 -52088365.05948 -40574989.02746  20828806.6024                   20828806.0354
 -14412148.94547 -11218803.98445  22097787.5084                   22097785.1254
 -35818308.12546 -27898389.95544  23217238.8834                   23217238.9924
  -3841108.94947  -2971626.08844  23063121.5004                   23063121.5554
 -23948615.05147 -18648936.02444  22869609.1954                   22869609.3244
 -37390905.12548 -29123765.02246  20641155.8054                   20641151.8204
 11  8  2  1  6  0.0000000  0  8G17G10G04G12G27G05G09G02
 -67581155.07447 -52615299.42845  22586734.4454                   22586733.6484
 -28059617.60547 -21829471.04345  21046099.5634                   21046098.8094
 -52101990.49648 -40585606.27346  20826214.3444                   20826212.8674
 -14569087.80947 -11341093.98645  22067922.4924                   22067920.7544
 -35840291.58646 -27915519.95244  23213055.8674                   23213055.6914
  -4022161.71547  -3112706.08744  23028668.8834                   23028668.5004
 -23961252.57847 -18658783.48844  22867204.6954                   22867204.8834
 -37487938.05948 -29199375.09246  20622691.2894                   20622687.2194
 11  8  2  1  6 30.0000000  0  8G17G10G04G12G27G05G09G02
 -67612316.38347 -52639580.97745  22580805.1724                   22580803.9734
 -28174918.35548 -21919315.75745  21024158.9534                   21024157.4414
 -52115221.61748 -40595916.23846  20823696.5314                   20823695.3014
 -14725608.61347 -11463058.21445  22038137.5704                   22038135.8634
 -35861933.33647 -27932383.72643  23208936.6884                   23208937.9804
  -4202964.55947  -3253591.33744  22994262.1724                   22994262.4064
 -23973416.96147 -18668262.28944  22864890.2734                   22864889.8834
 -37584502.93048 -29274620.43446  20604315.1334                   20604311.4804
 11  8  2  1  7  0.0000000  0  8G17G10G04G12G27G05G09G02
 -67643219.63747 -52663661.45445  22574924.5554                   22574922.9024
 -28289521.47748 -22008616.85845  21002350.4694                   21002349.4384
 -52128049.54347 -40605912.03246  20821255.2664                   20821253.8984
 -14881697.54747 -11584685.90945  22008435.3364                   22008433.4804
 -35883224.50046 -27948974.31843  23204886.2114                   23204886.3244
  -4383502.98047  -3394270.53145  22959907.7974                   22959907.1454
 -23985099.89146 -18677365.90544  22862666.8284                   22862666.9264
 -37680588.74648 -29349492.49746  20586030.8914                   20586026.5824
 11  8  2  1  7 30.0000000  0  8G17G10G04G12G27G05G09G02
 -67673866.47347 -52687542.14645  22569092.3834                   22569091.0044
 -28403427.19947 -22097374.55545  20980674.8524                   20980673.5434
 -52140478.44148 -40615596.89845  20818890.0314                   20818889.0164
 -15037353.91047 -11705976.55745  21978814.6804                   21978812.5354
 -35904169.75446 -27965295.36143  23200899.6724                   23200900.7704
  -4563776.26647  -3534743.12045  22925602.6334                   22925602.9304
 -23996306.77347 -18686098.60844  22860534.3444                   22860534.6094
 -37776198.19548 -29423993.35246  20567836.9924                   20567833.0204
 11  8  2  1  8  0.0000000  0  8G17G10G04G12G27G05G09G02
 -67704258.83647 -52711224.53145  22563308.6094                   22563307.7734
 -28516636.52347 -22185589.58645  20959131.7194                   20959130.5124
 -52152512.99248 -40624974.47746  20816600.0634                   20816599.0354
 -15192577.65647 -11826930.09845  21949276.2034                   21949274.6724
 -35924774.33646 -27981350.90944  23196979.2734                   23196979.8794
  -4743784.09047  -3675008.89345  22891348.7344                   22891347.9924
 -24007043.37947 -18694464.83244  22858491.2194                   22858492.0514
 -37871334.27348 -29498125.35246  20549733.1334                   20549729.5204
 11  8  2  1  8 30.0000000  0  8G17G10G04G12G27G05G09G02
 -67734400.87547 -52734711.84945  22557572.6724                   22557571.6764
 -28629151.76248 -22273263.78646  20937721.0864                   20937719.8444
 -52164160.18748 -40634050.22145  20814383.5474                   20814382.5744
 -15347370.78147 -11947548.07745  21919820.8444                   21919818.7114
 -35945045.55546 -27997146.74044  23193121.6564                   23193122.5824
  -4923527.86747  -3815068.86945  22857144.1954                   22857144.2274
 -24017317.69947 -18702470.88344  22856536.1094                   22856535.9804
 -37966002.48448 -29571892.79646  20531718.2584                   20531714.4574
 11  8  2  1  9  0.0000000  0  8G17G10G04G12G27G05G09G02
 -67764294.53147 -52758005.60745  22551884.9144                   22551883.4494
 -28740973.95747 -22360397.95545  20916441.6414                   20916440.4494
 -52175425.18748 -40642828.15145  20812240.4224                   20812238.7544
 -15501733.47347 -12067830.68445  21890445.9774                   21890444.5164
 -35964988.91446 -28012687.08844  23189327.3284                   23189327.5634
  -5103007.35547  -3954922.91745  22822990.3364                   22822989.8324
 -24027135.89147 -18710121.47344  22854667.5234                   22854667.9304
 -38060206.34048 -29645298.38546  20513792.2034                   20513788.0474
 11  8  2  1  9 30.0000000  0  8G17G10G04G12G27G05G09G02
 -66218521.49647 -51553507.15945  22846035.1094                   22846034.2074
 -27276680.93047 -21219390.37246  21195087.5634                   21195086.5744
 -50610893.26647 -39423712.38646  21109960.3284                   21109959.4384
 -14080241.09847 -10960174.24845  22160946.7584                   22160945.1804
 -34409189.73446 -26800376.11044  23485386.0944                   23485386.4104
  -3706796.95347  -2866966.70345  23088680.2974                   23088680.1564
 -22461084.18046 -17489821.51844  23152677.5474                   23152677.9844
 -36578526.73048 -28490742.84046  20795745.9924                   20795742.2234
 11  8  2  1 10  0.0000000  0  8G17G10G04G12G27G05G09G02
 -66247923.93047 -51576418.17645  22840440.0554                   22840438.7344
 -27387118.78147 -21305445.82545  21174072.1024                   21174070.4534
 -50621408.11748 -39431905.78646  21107959.6484                   21107958.2504
 -14233742.30147 -11079785.56545  22131736.5004                   22131735.0594
 -34428492.55946 -26815417.32643  23481712.6724                   23481713.1564
  -3885746.02347  -3006407.44645  23054627.0084                   23054627.1024
 -22470007.22747 -17496774.60044  23150979.2814                   23150979.4574
 -36671811.34048 -28563432.12746  20777994.6644                   20777990.9064
 11  8  2  1 10 30.0000000  0  8G17G10G04G12G27G05G09G02
 -66277081.44547 -51599138.30945  22834891.5784                   22834890.2274
 -27496863.10547 -21390960.87345  21153188.1884                   21153187.1414
 -50631552.46148 -39439810.47646  21106029.2114                   21106028.1414
 -14386810.26247 -11199059.28145  22102609.0164                   22102607.3244
 -34447480.39546 -26830213.09844  23478099.0474                   23478099.5434
  -4064426.74247  -3145639.07545  23020625.3754                   23020624.6374
 -22478488.83646 -17503383.68744  23149365.5864                   23149365.3244
 -36764638.89548 -28635765.27346  20760330.2584                   20760326.3094
 11  8  2  1 11  0.0000000  0  8G17G10G04G12G27G05G09G02
 -66305994.69147 -51621668.14644  22829390.0394                   22829388.4534
 -27605913.29747 -21475935.02045  21132436.8134                   21132435.5084
 -50641329.94948 -39447429.30246  21104169.0234                   21104167.2034
 -14539443.54347 -11317994.27845  22073563.6174                   22073561.9694
 -34466157.24646 -26844766.55944  23474544.9064                   23474546.3444
  -4242837.38747  -3284660.27045  22986674.8914                   22986674.5904
 -22486533.59447 -17509652.38244  23147834.6724                   23147834.8204
 -36857011.07848 -28707743.58946  20742752.1564                   20742748.8714
 11  8  2  1 11 30.0000000  0  8G17G10G04G12G27G05G09G02
 -66334665.55547 -51644009.09444  22823933.7974                   22823932.8554
 -27714270.34447 -21560369.07245  21111817.2504                   21111815.6884
 -50650745.72348 -39454766.27646  21102376.9304                   21102375.7074
 -14691642.37947 -11436590.75345  22044600.9454                   22044599.3404
 -34484528.34846 -26859081.77644  23471049.2814                   23471050.6174
  -4420977.70347  -3423470.83445  22952775.4614                   22952775.2034
 -22494147.37547 -17515585.27644  23146385.8204                   23146385.4024
 -36948931.48848 -28779369.88046  20725260.4064                   20725256.9454
 11  8  2  1 12  0.0000000  0  8G17G10G04G12G27G05G09G02
 -66363093.14547 -51666160.49045  22818524.2424                   22818523.1334
 -27821932.37147 -21644261.54445  21091329.8054                   21091328.2424
 -50659801.78148 -39461822.95246  21100653.6884                   21100652.6254
 -14843403.87947 -11554846.45245  22015721.7584                   22015720.1524
 -34502596.33646 -26873160.78544  23467611.0004                   23467612.0904
  -4598844.41847  -3562068.19245  22918928.7344                   22918928.2704
 -22501333.48847 -17521184.88544  23145018.6804                   23145019.4184
 -37040400.71148 -28850644.58446  20707854.4774                   20707850.5124
 11  8  2  1 12 30.0000000  0  8G17G10G04G12G27G05G09G02
 -66391278.47747 -51688123.08744  22813161.1564                   22813159.4024
 -27928899.02347 -21727612.16145  21070974.3364                   21070973.4924
 -50668501.56648 -39468602.01946  21098998.3594                   21098997.4384
 -14994726.77347 -11672760.37245  21986926.2194                   21986924.3714
 -34520365.23046 -26887006.75744  23464230.3204                   23464230.7304
  -4776435.82447  -3700451.00745  22885134.0394                   22885133.6374
 -22508096.60247 -17526454.89744  23143731.3204                   23143732.0044
 -37131421.06648 -28921569.53646  20690533.7584                   20690529.7624
 11  8  2  1 13  0.0000000  0  8G17G10G04G12G27G05G09G02
 -66419218.35947 -51709894.44144  22807844.1804                   22807842.9454
 -28035166.49247 -21810417.95146  21050752.5394                   21050751.1644
 -50676845.27748 -39475103.62346  21097410.3674                   21097409.3714
 -15145605.68047 -11790328.34145  21958215.1804                   21958212.8324
 -34537835.37546 -26900619.90944  23460906.1724                   23460906.3444
  -4953746.66047  -3838615.22345  22851392.8444                   22851392.7034
 -22514437.83646 -17531396.17044  23142524.6094                   23142525.0314
 -37221990.77348 -28992143.32046  20673298.6954                   20673295.3524
 11  8  2  1 13 30.0000000  0  8G17G10G04G12G27G05G09G02
 -66446910.89147 -51731473.04245  22802574.7734                   22802573.5984
 -28140731.34847 -21892676.26945  21030664.2584                   21030662.8134
 -50684833.42248 -39481328.16246  21095890.5704                   21095889.1804
 -15296037.64847 -11907548.02645  21929588.5864                   21929586.6454
 -34555007.95346 -26914001.19044  23457637.5004                   23457638.8364
  -5130772.48847  -3976557.36145  22817706.0314                   22817705.5394
 -22520358.76647 -17536009.94644  23141398.2504                   23141398.4264
 -37312109.02048 -29062365.32646  20656149.8284                   20656146.2274
 11  8  2  1 14  0.0000000  0  8G17G10G04G12G27G05G09G02
 -66474359.02347 -51752861.21945  22797351.0394                   22797350.0474
 -28245595.64547 -21974388.68346  21010709.1334                   21010707.9774
 -50692472.15248 -39487280.42646  21094436.9064                   21094435.8554
 -15446023.06247 -12024419.76445  21901047.1954                   21901045.3554
 -34571889.37546 -26927155.64644  23454425.8754                   23454426.6724
  -5307513.91447  -4114277.86445  22784073.1174                   22784072.9224
 -22525866.27747 -17540301.61344  23140350.5084                   23140350.4494
 -37401780.52048 -29132239.21146  20639086.5944                   20639082.5234
 11  8  2  1 14 30.0000000  0  8G17G10G04G12G27G05G09G02
 -66501565.78147 -51774061.30244  22792173.8054                   22792172.9734
 -28349761.60547 -22055556.93346  20990887.2034                   20990885.8284
 -50699767.18448 -39492964.88246  21093048.9384                   21093047.7464
 -15595563.06247 -12140944.42245  21872590.8444                   21872588.9844
 -34588486.19146 -26940088.27844  23451266.8594                   23451268.3594
  -5483971.57047  -4251777.28145  22750494.1724                   22750494.3014
 -22530967.46947 -17544276.60744  23139379.8914                   23139380.0314
 -37491009.65248 -29201768.40446  20622106.4064                   20622102.5474
 11  8  2  1 15  0.0000000  0  8G17G10G04G12G27G05G09G02
 -66528531.25447 -51795073.38345  22787042.4614                   22787041.8674
 -28453228.05948 -22136180.11645  20971198.4534                   20971196.6804
 -50706721.30548 -39498383.69046  21091725.2194                   21091724.4804
 -15744655.47747 -12257120.31945  21844218.9844                   21844217.6024
 -34604801.23446 -26952801.40943  23448162.1094                   23448163.6684
  -5660142.91447  -4389053.59945  22716969.8754                   22716969.2934
 -22535666.30946 -17547938.06844  23138484.9844                   23138485.9344
 -37579797.57048 -29270953.77946  20605210.6484                   20605206.8444
 11  8  2  1 15 30.0000000  0  8G17G10G04G12G27G05G09G02
 -66555252.60246 -51815895.21745  22781957.9454                   22781956.9104
 -28555991.21947 -22216255.29745  20951643.0234                   20951641.5164
 -50713334.38348 -39503536.75746  21090466.8134                   21090465.8794
 -15893295.40247 -12372943.61945  21815933.9224                   21815932.3794
 -34620834.97346 -26965295.29844  23445111.7504                   23445111.9964
  -5836022.30147  -4526102.35945  22683501.0864                   22683501.1804
 -22539963.84047 -17551286.85844  23137667.6254                   23137667.6134
 -37668142.74648 -29339794.16346  20588398.9694                   20588395.0204
 11  8  2  1 16  0.0000000  0  8G17G10G04G12G27G05G09G02
 -66581733.71146 -51836529.88845  22776918.8364                   22776917.5554
 -28658054.75048 -22295785.29046  20932220.3984                   20932219.4574
 -50719613.71148 -39508429.75146  21089272.2894                   21089271.2584
 -16041485.25047 -12488416.21645  21787734.4774                   21787732.6844
 -34636595.10246 -26977575.96143  23442112.5164                   23442112.8444
  -6011612.08247  -4662925.49445  22650087.8054                   22650087.2274
 -22543868.17647 -17554329.26144  23136924.9614                   23136925.2774
 -37756051.04747 -29408294.12646  20571670.7114                   20571666.8594
 11  8  2  1 16 30.0000000  0  8G17G10G04G12G27G05G09G02
 -66607967.61746 -51856971.89045  22771926.7344                   22771925.2114
 -28759410.19547 -22374763.54846  20912933.6564                   20912932.0394
 -50725554.87148 -39513059.23045  21088141.3914                   21088140.3874
 -16189215.97747 -12603531.04345  21759622.1954                   21759620.3594
 -34652077.77746 -26989640.50943  23439165.7814                   23439167.2304
  -6186902.58647  -4799515.42045  22616730.1484                   22616730.6054
 -22547376.17247 -17557062.81544  23136257.2734                   23136257.6684
 -37843516.85248 -29476449.28346  20555026.0394                   20555022.5274
 11  8  2  1 17  0.0000000  0  8G17G10G04G12G27G05G09G02
 -66633956.42646 -51877222.94844  22766980.5474                   22766980.0234
 -28860059.03147 -22453191.19846  20893780.1954                   20893779.0744
 -50731162.77047 -39517429.03445  21087073.9924                   21087073.2154
 -16336487.57047 -12718288.10945  21731597.6414                   21731595.4654
 -34667288.47346 -27001493.03443  23436272.0784                   23436272.6684
  -6361893.47347  -4935871.86245  22583430.7274                   22583430.6724
 -22550493.90647 -17559492.26844  23135663.9694                   23135664.6564
 -37930543.65248 -29544262.36846  20538465.6094                   20538462.1294
 11  8  2  1 17 30.0000000  0  8G17G10G04G12G27G05G09G02
 -66659700.37546 -51897283.18945  22762081.8914                   22762080.6524
 -28960000.28948 -22531067.48146  20874762.4454                   20874761.2074
 -50736440.37548 -39521541.48145  21086070.0394                   21086069.2344
 -16483298.02347 -12832685.85045  21703660.4844                   21703658.5474
 -34682230.34446 -27013136.14943  23433428.9844                   23433429.6684
  -6536582.26247  -5071992.93745  22550188.9064                   22550188.2854
 -22553225.40647 -17561620.77244  23135144.3524                   23135144.7704
 -38017132.89148 -29611734.50746  20521988.4614                   20521984.7344
 11  8  2  1 18  0.0000000  0  8G17G10G04G12G27G05G09G02
 -66685199.51646 -51917152.65545  22757229.3754                   22757228.8714
 -29059233.71548 -22608392.19945  20855878.4064                   20855877.6804
 -50741390.80947 -39525398.97345  21085127.7344                   21085127.1054
 -16629646.13347 -12946723.32346  21675811.2034                   21675809.1054
 -34696907.35246 -27024572.83643  23430635.8524                   23430636.2974
  -6710966.93747  -5207877.00645  22517004.2974                   22517004.0744
 -22555575.20747 -17563451.82844  23134697.5864                   23134697.5554
 -38103286.45348 -29678867.13946  20505594.0234                   20505590.1484
 11  8  2  1 18 30.0000000  0  8G17G10G04G12G27G05G09G02
 -66710451.87546 -51936829.83145  22752424.1024                   22752423.3524
 -29157756.17647 -22685162.93546  20837130.3134                   20837129.0124
 -50746014.84847 -39529002.13545  21084247.8674                   21084247.2234
 -16775527.52047 -13060397.11046  21648050.9144                   21648048.8594
 -34711320.67646 -27035804.08543  23427893.3054                   23427893.5664
  -6885043.20347  -5343520.77645  22483879.0004                   22483878.5744
 -22557545.21947 -17564986.95144  23134322.0314                   23134322.5864
 -38189003.69148 -29745659.78246  20489282.0474                   20489278.6214
 11  8  2  1 19  0.0000000  0  8G17G10G04G12G27G05G09G02
 -66735459.91447 -51956316.64445  22747665.4304                   22747664.6214
 -29255569.44548 -22761381.04346  20818517.3834                   20818515.9614
 -50750317.41847 -39532354.80845  21083429.2504                   21083428.0634
 -16920942.71947 -13173707.65246  21620379.7424                   21620377.3714
 -34725475.81646 -27046834.13543  23425200.0864                   23425200.2154
  -7058810.64147  -5478923.89245  22450812.2504                   22450811.3754
 -22559141.21947 -17566230.61544  23134018.7974                   23134019.3244
 -38274288.29748 -29812115.30246  20473053.3524                   20473049.5864
 11  8  2  1 19 30.0000000  0  8G17G10G04G12G27G05G09G02
 -65184799.43747 -50748009.77744  23042746.7034                   23042745.6524
 -27777246.28948 -21609440.91046  21099832.6954                   21099831.5594
 -49178877.98848 -38307856.55445  21382464.4144                   21382463.3014
 -15490461.40647 -12059046.87146  21892590.7504                   21892589.1414
 -33163952.49246 -25830062.79643  23722347.6094                   23722348.4694
  -5656837.97347  -4386477.59245  22717598.1804                   22717598.0274
 -20984944.02347 -16339583.53644  23433578.0554                   23433579.1414
 -36783715.82848 -28650630.25446  20756699.5394                   20756695.8244
 11  8  2  1 20  0.0000000  0  8G17G10G04G12G27G05G09G02
 -65209317.17247 -50767114.53545  23038080.9224                   23038080.0274
 -27873637.65248 -21684551.04845  21081490.0234                   21081488.4534
 -49182544.80947 -38310713.83245  21381766.3754                   21381765.4614
 -15634936.88747 -12171625.14846  21865098.3594                   21865096.0354
 -33177599.98446 -25840697.26443  23719750.5234                   23719751.8794
  -5829979.50447  -4521392.99945  22684651.0634                   22684649.9304
 -20985802.91047 -16340252.81344  23433415.4694                   23433415.4844
 -36868138.24248 -28716413.93746  20740634.7894                   20740630.7464
 11  8  2  1 20 30.0000000  0  9G17G10G04G12G27G25G05G09G02
 -65233594.34047 -50786031.83044  23033460.8984                   23033460.3244
 -27969321.61348 -21759109.96646  21063282.3754                   21063280.5474
 -49185902.64147 -38313330.34545  21381127.3984                   21381126.5164
 -15778944.10247 -12283838.55545  21837693.8674                   21837692.5044
 -33191003.14846 -25851141.39843  23717200.8284                   23717201.3714
  13915537.86356  10863756.38453  24755624.1884                   24755626.4884
  -6002809.00846  -4656065.28045  22651762.5784                   22651761.2464
 -20986303.94547 -16340643.29643  23433319.1094                   23433320.4654
 -36952136.26248 -28781866.92846  20724650.7274                   20724646.8134
 11  8  2  1 21  0.0000000  0  9G17G10G04G12G27G25G05G09G02
 -65257633.59046 -50804763.74945  23028886.8444                   23028885.5004
 -28064300.39547 -21833119.38846  21045208.2194                   21045206.9734
 -49188956.88347 -38315710.28145  21380546.3754                   21380545.4184
 -15922483.72747 -12395687.59845  21810379.5784                   21810377.5084
 -33204168.03946 -25861399.81443  23714695.1414                   23714695.7504
  13737814.54346  10725270.71543  24721804.9064                   24721806.1764
  -6175326.55547  -4790494.46545  22618933.5314                   22618932.1414
 -20986453.61347 -16340759.97944  23433291.6254                   23433291.3404
 -37035714.40648 -28846992.74046  20708745.8364                   20708742.1804
 11  8  2  1 21 30.0000000  0  9G17G10G04G12G27G25G05G09G02
 -65281445.72746 -50823318.67745  23024355.6804                   23024354.1804
 -28158583.72347 -21906586.89745  21027266.8524                   21027265.1844
 -49191720.80947 -38317864.00645  21380020.4844                   21380019.3364
 -16065564.53147 -12507179.10546  21783152.3284                   21783150.5594
 -33217108.49646 -25871483.32644  23712232.3914                   23712233.5944
  13560286.13746  10586936.94542  24688022.2194                   24688023.6724
  -6347540.60247  -4924687.17245  22586162.1804                   22586161.2544
 -20986266.55947 -16340614.30344  23433327.7424                   23433327.5044
 -37118884.48048 -28911800.57946  20692918.8444                   20692915.4844
 11  8  2  1 22  0.0000000  0  9G17G10G04G12G27G25G05G09G02
 -65305028.08246 -50841694.55145  23019867.7814                   23019866.5864
 -28252169.14147 -21979510.59745  21009458.0084                   21009456.4614
 -49194195.32047 -38319792.21145  21379549.5234                   21379548.4694
 -16208182.60947 -12618310.07446  21756012.9534                   21756010.7074
 -33229825.92646 -25881393.08743  23709812.6644                   23709813.4414
  13382956.39546  10448757.89842  24654277.8134                   24654278.9494
  -6519446.80947  -5058640.02345  22553449.8134                   22553448.4024
 -20985744.91847 -16340207.86744  23433426.1884                   23433426.7814
 -37201645.96948 -28976290.03246  20677170.1804                   20677166.4384
 11  8  2  1 22 30.0000000  0  9G17G10G04G12G27G25G05G09G02
 -65328382.39147 -50859892.72244  23015423.1884                   23015422.6764
 -28345057.37547 -22051891.01046  20991781.5634                   20991780.3134
 -49196384.03547 -38321497.70745  21379132.9924                   21379132.0594
 -16350337.14147 -12729079.82746  21728961.8674                   21728959.9064
 -33242324.71146 -25891132.47543  23707433.9454                   23707434.3874
  13205826.31646  10310734.58242  24620570.2424                   24620571.6724
  -6691043.63747  -5192351.76745  22520795.2974                   22520794.8164
 -20984893.66046 -16339544.63844  23433587.5864                   23433588.6374
 -37284001.76648 -29040463.37246  20661498.5004                   20661494.6804
 11  8  2  1 23  0.0000000  0  9G17G10G04G12G27G25G05G09G02
 -65351501.04746 -50877907.25345  23011024.2194                   23011023.5164
 -28437240.10948 -22123721.69945  20974240.2194                   20974238.8444
 -49198282.27348 -38322976.87545  21378771.5234                   21378770.8164
 -16492018.59847 -12839480.94046  21702000.5084                   21701998.7624
 -33254600.59846 -25900698.17543  23705097.9144                   23705098.2704
  13028905.42646  10172874.15642  24586902.6954                   24586904.3594
  -6862321.04347  -5325814.62845  22488202.4844                   22488201.4184
 -20983709.02347 -16338621.58244  23433813.8284                   23433814.0554
 -37365945.71148 -29104315.78246  20645904.7584                   20645901.1294
 11  8  2  1 23 30.0000000  0  9G17G10G04G12G27G25G05G09G02
 -65374383.22747 -50895737.55844  23006669.7504                   23006669.1764
 -28528715.79348 -22195001.45146  20956832.7114                   20956831.1454
 -49199891.94148 -38324231.17545  21378465.4384                   21378464.4264
 -16633224.31247 -12949511.36246  21675130.0634                   21675128.4184
 -33266656.07046 -25910092.10643  23702803.9534                   23702804.8954
  12852196.45746  10035179.04343  24553276.9534                   24553278.5274
  -7033275.73847  -5459026.04645  22455670.3364                   22455669.7774
 -20982194.32447 -16337441.33043  23434101.8134                   23434102.3754
 -37447478.06247 -29167847.49346  20630389.8134                   20630386.1524
 11  8  2  1 24  0.0000000  0  9G17G10G04G12G27G25G05G09G02
 -65397030.27746 -50913384.60544  23002360.2734                   23002359.3554
 -28619485.53947 -22265731.09946  20939559.8204                   20939558.3674
 -49201217.43047 -38325264.05845  21378213.6334                   21378212.7464
 -16773953.66047 -13059170.57546  21648350.0634                   21648348.4064
 -33278496.11346 -25919318.23043  23700550.6724                   23700552.2934
  12675699.69546   9897649.13643  24519690.3834                   24519691.7544
  -7203907.12547  -5591985.52745  22423200.7814                   22423199.8984
 -20980354.84447 -16336008.05644  23434451.7894                   23434452.4024
 -37528602.37548 -29231061.23446  20614952.5234                   20614948.7464
 11  8  2  1 24 30.0000000  0  9G17G10G04G12G27G25G05G09G02
 -65419437.50447 -50930844.82344  22998096.2034                   22998095.3404
 -28709544.34047 -22335906.78146  20922422.2734                   20922421.1214
 -49202256.48847 -38326073.70345  21378015.5944                   21378014.3914
 -16914199.94147 -13168453.38646  21621662.1954                   21621660.0164
 -33290119.23446 -25928375.24043  23698339.0394                   23698339.8444
  12499421.91446   9760289.94043  24486146.5784                   24486146.8554
  -7374207.93447  -5724687.39345  22390792.9304                   22390792.7074
 -20978190.08246 -16334321.31444  23434864.8834                   23434864.8094
 -37609315.44148 -29293954.51846  20599593.6414                   20599589.3754
 11  8  2  1 25  0.0000000  0  9G17G10G04G12G27G25G05G09G02
 -65441600.48047 -50948114.71544  22993878.6644                   22993877.6724
 -28798887.51247 -22405524.82345  20905421.1094                   20905419.4264
 -49203007.88347 -38326659.21645  21377872.5784                   21377871.7974
 -17053957.61747 -13277355.46546  21595067.6024                   21595065.2304
 -33301524.75846 -25937262.78443  23696169.2734                   23696170.2274
  12323369.09046   9623105.98543  24452643.9224                   24452645.3954
  -7544171.66447  -5857126.60145  22358450.7194                   22358449.8484
 -20975699.93746 -16332381.00244  23435337.7194                   23435338.8134
 -37689614.39548 -29356525.12746  20584312.8444                   20584309.4224
 11  8  2  1 25 30.0000000  0  9G17G10G04G12G27G25G05G09G02
 -65463520.85947 -50965195.55044  22989707.4304                   22989706.6914
 -28887515.89848 -22474585.88845  20888555.4614                   20888554.3524
 -49203475.29347 -38327023.45845  21377783.3914                   21377782.3554
 -17193225.93047 -13385876.23346  21568565.5394                   21568563.3874
 -33312716.83646 -25945983.96143  23694039.8284                   23694040.4344
  12147542.11346   9486098.06243  24419185.0004                   24419186.4964
  -7713796.87547  -5989302.02145  22326171.4694                   22326170.7664
 -20972889.28146 -16330190.92144  23435872.5474                   23435873.6764
 -37769502.07848 -29418775.25846  20569110.6644                   20569107.1024
 11  8  2  1 26  0.0000000  0  9G17G10G04G12G27G25G05G09G02
 -65485202.23847 -50982090.13944  22985581.4534                   22985580.6054
 -28975432.56248 -22543092.36545  20871825.1484                   20871823.8874
 -49203664.98848 -38327171.27845  21377748.1724                   21377746.6054
 -17332006.30147 -13494016.75746  21542156.5164                   21542154.4884
 -33323702.43746 -25954544.23743  23691948.2584                   23691949.8484
  11971939.45746   9349264.85643  24385768.9774                   24385770.1684
  -7883084.86747  -6121214.68145  22293957.7194                   22293956.6564
 -20969765.68746 -16327757.04343  23436467.0944                   23436468.2464
 -37848983.55548 -29480708.86946  20553985.9384                   20553982.1644
 11  8  2  1 26 30.0000000  0  9G17G10G04G12G27G25G05G09G02
 -65506643.07447 -50998797.30844  22981501.8594                   22981500.7504
 -29062635.94147 -22611043.03646  20855231.3204                   20855230.0084
 -49203578.59847 -38327103.98745  21377764.1334                   21377763.0664
 -17470295.51647 -13601774.57446  21515840.8134                   21515838.8094
 -33334483.73446 -25962945.33743  23689897.0084                   23689897.7974
  11796564.28146   9212608.96143  24352396.6334                   24352398.7194
  -8052032.12547  -6252861.82045  22261807.4144                   22261806.7894
 -20966331.89846 -16325081.42344  23437121.6564                   23437121.2274
 -37928059.02348 -29542326.11046  20538938.5394                   20538934.6374
 11  8  2  1 27  0.0000000  0  9G17G10G04G12G27G25G05G09G02
 -65527838.62147 -51015313.33144  22977468.3134                   22977467.3674
 -29149121.07047 -22678434.02246  20838773.3134                   20838771.8674
 -49203213.94948 -38326819.85945  21377833.4694                   21377832.3244
 -17608087.03947 -13709144.57946  21489619.6174                   21489617.7154
 -33345059.38746 -25971186.19143  23687885.1174                   23687885.5554
  11621423.28946   9076135.45743  24319068.4304                   24319069.1484
  -8220631.21547  -6384237.67945  22229724.0394                   22229723.6644
 -20962587.38346 -16322163.66843  23437833.8674                   23437833.9574
 -38006725.62147 -29603624.74546  20523968.6094                   20523964.8674
 11  8  2  1 27 30.0000000  0  9G17G10G04G12G27G25G05G09G02
 -65548787.36747 -51031637.05544  22973481.8284                   22973480.9844
 -29234885.81247 -22745263.68846  20822453.1804                   20822451.8284
 -49202571.98048 -38326319.63545  21377956.2584                   21377954.6054
 -17745377.13747 -13816123.87346  21463494.7344                   21463492.9184
 -33355430.85546 -25979267.92043  23685911.3364                   23685913.1174
  11446520.21546   8939847.49943  24285785.1174                   24285787.2114
  -8388878.19947  -6515339.14445  22197707.8914                   22197706.9804
 -20958534.12546 -16319005.38544  23438604.7734                   23438605.6644
 -38084982.96547 -29664604.50046  20509076.7734                   20509073.1374
 11  8  2  1 28  0.0000000  0  9G17G10G04G12G27G25G05G09G02
 -65569488.23047 -51047767.62844  22969542.5784                   22969541.8014
 -29319929.38347 -22811531.38546  20806269.7664                   20806268.5004
 -49201654.52348 -38325604.75345  21378130.7504                   21378129.3094
 -17882163.29747 -13922710.49246  21437464.8914                   21437462.8524
 -33365600.58646 -25987192.46844  23683976.4144                   23683976.7464
  11271857.96546   8803747.05444  24252548.0164                   24252549.8244
  -8556769.48847  -6646163.47145  22165759.1884                   22165758.1094
 -20954175.18446 -16315608.87744  23439434.4844                   23439434.4224
 -38162831.64847 -29725265.80646  20494262.8444                   20494258.8834
 11  8  2  1 28 30.0000000  0  9G17G10G04G12G27G25G05G09G02
 -65589944.21947 -51063707.35044  22965650.0784                   22965649.1214
 -29404254.21548 -22877239.03545  20790223.2734                   20790221.8674
 -49200467.08248 -38324679.49045  21378356.1484                   21378355.3324
 -18018446.41447 -14028905.11746  21411531.0554                   21411528.8714
 -33375574.68746 -25994964.61143  23682078.3834                   23682079.4804
  11097435.56346   8667833.57344  24219356.1564                   24219357.9224
  -8724305.91047  -6776711.24345  22133877.7584                   22133877.0084
 -20949517.60946 -16311979.64343  23440320.4224                   23440320.7384
 -38240276.07447 -29785612.11246  20479525.6884                   20479521.7154
 11  8  2  1 29  0.0000000  0  9G17G10G04G12G27G25G05G09G02
 -65610155.56247 -51079456.49844  22961803.3524                   22961803.0204
 -29487860.52747 -22942386.79046  20774313.6414                   20774312.1174
 -49199012.61347 -38323546.14845  21378633.1724                   21378632.3484
 -18154225.14147 -14134706.70146  21385693.1174                   21385691.5234
 -33385356.82046 -26002587.14143  23680217.2584                   23680218.1524
  10923254.66446   8532108.22943  24186211.1254                   24186212.5784
  -8891485.35947  -6906980.88245  22102064.3364                   22102063.6804
 -20944565.28546 -16308120.75143  23441263.1484                   23441263.6724
 -38317318.36348 -29845645.06646  20464864.9384                   20464861.3954
 11  8  2  1 29 30.0000000  0  9G17G10G04G12G27G25G05G09G02
 -65630116.67247 -51095010.61544  22958005.5704                   22958004.6914
 -29570742.18748 -23006969.90446  20758541.8134                   20758540.5204
 -49197288.32447 -38322202.58645  21378961.2034                   21378959.9804
 -18289491.85247 -14240109.32046  21359952.5234                   21359951.0164
 -33394944.85146 -26010058.46244  23678392.6174                   23678393.3714
  10749322.98846   8396577.07043  24153112.8524                   24153114.1914
  -9058299.77747  -7036966.06345  22070320.5944                   22070319.8444
 -20939317.09047 -16304031.30844  23442262.0164                   23442262.5784
 -38393954.33248 -29905361.40146  20450281.3524                   20450277.6844
 11  8  2  1 30  0.0000000  0  9G17G10G04G12G27G25G05G09G02
 -65649825.28147 -51110367.99844  22954255.0944                   22954254.5474
 -29652896.76648 -23070986.43846  20742908.3054                   20742906.8674
 -49195294.12547 -38320648.68345  21379340.4064                   21379339.4414
 -18424242.35547 -14345109.69346  21334310.3054                   21334308.2074
 -33404339.72746 -26017379.19343  23676604.5314                   23676606.0664
  10575644.90646   8261243.48243  24120062.8914                   24120064.2234
  -9224744.39147  -7166663.08545  22038647.2344                   22038646.4884
 -20933774.48046 -16299712.43644  23443316.7194                   23443316.6174
 -38470183.33647 -29964760.63046  20435775.7734                   20435771.7584
 11  8  2  1 30 30.0000000  0  9G17G10G04G12G27G25G05G09G02
 -64093867.47746 -49897933.38744  23250344.3594                   23250343.1884
 -28158908.14148 -21906839.44146  21027204.8674                   21027203.4534
 -47617619.67247 -37091291.98245  21679561.8834                   21679561.1094
 -16983056.80947 -13222107.94646  21608559.0394                   21608557.1564
 -31838130.96146 -24796956.85443  23974643.5704                   23974645.6994
  11977641.62946   9353708.53543  24386853.8524                   24386855.4024
  -7815397.81647  -6068470.88745  22306836.7584                   22306836.1454
 -19352528.14847 -15067572.48943  23744217.6484                   23744219.0084
 -36970590.87148 -28796247.01946  20721138.7194                   20721134.4224
 11  8  2  1 31  0.0000000  0  9G17G10G04G12G27G25G05G09G02
 -64113077.49646 -49912902.25744  23246688.8364                   23246687.5394
 -28239614.79348 -21969727.72345  21011847.1334                   21011845.2384
 -47615100.50847 -37089329.01045  21680041.9064                   21680040.4614
 -17116775.63747 -13326304.41946  21583113.5634                   21583111.5044
 -31847155.73446 -24803989.19343  23972927.3834                   23972928.8404
  11804470.35546   9218769.94943  24353900.5784                   24353902.1254
  -7981102.01247  -6197590.96545  22275304.4144                   22275303.7424
 -19346415.03147 -15062809.07344  23745381.0474                   23745382.0084
 -37046017.13348 -28855020.72446  20706785.3524                   20706781.8364
 11  8  2  1 31 30.0000000  0  9G17G10G04G12G27G25G05G09G02
 -64132029.05146 -49927669.74144  23243082.8134                   23243081.6454
 -28319588.28947 -22032044.72245  20996628.4924                   20996626.7274
 -47612313.37947 -37087157.23045  21680571.8444                   21680570.6724
 -17249967.03147 -13430089.89746  21557767.8134                   21557765.8324
 -31855991.24646 -24810874.12443  23971245.6334                   23971247.1254
  11631564.79346   9084038.34544  24320998.1254                   24320999.6214
  -8146423.30147  -6326412.68445  22243845.1564                   22243844.3754
 -19340013.35247 -15057820.82344  23746600.4774                   23746600.1374
 -37121034.87147 -28913476.11446  20692510.0944                   20692506.1054
 11  8  2  1 32  0.0000000  0  9G17G10G04G12G27G25G05G09G02
 -64150730.91447 -49942242.64944  23239523.8134                   23239522.5434
 -28398837.34048 -22093797.20745  20981547.7894                   20981546.3014
 -47609269.55147 -37084785.43245  21681150.9694                   21681149.8164
 -17382637.73847 -13533469.64646  21532521.3524                   21532519.1294
 -31864649.40646 -24817620.89543  23969598.6804                   23969599.9344
  11458918.31346   8949508.62543  24288144.3284                   24288145.1724
  -8311368.19547  -6454941.11945  22212457.0634                   22212456.0664
 -19333335.71947 -15052617.52044  23747870.2344                   23747870.4264
 -37195654.50048 -28971621.27846  20678310.5084                   20678306.6334
 11  8  2  1 32 30.0000000  0  9G17G10G04G12G27G25G05G09G02
 -64169178.06647 -49956617.08044  23236013.5864                   23236012.0784
 -28477356.89547 -22154981.27045  20966605.8914                   20966604.5084
 -47605966.79747 -37082211.87345  21681779.1174                   21681778.6134
 -17514780.98047 -13636438.39146  21507375.3204                   21507373.5594
 -31873128.48846 -24824228.05643  23967984.9454                   23967986.4654
  11286537.93846   8815186.34343  24255340.6484                   24255342.3714
  -8475928.89147  -6583170.20145  22181142.0634                   22181141.3244
 -19326381.07847 -15047198.38643  23749193.7194                   23749194.2734
 -37269872.94548 -29029453.84046  20664186.8594                   20664183.1454
 11  8  2  1 33  0.0000000  0  9G17G10G04G12G27G25G05G09G02
 -64187373.26647 -49970795.19744  23232550.8914                   23232549.9694
 -28555149.70347 -22215599.02545  20951802.3134                   20951801.0354
 -47602410.34447 -37079440.64045  21682456.5704                   21682455.6644
 -17646397.61347 -13738996.79446  21482329.3524                   21482327.5474
 -31881434.60946 -24830700.42743  23966404.6804                   23966405.7974
  11114422.89146   8681070.69543  24222589.0004                   24222589.4964
  -8640105.95747  -6711100.34745  22149900.1954                   22149899.5044
 -19319156.03546 -15041568.53544  23750568.7034                   23750569.2894
 -37343694.57848 -29086977.19546  20650139.3444                   20650135.5554
 11  8  2  1 33 30.0000000  0  9G17G10G04G12G27G25G05G09G02
 -64205313.53147 -49984774.64044  23229137.1804                   23229135.8444
 -28632213.07047 -22275648.38645  20937137.7894                   20937136.0124
 -47598600.21547 -37076471.71145  21683181.7114                   21683180.5434
 -17777483.08247 -13841141.28446  21457384.6884                   21457382.8714
 -31889568.17646 -24837038.38343  23964856.5394                   23964858.5004
  10942577.95746   8547165.57943  24189887.7664                   24189888.6374
  -8803894.18447  -6838727.48245  22118732.4774                   22118731.8404
 -19311661.93046 -15035729.04644  23751994.9614                   23751995.8164
 -37417117.83247 -29144190.11646  20636167.2344                   20636163.3914
 11  8  2  1 34  0.0000000  0  9G17G10G04G12G27G25G05G09G02
 -64223000.13347 -49998556.43644  23225771.7274                   23225770.3554
 -28708548.01647 -22335130.13045  20922611.9064                   20922610.0904
 -47594539.81247 -37073307.78045  21683954.2114                   21683953.5164
 -17908036.79347 -13942871.42646  21432541.4064                   21432539.4104
 -31897533.35946 -24843245.13143  23963341.3204                   23963342.8164
  10771004.37547   8413471.86043  24157238.4064                   24157239.4184
  -8967292.37947  -6966050.70745  22087638.9384                   22087637.7074
 -19303903.58646 -15029683.65644  23753471.1414                   23753472.0314
 -37490145.35247 -29201094.68446  20622270.8204                   20622267.0234
 11  8  2  1 34 30.0000000  0  9G17G10G04G12G27G25G05G09G02
 -64240433.18447 -50012140.66344  23222453.8284                   23222453.0234
 -28784155.00848 -22394044.65545  20908224.6414                   20908222.4884
 -47590231.72747 -37069950.85745  21684773.8524                   21684772.9654
 -18038056.87147 -14044185.74946  21407799.0474                   21407797.2584
 -31905333.78946 -24849323.47643  23961856.7974                   23961858.2074
  10599703.98046   8279991.03143  24124641.0234                   24124642.5274
  -9130298.04747  -7093068.05045  22056619.8834                   22056618.8094
 -19295885.13746 -15023435.55744  23754997.1334                   23754997.8324
 -37562779.47348 -29257692.68646  20608449.0004                   20608445.2504
 11  8  2  1 35  0.0000000  0  9G17G10G04G12G27G25G05G09G02
 -64257615.46147 -50025529.51144  23219184.1174                   23219183.1024
 -28859036.46948 -22452393.83945  20893974.7664                   20893972.8914
 -47585681.14847 -37066404.96445  21685639.8834                   21685639.0314
 -18167544.42247 -14145085.11846  21383158.5944                   21383156.7074
 -31912975.57846 -24855278.26543  23960402.6954                   23960404.5314
  10428676.30946   8146722.75143  24092095.2734                   24092096.8094
  -9292911.86347  -7219780.06945  22025675.5084                   22025674.5124
 -19287613.24246 -15016990.00844  23756571.1024                   23756572.2424
 -37635023.62948 -29313986.84046  20594701.3524                   20594697.6174
 11  8  2  1 35 30.0000000  0  9G17G10G04G12G27G25G05G09G02
 -64274540.71947 -50038718.00744  23215963.4694                   23215962.7504
 -28933186.47747 -22510173.03145  20879864.4774                   20879862.9804
 -47580884.66047 -37062667.44945  21686553.1174                   21686551.2304
 -18296491.22748 -14245563.12246  21358620.9534                   21358618.5514
 -31920455.67646 -24861106.98743  23958979.1954                   23958980.6604
  10257929.42246   8013673.31544  24059603.5864                   24059605.4384
  -9455125.14547  -7346179.97145  21994806.3364                   21994805.8674
 -19279085.52046 -15010345.10644  23758194.0474                   23758195.4414
 -37706873.85248 -29369974.02446  20581028.4224                   20581024.8324
 11  8  2  1 36  0.0000000  0  9G17G10G04G12G27G25G05G09G02
 -64291209.62146 -50051706.79444  23212791.5474                   23212790.7424
 -29006606.09447 -22567383.10245  20865893.1884                   20865891.3984
 -47575845.46548 -37058740.82245  21687512.1954                   21687510.6954
 -18424896.70347 -14345619.31046  21334186.1334                   21334184.0554
 -31927777.98046 -24866812.78443  23957585.4614                   23957587.8484
  10087464.82846   7880843.78443  24027165.0314                   24027166.2344
  -9616936.25447  -7472266.50145  21964015.5394                   21964014.4924
 -19270306.74247 -15003504.56644  23759864.7814                   23759865.8134
 -37778332.25048 -29425655.88846  20567430.5554                   20567426.7504
 11  8  2  1 36 30.0000000  0  9G17G10G04G12G27G25G05G09G02
 -64307620.39847 -50064494.43344  23209668.2814                   23209667.6414
 -29079293.39847 -22624022.54946  20852061.1174                   20852059.8164
 -47570563.88747 -37054625.34245  21688516.8134                   21688515.6024
 -18552757.14147 -14445250.80646  21309855.1094                   21309852.6564
 -31934943.92646 -24872396.71943  23956222.6804                   23956223.4654
   9917286.60547   7748237.40744  23994781.6174                   23994783.0084
  -9778340.66047  -7598036.11545  21933300.7974                   21933299.9774
 -19261278.85946 -14996469.94243  23761582.7274                   23761583.4224
 -37849398.66048 -29481032.31346  20553907.1884                   20553903.4064
 11  8  2  1 37  0.0000000  0  9G17G10G04G12G27G25G05G09G02
 -64323771.56646 -50077079.72544  23206594.9844                   23206594.5354
 -29151247.59047 -22680090.73745  20838368.9694                   20838367.1374
 -47565041.02347 -37050321.80245  21689567.9064                   21689566.5434
 -18680068.97747 -14544454.81746  21285628.1094                   21285626.1954
 -31941955.53946 -24877860.44343  23954888.3754                   23954889.8204
   9747398.20747   7615856.92244  23962453.0944                   23962454.4304
  -9939334.84047  -7723486.06245  21902664.5784                   21902663.6844
 -19252004.22746 -14989243.01343  23763347.1724                   23763347.8484
 -37920073.23447 -29536103.41446  20540458.1644                   20540454.0984
 11  8  2  1 37 30.0000000  0  9G17G10G04G12G27G25G05G09G02
 -64339666.81646 -50089465.67544  23203570.5864                   23203569.4734
 -29222472.49248 -22735590.64845  20824814.8834                   20824813.4494
 -47559283.40648 -37045835.36945  21690663.3834                   21690662.1724
 -18806834.78548 -14643233.35746  21261505.6254                   21261503.6294
 -31948819.73446 -24883209.32643  23953582.4694                   23953584.1524
   9577797.90647   7483700.91744  23930178.3674                   23930180.4264
 -10099920.34847  -7848617.59145  21872106.2504                   21872105.6954
 -19242490.73846 -14981830.02043  23765157.7504                   23765159.0474
 -37990361.33647 -29590873.35846  20527082.8444                   20527078.9804
 11  8  2  1 38  0.0000000  0  9G17G10G04G12G27G25G05G09G02
 -64355310.07447 -50101655.23344  23200593.5474                   23200592.7504
 -29292971.91847 -22790525.24345  20811399.4224                   20811398.0164
 -47553297.02747 -37041170.66145  21691802.3054                   21691801.6644
 -18933056.40248 -14741587.85246  21237486.2734                   21237484.1174
 -31955543.52046 -24888448.73043  23952302.2344                   23952305.1724
   9408484.19947   7351768.25244  23897959.5784                   23897960.5354
 -10260098.35247  -7973431.57246  21841625.3984                   21841624.4024
 -19232745.94946 -14974236.73343  23767011.9454                   23767013.1024
 -38060268.18448 -29645346.21546  20513780.2504                   20513776.2734
 11  8  2  1 38 30.0000000  0  9G17G10G04G12G27G25G05G09G02
 -64370692.01246 -50113641.17744  23197666.1254                   23197666.1254
 -29362737.02747 -22844887.65745  20798123.3914                   20798121.9304
 -47547074.96147 -37036322.31145  21692986.7114                   21692985.7074
 -19058722.68448 -14839509.61946  21213573.0784                   21213571.3524
 -31962120.67646 -24893573.89143  23951051.2194                   23951052.8914
   9239468.57447   7220067.81844  23865796.8674                   23865798.2624
 -10419857.10247  -8097918.85446  21811224.1174                   21811223.3054
 -19222764.30146 -14966458.91343  23768912.5554                   23768913.6414
 -38129786.01248 -29699515.94546  20500551.0864                   20500547.5634
 11  8  2  1 39  0.0000000  0  9G17G10G04G12G27G25G05G09G02
 -64385815.25847 -50125425.58144  23194788.6954                   23194787.8524
 -29431770.61747 -22898680.03645  20784986.8594                   20784985.3634
 -47540622.11747 -37031294.14045  21694214.9144                   21694213.5554
 -19183834.01648 -14936998.95546  21189764.9774                   21189762.9384
 -31968556.92246 -24898589.27143  23949826.8284                   23949828.4384
   9070750.71947   7088599.42844  23833690.7584                   23833692.0234
 -10579196.79747  -8222079.61746  21780903.3284                   21780902.2854
 -19212552.09846 -14958501.46843  23770855.0084                   23770856.3834
 -38198919.06248 -29753385.86446  20487395.5634                   20487391.3484
 11  8  2  1 39 30.0000000  0  9G17G10G04G12G27G25G05G09G02
 -64400677.26647 -50137006.34944  23191960.3984                   23191959.5314
 -29500070.78147 -22951900.91945  20771989.9144                   20771988.0944
 -47533938.84047 -37026086.40245  21695486.5944                   21695485.4024
 -19308387.10948 -15034053.30646  21166062.9924                   21166060.8524
 -31974853.21546 -24903495.61043  23948628.1804                   23948630.2974
   8902334.97347   6957366.44844  23801642.5314                   23801643.4694
 -10738112.73447  -8345910.16545  21750661.9774                   21750661.2544
 -19202111.05146 -14950365.61743  23772842.2114                   23772843.4344
 -38267666.56247 -29806955.32846  20474313.5704                   20474309.8524
 11  8  2  1 40  0.0000000  0  9G17G10G04G12G27G25G05G09G02
 -64415276.58646 -50148382.45744  23189182.1644                   23189181.3634
 -29567636.34447 -23004549.40145  20759132.7424                   20759130.9614
 -47527025.75047 -37020699.58645  21696801.8284                   21696800.8134
 -19432378.68748 -15130670.12646  21142468.7344                   21142466.4614
 -31981011.19146 -24908294.13143  23947457.3524                   23947459.0904
   8734225.03946   6826371.77443  23769651.9454                   23769652.8674
 -10896601.81247  -8469408.09246  21720503.2034                   21720501.9734
 -19191443.62546 -14942053.42143  23774871.9064                   23774873.7274
 -38336028.76648 -29860224.58346  20461304.5394                   20461300.5234
 11  8  2  1 40 30.0000000  0  9G17G10G04G12G27G25G05G09G02
 -64429615.80947 -50159555.86144  23186453.9064                   23186453.0084
 -29634470.30147 -23056627.79245  20746414.3834                   20746412.4614
 -47519887.67247 -37015137.46245  21698160.3674                   21698159.3834
 -19555809.34848 -15226849.85146  21118980.3364                   21118978.4694
 -31987036.53946 -24912989.36243  23946309.8984                   23946312.2734
   8566420.68046   6695615.24443  23737719.7194                   23737720.8324
 -11054663.15247  -8592572.72446  21690424.7894                   21690423.5744
 -19180555.97746 -14933569.61943  23776944.4534                   23776945.4734
 -38404009.48848 -29913196.57046  20448368.0234                   20448364.5594
 11  8  2  1 41  0.0000000  0  9G17G10G04G12G27G25G05G09G02
 -64443698.98847 -50170529.81944  23183773.5634                   23183772.6214
 -29700577.30547 -23108139.72946  20733834.9064                   20733832.9414
 -47512531.44947 -37009405.34545  21699559.8284                   21699559.3984
 -19678681.44147 -15322594.33346  21095598.6884                   21095596.2384
 -31992936.50846 -24917586.86043  23945188.7274                   23945190.0784
   8398919.93846   6565095.27344  23705845.0164                   23705846.7464
 -11212298.77047  -8715405.62146  21660427.5634                   21660426.5234
 -19169456.13346 -14924920.48043  23779057.6954                   23779057.4414
 -38471614.75848 -29965875.99246  20435503.3284                   20435499.5354
 11  8  2  1 41 30.0000000  0  9G17G10G04G12G27G25G05G09G02
 -62882099.37147 -48953698.98444  23480937.0784                   23480935.1954
 -28190529.13747 -21931478.81145  21021187.5864                   21021185.6374
 -45929533.18747 -35775900.21545  22000794.3134                   22000793.5314
 -18225562.39148 -14190293.78546  21372117.9844                   21372115.9344
 -30423288.01246 -23694484.21643  24243881.4774                   24243883.7544
   9807156.81347   7662422.78543  23973823.8444                   23973824.2544
  -9794074.80947  -7610296.00146  21930306.9224                   21930305.5514
 -17582721.94946 -13688504.30943  24081002.1024                   24081002.9414
 -36963417.59848 -28790657.41646  20722503.3444                   20722499.7624
 11  8  2  1 42  0.0000000  0  9G17G10G04G12G27G25G05G09G02
 -62895658.73847 -48964264.76844  23478356.1414                   23478354.5904
 -28255171.82447 -21981849.72846  21008886.0474                   21008884.5474
 -45921735.82447 -35769824.36545  22002278.1484                   22002277.1604
 -18347300.94148 -14285154.98846  21348951.7274                   21348949.6884
 -30428935.60546 -23698885.10143  24242807.0944                   24242809.3554
   9640281.32046   7532389.97143  23942067.7734                   23942069.0554
  -9950840.73047  -7732451.23446  21900475.1884                   21900474.1484
 -17571197.48846 -13679524.26243  24083195.3364                   24083195.7034
 -37030264.68748 -28842746.04546  20709783.2194                   20709779.1684
 11  8  2  1 42 30.0000000  0  9G17G10G04G12G27G25G05G09G02
 -62908961.68047 -48974630.70744  23475824.3524                   23475823.4924
 -28319088.29748 -22031654.75946  20996723.0004                   20996721.7304
 -45913726.75847 -35763583.56045  22003802.1804                   22003801.2074
 -18468475.69948 -14379576.89546  21325893.3054                   21325890.7854
 -30434467.03146 -23703195.34243  24241755.1724                   24241756.0234
   9473716.39547   7402599.22144  23910372.3364                   23910373.3834
 -10107173.55147  -7854268.98146  21870726.1094                   21870724.6024
 -17559471.87146 -13670387.46143  24085426.3674                   24085428.0234
 -37096740.65648 -28894545.50646  20697133.0634                   20697128.7664
 11  8  2  1 43  0.0000000  0  9G17G10G04G12G27G25G05G09G02
 -62922005.37547 -48984794.63644  23473342.9454                   23473341.1994
 -28382276.35548 -22080892.18345  20984699.0394                   20984696.9344
 -45905505.25847 -35757177.21645  22005366.9924                   22005365.5944
 -18589082.05948 -14473555.87446  21302942.1094                   21302940.5944
 -30439882.40645 -23707415.31843  24240724.3594                   24240726.0314
   9307467.15247   7273054.38743  23878735.9224                   23878736.8094
 -10263068.13747  -7975745.21546  21841060.0394                   21841059.2234
 -17547545.95746 -13661094.64643  24087695.9064                   24087696.6414
 -37162844.20348 -28946054.74846  20684554.2424                   20684550.3634
 11  8  2  1 43 30.0000000  0  9G17G10G04G12G27G25G05G09G02
 -62934784.30947 -48994752.26644  23470911.0864                   23470909.5234
 -28444731.12548 -22129558.22245  20972814.0234                   20972812.3634
 -45897068.38347 -35750603.04845  22006972.7894                   22006971.6334
 -18709112.88348 -14567086.37946  21280101.5634                   21280099.3204
 -30445179.58246 -23711543.06043  24239716.2424                   24239718.7114
   9141541.32847   7143761.57443  23847161.4144                   23847161.6724
 -10418516.63347  -8096873.86346  21811478.9694                   21811477.8714
 -17535417.97746 -13651644.33543  24090003.7814                   24090005.3484
 -37228571.33648 -28997270.70046  20672046.4924                   20672042.6054
 11  8  2  1 44  0.0000000  0  9G17G10G04G12G27G25G05G09G02
 -62947301.91447 -49004506.27144  23468528.8594                   23468527.8714
 -28506456.37947 -22177655.81445  20961068.5314                   20961066.5634
 -45888421.84447 -35743865.49745  22008617.4694                   22008616.7114
 -18828570.31647 -14660170.10646  21257369.8054                   21257367.4774
 -30450365.35546 -23715584.03343  24238728.8834                   24238731.7274
   8975937.42647   7014719.59843  23815647.7814                   23815648.2274
 -10573520.30147  -8217655.90246  21781983.0784                   21781981.9384
 -17523095.28146 -13642042.31043  24092348.8364                   24092349.9774
 -37293927.15248 -29048197.28946  20659609.4454                   20659605.8914
 11  8  2  1 44 30.0000000  0  9G17G10G04G12G27G25G05G09G02
 -62959557.43447 -49014056.06344  23466197.0394                   23466195.5124
 -28567452.17648 -22225184.98546  20949461.0784                   20949459.5744
 -45879567.12947 -35736965.73445  22010302.5004                   22010301.9384
 -18947451.53148 -14752804.81746  21234747.1884                   21234744.9964
 -30455441.87945 -23719539.86043  24237762.5234                   24237765.6214
   8810658.80547   6885931.10444  23784196.2274                   23784196.6994
 -10728076.00847  -8338088.87346  21752571.7504                   21752570.7194
 -17510580.85547 -13632290.87643  24094730.5704                   24094731.1724
 -37358912.15248 -29098834.94846  20647243.3984                   20647239.3634
 11  8  2  1 45  0.0000000  0  9G17G10G04G12G27G25G05G09G02
 -62971557.22747 -49023406.57944  23463913.1484                   23463912.0824
 -28627725.76247 -22272151.40946  20937991.3054                   20937989.9614
 -45870512.83647 -35729910.45145  22012025.9384                   22012025.1094
 -19065761.58248 -14844994.45946  21212233.1884                   21212230.8954
 -30460418.80946 -23723418.13843  24236817.1724                   24236818.4104
   8645701.14547   6757392.69944  23752806.2114                   23752806.7584
 -10882187.86347  -8458175.98446  21723244.9924                   21723244.2074
 -17497884.58246 -13622397.70143  24097146.3364                   24097147.5164
 -37423534.59048 -29149190.07946  20634946.5944                   20634942.3094
 11  8  2  1 45 30.0000000  0  9G17G10G04G12G27G25G05G09G02
 -62983296.66846 -49032554.23344  23461678.9614                   23461678.5864
 -28687272.95347 -22318551.80646  20926660.0234                   20926658.2274
 -45861256.78147 -35722697.97045  22013787.0234                   22013786.5044
 -19183494.17247 -14936734.14146  21189829.5474                   21189827.3914
 -30465294.47345 -23727217.42343  24235888.9454                   24235890.9804
   8481071.31347   6629109.73544  23721478.4384                   23721478.9064
 -11035848.79747  -8577911.72346  21694004.8054                   21694003.2814
 -17485005.88746 -13612362.52043  24099597.6174                   24099598.3324
 -37487791.41448 -29199260.32846  20622718.6094                   20622714.9104
 11  8  2  1 46  0.0000000  0  9G17G10G04G12G27G25G05G09G02
 -62994775.57446 -49041498.86044  23459495.1094                   23459494.1914
 -28746094.40647 -22364386.70145  20915466.7194                   20915464.7344
 -45851800.96547 -35715329.82645  22015586.7584                   22015586.0474
 -19300647.37147 -15028022.35146  21167536.1334                   21167534.5634
 -30470072.02346 -23730940.34543  24234980.0944                   24234982.2304
   8316771.64847   6501084.04744  23690212.8134                   23690213.2624
 -11189056.57447  -8697294.35146  21664850.2194                   21664849.1254
 -17471948.45747 -13602187.95143  24102082.1024                   24102083.0784
 -37551684.05148 -29249046.80246  20610560.1884                   20610556.1454
 11  8  2  1 46 30.0000000  0  9G17G10G04G12G27G25G05G09G02
 -63005993.40246 -49050240.04544  23457360.2664                   23457359.7384
 -28804190.27047 -22409656.17245  20904411.5004                   20904410.2774
 -45842146.78947 -35707807.11645  22017423.3444                   22017422.6604
 -19417219.24647 -15118857.57346  21145353.3284                   21145350.9454
 -30474753.68746 -23734588.46643  24234089.3364                   24234090.6884
   8152805.13747   6373317.93744  23659010.8054                   23659011.6484
 -11341808.10547  -8816321.47346  21635782.3594                   21635781.1174
 -17458715.28946 -13591876.52943  24104600.6254                   24104602.0664
 -37615213.43048 -29298550.22246  20598471.1484                   20598466.9344
 11  8  2  1 47  0.0000000  0  9G17G10G04G12G27G25G05G09G02
 -63016949.59046 -49058777.39344  23455275.9924                   23455274.5204
 -28861560.43747 -22454360.19345  20893494.5314                   20893492.7274
 -45832296.02347 -35700131.22345  22019298.4454                   22019297.4264
 -19533207.86747 -15209238.30946  21123281.2664                   21123279.6604
 -30479342.21546 -23738164.11643  24233215.9224                   24233218.5354
   7989174.44947   6245813.52644  23627872.5784                   23627874.2424
 -11494100.62947  -8934990.92146  21606802.0314                   21606800.8594
 -17445309.44546 -13581430.45343  24107151.9534                   24107153.0474
 -37678380.86747 -29347771.58746  20586450.8054                   20586446.9534
 11  8  2  1 47 30.0000000  0  9G17G10G04G12G27G25G05G09G02
 -63027645.59846 -49067111.96444  23453240.4304                   23453239.8284
 -28918207.47347 -22498500.71845  20882714.7274                   20882712.8794
 -45822252.69547 -35692305.26145  22021209.6804                   22021208.6954
 -19648613.08247 -15299164.44346  21101320.5394                   21101318.3674
 -30483842.21946 -23741670.71543  24232360.1174                   24232362.3914
   7825880.39847   6118571.45144  23596799.2734                   23596800.1604
 -11645933.34047  -9053302.08146  21577909.3284                   21577907.9454
 -17431736.25846 -13570854.04743  24109734.2814                   24109735.2774
 -37741189.26647 -29396713.19046  20574498.6174                   20574494.6414
 11  8  2  1 48  0.0000000  0  9G17G10G04G12G27G25G05G09G02
 -63038084.75446 -49075246.41144  23451253.7034                   23451253.7074
 -28974135.17647 -22542080.74346  20872072.2114                   20872070.4884
 -45812021.94547 -35684333.27445  22023156.3594                   22023155.6414
 -19763436.39547 -15388637.14246  21079470.0784                   21079468.1414
 -30488260.05146 -23745113.34643  24231518.2424                   24231521.2624
   7662921.89547   5991590.81644  23565788.6644                   23565790.0314
 -11797307.44547  -9171255.89246  21549103.7274                   21549102.5514
 -17418002.71546 -13560152.73643  24112347.3914                   24112349.3054
 -37803643.15648 -29445378.55746  20562613.7114                   20562609.8634
 11  8  2  1 48 30.0000000  0  9G17G10G04G12G27G25G05G09G02
 -63048257.92246 -49083173.59944  23449317.7584                   23449317.9494
 -29029335.27747 -22585093.79445  20861568.0864                   20861566.0084
 -45801597.11747 -35676210.04345  22025140.3284                   22025139.1954
 -19877667.30548 -15477648.24346  21057732.7734                   21057731.0944
 -30492589.84446 -23748487.29543  24230696.5164                   24230697.7854
   7500310.43847   5864880.59444  23534845.0944                   23534846.1134
 -11948211.04347  -9288843.08146  21520387.6804                   21520386.4494
 -17404103.47746 -13549322.22943  24114992.6644                   24114994.3754
 -37865735.06248 -29493761.85646  20550798.3834                   20550794.2774
 11  8  2  1 49  0.0000000  0  9G17G10G04G12G27G25G05G09G02
 -63058172.18046 -49090899.03944  23447431.2344                   23447430.7704
 -29083815.89547 -22627546.20645  20851200.3284                   20851198.8244
 -45790987.03947 -35667942.47545  22027159.2194                   22027158.5824
 -19991311.45347 -15566202.11046  21036107.3674                   21036104.8134
 -30496841.50846 -23751800.41143  24229886.6254                   24229888.7504
   7338041.17647   5738437.02644  23503965.5474                   23503967.4304
 -12098649.22347  -9406067.58446  21491760.0004                   21491758.8714
 -17390049.40646 -13538371.12043  24117666.9694                   24117668.3714
 -37927474.14148 -29541870.21746  20539049.5164                   20539045.5514
 11  8  2  1 49 30.0000000  0  9G17G10G04G12G27G25G05G09G02
 -63067829.28946 -49098424.10544  23445592.8594                   23445592.9844
 -29137579.48047 -22669439.90646  20840969.2114                   20840967.7464
 -45780195.78947 -35659533.72744  22029212.4534                   22029211.5744
 -20104369.12948 -15654298.98346  21014593.2274                   21014590.8554
 -30501019.74246 -23755056.31043  24229091.1644                   24229093.7234
   7176114.78547   5612260.68244  23473152.7974                   23473154.0004
 -12248621.41047  -9522928.97346  21463221.7424                   21463219.9964
 -17375845.55546 -13527303.28143  24120370.0944                   24120372.3324
 -37988863.21547 -29589705.85646  20527367.6254                   20527363.6844
 11  8  2  1 50  0.0000000  0  9G17G10G04G12G27G25G05G09G02
 -63077226.31246 -49105746.51644  23443805.0164                   23443804.6054
 -29190623.68447 -22710773.03246  20830875.3834                   20830873.8754
 -45769222.22347 -35650982.94045  22031301.0864                   22031300.1054
 -20216835.44147 -15741935.06846  20993191.2664                   20993189.0164
 -30505124.44146 -23758254.88943  24228310.8524                   24228312.1764
   7014536.57847   5486355.58944  23442405.1024                   23442406.8444
 -12398122.28147  -9639423.10546  21434772.0164                   21434770.8954
 -17361492.79746 -13516119.41943  24123101.0554                   24123103.2344
 -38049900.88748 -29637267.68046  20515752.6414                   20515748.5124
 11  8  2  1 50 30.0000000  0  9G17G10G04G12G27G25G05G09G02
 -63086364.57046 -49112867.24544  23442065.9774                   23442065.5864
 -29242951.10248 -22751547.63945  20820917.7734                   20820916.1454
 -45758070.24647 -35642293.08044  22033423.3284                   22033421.8444
 -20328710.62548 -15829110.51446  20971902.1724                   20971899.9064
 -30509160.51646 -23761399.94543  24227542.3364                   24227544.7034
   6853307.31647   5360722.41744  23411723.9384                   23411725.3404
 -12547151.22747  -9755549.50046  21406413.0864                   21406411.7464
 -17346996.27346 -13504823.54643  24125860.7034                   24125861.3484
 -38110590.27748 -29684558.10846  20504203.8594                   20504199.7384
 11  8  2  1 51  0.0000000  0  9G17G10G04G12G27G25G05G09G02
 -63095241.94146 -49119784.74444  23440376.6954                   23440376.3204
 -29294560.16447 -22791762.48045  20811097.0394                   20811095.1374
 -45746739.46147 -35633463.92844  22035579.5004                   22035577.8444
 -20439990.85548 -15915822.36646  20950726.0394                   20950723.8674
 -30513128.41846 -23764491.95443  24226787.9064                   24226790.3554
   6692431.66047   5235364.78644  23381110.5394                   23381112.2384
 -12695703.43047  -9871304.41146  21378144.6564                   21378143.0554
 -17332357.29746 -13493416.67944  24128646.3594                   24128647.3484
 -38170930.41448 -29731576.40646  20492721.3134                   20492717.9304
 11  8  2  1 51 30.0000000  0  9G17G10G04G12G27G25G05G09G02
 -63103861.11346 -49126501.00544  23438737.2114                   23438736.7194
 -29345455.03147 -22831420.81045  20801411.7894                   20801410.8204
 -45735235.16447 -35624499.54244  22037768.4384                   22037767.5354
 -20550677.97348 -16002072.05946  20929663.0474                   20929660.8524
 -30517034.32446 -23767535.62643  24226044.9534                   24226046.5274
   6531908.73447   5110282.02644  23350563.9064                   23350565.2894
 -12843779.82447  -9986688.56246  21349966.1724                   21349964.8284
 -17317582.28546 -13481903.75943  24131457.8524                   24131459.1564
 -38230926.14548 -29778326.32346  20481305.5314                   20481301.4614
 11  8  2  1 52  0.0000000  0  9G17G10G04G12G27G25G05G09G02
 -63112219.02346 -49133013.67544  23437146.8524                   23437145.7274
 -29395633.84047 -22870521.17546  20791863.1174                   20791861.7234
 -45723555.87547 -35615398.81645  22039990.8594                   22039990.2154
 -20660766.77748 -16087855.53346  20908713.7504                   20908711.9734
 -30520877.89846 -23770530.65543  24225313.2664                   24225314.7344
   6371744.24247   4985478.56344  23320086.1884                   23320087.2344
 -12991375.03947 -10101697.77346  21321879.8524                   21321878.6804
 -17302671.56246 -13470285.12343  24134295.8984                   24134296.5124
 -38290575.55148 -29824806.37646  20469953.9844                   20469950.1134
 11  8  2  1 52 30.0000000  0  9G17G10G04G12G27G25G05G09G02
 -61544895.41446 -47911722.60144  23735398.7114                   23735397.8244
 -27869675.60947 -21681462.77945  21082242.9694                   21082241.8324
 -44136284.28947 -34378563.80844  22342039.0474                   22342037.6054
 -19194832.58648 -14945569.14446  21187672.0314                   21187669.9224
 -28949242.05546 -22545879.54743  24524384.5944                   24524387.8984
   7787365.76247   6088560.26644  23589469.9064                   23589471.3014
 -11563061.75448  -8988726.32746  21593678.8204                   21593677.7234
 -15712209.41846 -12230964.07143  24436950.6884                   24436952.1684
 -36774458.31648 -28643416.30846  20758461.2274                   20758457.2074
 11  8  2  1 53  0.0000000  0  9G17G10G04G12G27G25G05G09G02
 -61552733.46547 -47917830.22144  23733907.2504                   23733905.5124
 -27918426.91847 -21719450.79845  21072966.5164                   21072964.6644
 -44124263.99647 -34369197.36344  22344326.1804                   22344325.3284
 -19303723.62148 -15030419.29446  21166950.4144                   21166948.4844
 -28952972.39846 -22548786.40543  24523675.7114                   24523678.4264
   7627922.54346   5964318.83044  23559128.7584                   23559129.8364
 -11709689.97748  -9102982.02946  21565776.6804                   21565775.1454
 -15697040.91046 -12219144.56543  24439836.5634                   24439838.8444
 -36833422.16448 -28689362.15946  20747240.9454                   20747236.8484
 11  8  2  1 53 30.0000000  0  9G17G10G04G12G27G25G05G09G02
 -61560315.51646 -47923738.33644  23732464.0634                   23732463.5124
 -27966470.15247 -21756887.08645  21063824.2114                   21063822.5864
 -44112080.10947 -34359703.43844  22346644.4844                   22346643.6484
 -19412017.21947 -15114803.91246  21146343.2504                   21146340.9534
 -28956654.65646 -22551655.80243  24522974.9844                   24522977.5044
   7468839.48447   5840358.03344  23528855.7114                   23528857.1764
 -11855835.45748  -9216861.57346  21537965.8134                   21537964.6524
 -15681752.72746 -12207231.73343  24442745.6724                   24442747.9184
 -36892049.52048 -28735045.81046  20736084.5234                   20736080.6374
 11  8  2  1 54  0.0000000  0  9G17G10G04G12G27G25G05G09G02
 -61567636.99646 -47929443.39044  23731071.4844                   23731069.7384
 -28013801.71947 -21793768.80645  21054817.1954                   21054815.7194
 -44099730.30547 -34350080.21144  22348994.8524                   22348993.6644
 -19519707.69148 -15198718.55146  21125850.1884                   21125848.1214
 -28960287.23846 -22554486.49143  24522283.3524                   24522286.4694
   7310123.48447   5716683.24944  23498653.6414                   23498654.2504
 -12001491.45348  -9330359.70946  21510248.1414                   21510246.7854
 -15666344.06646 -12195225.10143  24445677.9454                   24445679.6524
 -36950337.57448 -28780465.05846  20724992.7894                   20724988.3914
 11  8  2  1 54 30.0000000  0  9G17G10G04G12G27G25G05G09G02
 -61574698.77046 -47934946.12144  23729726.7424                   23729725.9494
 -28060423.80147 -21830097.69846  21045945.3914                   21045943.8954
 -44087217.36347 -34340329.86744  22351375.7974                   22351375.0744
 -19626795.05547 -15282163.25546  21105472.1724                   21105470.1604
 -28963874.16446 -22557281.58743  24521601.3984                   24521603.5434
   7151775.81647   5593295.45244  23468521.4694                   23468521.5864
 -12146656.64548  -9443475.39146  21482624.3444                   21482622.8404
 -15650819.54746 -12183128.17943  24448632.9384                   24448634.2114
 -37008288.77348 -28825621.83446  20713964.6334                   20713960.8284
 11  8  2  1 55  0.0000000  0  9G17G10G04G12G27G25G05G09G02
 -61581505.09046 -47940249.77044  23728432.7894                   23728431.2304
 -28106341.60947 -21865877.80045  21037207.3054                   21037205.8754
 -44074547.46147 -34330457.23045  22353787.1174                   22353785.7774
 -19733281.98847 -15365140.08046  21085208.0234                   21085206.6954
 -28967422.51246 -22560046.75143  24520926.0474                   24520929.1804
   6993794.66047   5470193.26044  23438458.6484                   23438459.2034
 -12291332.89848  -9556210.10346  21455093.1724                   21455091.7814
 -15635186.74246 -12170946.90243  24451607.6414                   24451608.6134
 -37065908.66848 -28870520.45546  20702999.9384                   20702996.4694
 11  8  2  1 55 30.0000000  0  9G17G10G04G12G27G25G05G09G02
 -61588055.35246 -47945353.89044  23727185.8284                   23727184.6174
 -28151555.52347 -21901109.40646  21028603.6254                   21028601.9494
 -44061721.92647 -34320463.30244  22356227.5084                   22356226.4924
 -19839166.05147 -15447647.13846  21065059.3984                   21065057.3204
 -28970934.58646 -22562783.52043  24520258.5944                   24520260.5314
   6836183.03947   5347379.00844  23408465.0634                   23408466.7664
 -12435517.35948  -9668561.59446  21427655.8204                   21427654.7504
 -15619448.64546 -12158683.52943  24454601.6724                   24454603.2704
 -37123198.09448 -28915161.54546  20692098.2504                   20692094.3014
 11  8  2  1 56  0.0000000  0  9G17G10G04G12G27G25G05G09G02
 -61594346.91446 -47950256.42844  23725988.7034                   23725986.7344
 -28196063.74247 -21935791.12145  21020133.6174                   21020132.1214
 -44048740.07447 -34310347.60544  22358697.8204                   22358696.6564
 -19944443.26647 -15529681.34346  21045025.8054                   21045023.5514
 -28974410.42246 -22565492.09442  24519596.6094                   24519599.9064
   6678946.03947   5224856.74744  23378543.8134                   23378545.8954
 -12579205.40248  -9780526.25846  21400312.7194                   21400311.5314
 -15603606.03546 -12146338.72443  24457617.5164                   24457619.5984
 -37180155.53948 -28959543.97446  20681259.4064                   20681255.8984
 11  8  2  1 56 30.0000000  0  9G17G10G04G12G27G25G05G09G02
 -61600382.03146 -47954959.09143  23724839.6884                   23724838.8874
 -28239869.94947 -21969925.82245  21011797.6564                   21011796.2624
 -44035606.07047 -34300113.31244  22361197.5314                   22361196.4694
 -20049114.69547 -15611243.47946  21025107.5554                   21025105.1524
 -28977855.19546 -22568176.42943  24518941.3984                   24518943.6914
   6522083.79347   5102626.42044  23348694.8054                   23348695.7194
 -12722397.07048  -9892104.15046  21373064.4144                   21373062.8634
 -15587664.57446 -12133916.89343  24460650.5634                   24460652.1884
 -37236785.22348 -29003671.00046  20670483.2664                   20670479.1764
 11  8  2  1 57  0.0000000  0  8G17G10G04G12G25G05G09G02
 -61606161.64847 -47959462.71544  23723740.1334                   23723738.5354
 -28282976.77747 -22003515.54745  21003594.4844                   21003592.8324
 -44022322.73047 -34289762.68144  22363724.8134                   22363724.0474
 -20153180.10247 -15692333.39946  21005304.3674                   21005302.5004
   6365597.61747   4980689.16544  23318916.1484                   23318917.1054
 -12865091.16048 -10003294.30946  21345910.2584                   21345908.8324
 -15571628.91846 -12121421.69643  24463702.8204                   24463703.8554
 -37293089.55948 -29047544.49646  20659768.8674                   20659765.0514
 11  8  2  1 57 30.0000000  0  8G17G10G04G12G25G05G09G02
 -61611680.54747 -47963763.15643  23722690.2034                   23722688.4494
 -28325380.09047 -22036557.08745  20995525.5704                   20995524.2074
 -44008886.88747 -34279293.17444  22366282.2664                   22366281.1644
 -20256633.11747 -15772946.13546  20985617.7974                   20985615.9734
   6209494.87147   4859050.68044  23289210.3364                   23289211.8094
 -13007280.28148 -10114090.99646  21318852.6804                   21318851.3634
 -15555497.39846 -12108851.76743  24466772.3674                   24466774.3364
 -37349065.00448 -29091161.72346  20649117.2974                   20649113.2154
 11  8  2  1 58  0.0000000  0  8G17G10G04G12G25G05G09G02
 -61616928.41446 -47967852.47744  23721691.4454                   23721690.7934
 -28367070.60247 -22069043.19445  20987592.1024                   20987590.4654
 -43995290.04347 -34268698.24844  22368869.2664                   22368868.4734
 -20359461.55547 -15853072.17946  20966050.2114                   20966048.0944
   6053788.54747   4737721.12244  23259580.4384                   23259581.8244
 -13148951.67248 -10224484.24146  21291893.4224                   21291892.1804
 -15539262.60545 -12096201.41042  24469861.2814                   24469863.2234
 -37404702.22348 -29134515.39046  20638529.7504                   20638526.0084
 11  8  2  1 58 30.0000000  0  8G17G10G04G12G25G05G09G02
 -61621904.78146 -47971730.13644  23720744.0554                   23720743.0274
 -28408049.00047 -22100974.39145  20979794.7814                   20979792.5864
 -43981533.50447 -34257978.87844  22371486.9534                   22371486.3164
 -20461663.82447 -15932710.30246  20946602.1724                   20946599.9844
   5898481.25447   4616702.50444  23230026.8984                   23230027.8134
 -13290103.12948 -10334472.34446  21265033.3204                   21265031.5594
 -15522927.96946 -12083473.19243  24472970.0784                   24472971.9104
 -37460002.57448 -29177606.56746  20628006.4454                   20628002.7584
 11  8  2  1 59  0.0000000  0  8G17G10G04G12G25G05G09G02
 -61626607.12946 -47975394.31944  23719849.0634                   23719848.7584
 -28448314.33247 -22132349.97245  20972132.1254                   20972130.4064
 -43967616.68447 -34247134.65144  22374135.4144                   22374134.0274
 -20563236.35947 -16011857.73146  20927273.4694                   20927271.0984
   5743578.06347   4495998.74244  23200549.7734                   23200550.4144
 -13430729.71948 -10444051.46246  21238272.7814                   21238271.7664
 -15506494.25446 -12070667.84643  24476097.7504                   24476099.6054
 -37514965.06248 -29220434.47346  20617547.5634                   20617543.5864
 11  8  2  1 59 30.0000000  0  8G17G10G04G12G25G05G09G02
 -61631037.73446 -47978846.78043  23719006.0084                   23719005.7894
 -28487869.96547 -22163172.53345  20964605.0394                   20964603.0474
 -43953543.50447 -34236168.53944  22376813.1334                   22376812.1884
 -20664180.00047 -16090515.09746  20908064.2194                   20908062.5394
   5589079.10547   4375609.99644  23171149.4694                   23171151.0204
 -13570831.60948 -10553221.70246  21211612.4774                   21211611.0864
 -15489967.43446 -12057789.87343  24479242.8594                   24479244.1804
 -37569593.28148 -29263001.90046  20607152.1334                   20607148.1484
 11  8  2  2  0  0.0000000  0  8G17G10G04G12G25G05G09G02
 -61635197.52046 -47982088.23843  23718215.2424                   23718214.3524
 -28526718.49247 -22193444.11445  20957212.2664                   20957210.5044
 -43939316.82447 -34225082.82344  22379520.4304                   22379520.2114
 -20764494.78947 -16168682.45646  20888975.2114                   20888973.0084
   5434985.68447   4255537.23144  23141826.5164                   23141827.7034
 -13710407.78548 -10661982.32846  21185051.7584                   21185050.7384
 -15473351.73046 -12044842.68843  24482405.2894                   24482406.3634
 -37623889.53548 -29305310.66646  20596819.9454                   20596816.1724
 11  8  2  2  0 30.0000000  0  8G17G10G04G12G25G05G09G02
 -61639090.89546 -47985122.07643  23717473.3914                   23717473.0084
 -28564865.23847 -22223168.83945  20949953.2664                   20949951.3524
 -43924943.01247 -34213882.45944  22382256.0864                   22382254.7344
 -20864183.47747 -16246361.93646  20870004.9774                   20870002.9144
   5281295.81347   4135778.96744  23112580.1644                   23112581.2774
 -13849460.36348 -10770334.93746  21158591.2664                   21158589.8674
 -15456654.85946 -12031832.29443  24485583.1564                   24485584.2154
 -37677859.73048 -29347365.35146  20586549.6884                   20586545.8284
 11  8  2  2  1  0.0000000  0  8G17G10G04G12G25G05G09G02
 -61642718.20346 -47987948.63043  23716783.6254                   23716783.0514
 -28602311.87147 -22252348.02845  20942827.5474                   20942825.7814
 -43910423.94147 -34202568.94344  22385018.9614                   22385018.1294
 -20963245.62947 -16323553.20246  20851153.9694                   20851152.0274
   5128011.61347   4016336.75944  23083411.3594                   23083412.6024
 -13987987.60548 -10878278.19146  21132229.9774                   21132228.8954
 -15439880.36346 -12018761.40843  24488773.5864                   24488776.9844
 -37731505.66048 -29389167.35246  20576340.8284                   20576337.4884
 11  8  2  2  1 30.0000000  0  8G17G10G04G12G25G05G09G02
 -61646080.33646 -47990568.49143  23716143.7814                   23716143.4224
 -28639061.28547 -22280983.94745  20935834.2814                   20935832.6564
 -43895762.59847 -34191144.58544  22387809.2274                   22387807.7504
 -21061680.84047 -16400255.95346  20832422.3834                   20832420.2034
   4975134.35547   3897211.68644  23054319.8134                   23054320.8714
 -14125988.13748 -10985811.03246  21105969.6334                   21105968.4964
 -15423032.71946 -12005633.41543  24491980.1644                   24491982.2384
 -37784829.83648 -29430718.65646  20566193.7894                   20566190.1174
 11  8  2  2  2  0.0000000  0  8G17G10G04G12G25G05G09G02
 -61649180.09046 -47992983.90644  23715555.0704                   23715553.6054
 -28675117.01247 -22309079.29645  20928972.7814                   20928971.1994
 -43880963.07047 -34179612.49144  22390624.8594                   22390624.2274
 -21159490.13747 -16476470.97346  20813809.9614                   20813807.8634
   4822663.98047   3778403.66744  23025305.2504                   23025306.6254
 -14263462.52048 -11092933.88446  21079809.2034                   21079807.4144
 -15406118.14546 -11992453.43643  24495199.2194                   24495201.1884
 -37837835.93748 -29472022.09346  20556107.0554                   20556103.4304
 11  8  2  2  2 30.0000000  0  8G17G10G04G12G25G05G09G02
 -61652016.21946 -47995193.89144  23715014.5474                   23715013.5824
 -28710479.85247 -22336634.75045  20922243.7894                   20922241.7774
 -43866026.30547 -34167973.46844  22393467.5004                   22393466.2154
 -21256671.57848 -16552196.76746  20795316.7814                   20795315.0554
   4670603.85947   3659915.30044  22996369.1024                   22996369.7734
 -14400407.87948 -11199644.50946  21053749.2034                   21053747.5904
 -15389138.63746 -11979222.69843  24498429.8594                   24498432.7194
 -37890524.69548 -29513078.26346  20546080.8524                   20546077.0704
 11  8  2  2  3  0.0000000  0  8G17G10G04G12G25G05G09G02
 -61654588.93446 -47997198.62544  23714524.9304                   23714524.1214
 -28745151.28947 -22363651.43345  20915646.1564                   20915644.4574
 -43850954.00447 -34156228.84344  22396335.0864                   22396334.7464
 -21353224.23447 -16627432.58346  20776943.8524                   20776941.5314
   4518956.21947   3541748.35744  22967511.2114                   22967512.5314
 -14536822.41048 -11305941.50346  21027790.3674                   21027788.7424
 -15372097.71146 -11965944.20443  24501673.4304                   24501675.7854
 -37942897.57848 -29553888.27246  20536114.7894                   20536110.7274
 11  8  2  2  3 30.0000000  0  8G17G10G04G12G25G05G09G02
 -61656900.10246 -47998999.49344  23714084.7974                   23714084.2584
 -28779134.33647 -22390131.73745  20909179.1334                   20909177.1994
 -43835749.50447 -34144381.19244  22399228.6884                   22399228.0784
 -21449148.55547 -16702178.78946  20758689.6724                   20758687.2854
   4367721.85947   3423903.45544  22938732.3204                   22938733.6294
 -14672705.33648 -11411824.27446  21001932.5314                   21001931.3364
 -15355000.36746 -11952621.75143  24504925.7424                   24504928.2274
 -37994957.63748 -29594454.53246  20526208.0634                   20526204.0904
 11  8  2  2  4  0.0000000  0  8G17G10G04G12G25G05G09G02
 -61658949.66046 -48000596.62644  23713695.1644                   23713694.3754
 -28812430.82047 -22416077.04045  20902843.4144                   20902841.6054
 -43820415.00847 -34132432.27044  22402147.2034                   22402145.7464
 -21544443.78548 -16776434.79546  20740555.8594                   20740553.2424
   4216902.79347   3306382.14844  22910032.5474                   22910033.2154
 -14808055.06248 -11517291.54446  20976176.5864                   20976175.1094
 -15337850.19946 -11939258.06643  24508190.4304                   24508192.5904
 -38046706.53548 -29634778.33746  20516360.4534                   20516356.6094
 11  8  2  2  4 30.0000000  0  8G17G10G04G12G25G05G09G02
 -60085320.50446 -46774392.06744  24013146.9144                   24013146.0944
 -27269623.91847 -21213889.82945  21196429.1724                   21196427.8204
 -42229535.05147 -32892785.55244  22704881.4454                   22704880.1524
 -20063688.27348 -15622599.32346  21022333.9304                   21022331.9064
   5641923.78547   4416788.15644  23181204.9224                   23181205.7584
 -13367447.64548 -10394740.27946  21250314.9774                   21250313.4534
 -13745233.95746 -10698258.56343  24811255.7194                   24811257.8054
 -36522726.77348 -28447261.61946  20806364.0704                   20806360.1844
 11  8  2  2  5  0.0000000  0  8G17G10G04G12G25G05G09G02
 -60086858.11346 -46775590.21944  24012854.5314                   24012853.7814
 -27301562.85247 -21238777.31045  21190351.6414                   21190349.6524
 -42213956.05547 -32880646.08444  22707846.3054                   22707844.8404
 -20157732.69548 -15695880.66346  21004438.0314                   21004435.6254
   5491931.68447   4299911.23044  23152662.7034                   23152663.3444
 -13501735.84848 -10499380.39646  21224760.4614                   21224759.1684
 -13727999.11346 -10684828.87843  24814535.2894                   24814537.7894
 -36573868.64548 -28487112.42046  20796632.1564                   20796628.4144
 11  8  2  2  5 30.0000000  0  8G17G10G04G12G25G05G09G02
 -60088134.90646 -46776585.12044  24012612.0394                   24012610.8094
 -27332820.50847 -21263133.90245  21184403.6094                   21184401.7774
 -42198252.42647 -32868409.48844  22710833.9924                   22710833.0124
 -20251145.34048 -15768669.73546  20986662.2584                   20986659.8714
   5342361.49647   4183363.06944  23124199.9384                   23124201.0554
 -13635485.64148 -10603600.98946  21199308.6174                   21199307.2074
 -13710721.84046 -10671366.16943  24817822.9694                   24817825.1024
 -36624704.23448 -28526724.55546  20786958.4534                   20786954.5824
 11  8  2  2  6  0.0000000  0  8G17G10G04G12G25G05G09G02
 -60089153.89846 -46777379.20243  24012417.4924                   24012416.5514
 -27363401.24647 -21286963.03245  21178584.4144                   21178582.4924
 -42182428.78147 -32856079.38644  22713845.6724                   22713844.2504
 -20343928.20348 -15840968.04846  20969006.1334                   20969003.6134
   5193212.73047   4067143.28144  23095818.5394                   23095818.6954
 -13768697.17247 -10707402.14146  21173959.5554                   21173957.7424
 -13693408.21146 -10657875.17143  24821117.8054                   24821119.6054
 -36675237.66048 -28566101.23046  20777342.3594                   20777338.2154
 11  8  2  2  6 30.0000000  0  8G17G10G04G12G25G05G09G02
 -60089913.26646 -46777970.89144  24012272.7274                   24012272.0984
 -27393304.87547 -21310264.55545  21172893.6884                   21172892.0664
 -42166484.79347 -32843655.49944  22716879.4694                   22716878.2234
 -20436078.08648 -15912773.15546  20951470.4064                   20951468.2584
   5044489.70747   3951255.24345  23067517.2974                   23067518.3054
 -13901367.07048 -10810781.25246  21148713.1414                   21148711.8094
 -13676059.78946 -10644357.01543  24824419.4304                   24824421.1214
 -36725468.55548 -28605242.17546  20767783.6954                   20767779.7854
 11  8  2  2  7  0.0000000  0  8G17G10G04G12G25G05G09G02
 -60090416.58646 -46778363.14544  24012176.8834                   24012175.8134
 -27422536.55147 -21333042.46845  21167331.2194                   21167329.3284
 -42150425.99647 -32831142.16144  22719935.4454                   22719934.2154
 -20527597.93048 -15984087.29746  20934055.1254                   20934052.6564
   4896191.03547   3835697.86544  23039297.0634                   23039297.7664
 -14033496.94547 -10913739.55846  21123569.5944                   21123567.9654
 -13658683.56246 -10630817.20243  24827726.2814                   24827727.7934
 -36775402.09848 -28644151.42146  20758281.2734                   20758277.7114
 11  8  2  2  7 30.0000000  0  8G17G10G04G12G25G05G09G02
 -60090662.27346 -46778554.59143  24012130.6414                   24012129.6024
 -27451096.33247 -21355296.84045  21161896.4454                   21161894.5744
 -42134251.94147 -32818539.04944  22723012.7734                   22723011.6294
 -20618484.62948 -16054908.08946  20916759.7194                   20916757.4144
   4748320.96547   3720474.45544  23011157.9924                   23011158.6604
 -14165083.00448 -11016274.10946  21098529.7894                   21098528.4804
 -13641280.71146 -10617256.63342  24831037.5004                   24831039.9574
 -36825037.74248 -28682828.53746  20748836.3364                   20748832.1914
 11  8  2  2  8  0.0000000  0  8G17G10G04G12G25G05G09G02
 -60090651.79346 -46778546.46244  24012132.3834                   24012131.7934
 -27478987.40247 -21377030.13145  21156588.9694                   21156587.1884
 -42117965.80547 -32805848.54844  22726112.5234                   22726111.3054
 -20708738.69947 -16125235.93246  20899584.5634                   20899582.8204
   4600880.23447   3605585.57845  22983101.1334                   22983102.0514
 -14296125.05548 -11118384.76846  21073593.1174                   21073591.6724
 -13623856.14846 -10603679.14142  24834352.5944                   24834354.9454
 -36874378.23448 -28721275.66246  20739447.1884                   20739442.9734
 11  8  2  2  8 30.0000000  0  8G17G10G04G12G25G05G09G02
 -60090383.02746 -46778337.02744  24012184.0864                   24012182.8754
 -27506209.54747 -21398242.18345  21151408.3054                   21151406.8204
 -42101567.07047 -32793070.29444  22729233.0164                   22729232.1884
 -20798357.52748 -16195068.76446  20882530.8134                   20882528.7034
   4453873.33247   3491034.78145  22955126.3914                   22955127.6484
 -14426619.02048 -11220068.33546  21048760.8134                   21048759.1094
 -13606411.12146 -10590085.86543  24837672.9534                   24837675.4694
 -36923423.32048 -28759492.60246  20730113.9614                   20730110.3204
 11  8  2  2  9  0.0000000  0  8G17G10G04G12G25G05G09G02
 -60089856.75446 -46777926.92643  24012284.5234                   24012282.8554
 -27532764.89847 -21418934.65745  21146355.0314                   21146353.5004
 -42085057.78547 -32780205.96744  22732373.9614                   22732373.6644
 -20887340.33248 -16264406.00946  20865598.2274                   20865595.9304
   4307302.11747   3376823.44845  22927234.7734                   22927236.0044
 -14556563.47748 -11321323.73146  21024033.3204                   21024031.3204
 -13588949.25046 -10576479.24642  24840996.1484                   24840998.2704
 -36972174.52348 -28797480.54246  20720836.9304                   20720832.8794
 11  8  2  2  9 30.0000000  0  8G17G10G04G12G25G05G09G02
 -60089072.31246 -46777315.66143  24012432.8914                   24012432.2664
 -27558654.60247 -21439108.43645  21141428.8284                   21141427.1054
 -42068439.25447 -32767256.45544  22735536.8834                   22735535.9654
 -20975686.05148 -16333246.81046  20848786.1174                   20848784.5744
   4161169.62547   3262953.97045  22899426.6954                   22899427.4924
 -14685955.97348 -11422149.01146  20999411.0164                   20999409.1094
 -13571472.93445 -10562861.43742  24844322.5394                   24844323.4804
 -37020632.62548 -28835240.08746  20711615.8134                   20711611.5514
 11  8  2  2 10  0.0000000  0  8G17G10G04G12G25G05G09G02
 -60088030.60246 -46776503.98043  24012631.1024                   24012630.2774
 -27583881.39847 -21458765.66345  21136627.8444                   21136626.5354
 -42051713.50847 -32754223.38944  22738720.1094                   22738718.9734
 -21063394.32048 -16401590.92446  20832096.0164                   20832093.8204
   4015477.17247   3149427.39445  22871702.2114                   22871703.3404
 -14814795.47348 -11522543.39946  20974893.3054                   20974892.0434
 -13553986.39146 -10549235.69942  24847649.7114                   24847650.8324
 -37068800.05548 -28872773.14046  20702449.7584                   20702445.6884
 11  8  2  2 10 30.0000000  0  7G17G10G04G12G25G05G02
 -60086734.80146 -46775494.25343  24012877.6724                   24012876.7114
 -27608450.03547 -21477910.05045  21131952.7814                   21131951.0084
 -42034885.43447 -32741110.64944  22741922.0634                   22741921.3094
 -21150467.35248 -16469440.02546  20815526.5314                   20815524.5314
   3870224.18447   3036243.26844  22844061.4924                   22844062.6484
 -14943083.05948 -11622507.71846  20950481.2274                   20950479.5234
 -37116681.25848 -28910083.15246  20693337.8364                   20693334.1374
 11  8  2  2 11  0.0000000  0  7G17G10G04G12G25G05G02
 -60085181.72746 -46774284.01043  24013173.5084                   24013171.4184
 -27632359.08647 -21496540.46945  21127402.8204                   21127401.4184
 -42017953.15247 -32727916.68544  22745144.4614                   22745143.9414
 -21236901.57048 -16536791.36046  20799079.0234                   20799076.6214
   3725416.14147   2923405.84845  22816505.4304                   22816506.7774
 -15070813.66448 -11722038.03246  20926174.7034                   20926172.8014
 -37164274.20748 -28947168.54646  20684281.5784                   20684277.6724
 11  8  2  2 11 30.0000000  0  7G17G10G04G12G25G05G02
 -60083360.25446 -46772864.68543  24013519.5704                   24013518.7234
 -27655598.95747 -21514649.46745  21122980.9774                   21122979.1214
 -42000906.69947 -32714633.73844  22748387.7344                   22748387.9104
 -21322684.61348 -16603635.28846  20782754.7034                   20782752.6214
   3581066.82447   2810925.85045  22789036.8754                   22789037.8204
 -15197974.04348 -11821124.00646  20901976.7424                   20901975.1884
 -37211569.00448 -28984021.62446  20675281.6724                   20675277.6914
 11  8  2  2 12  0.0000000  0  7G17G10G04G12G25G05G02
 -60081268.18446 -46771234.56843  24013917.6884                   24013917.2344
 -27678169.39547 -21532236.80845  21118685.7274                   21118684.0004
 -41983745.55147 -32701261.39244  22751653.7034                   22751653.3014
 -21407813.02048 -16669969.08746  20766555.4304                   20766553.1294
   3437180.78147   2698806.88345  22761656.2734                   22761657.0314
 -15324560.41848 -11919762.70846  20877887.7974                   20877886.7154
 -37258564.58648 -29020641.54546  20666338.6644                   20666334.5474
 11  8  2  2 12 30.0000000  0  7G17G10G04G12G25G05G02
 -60078903.55546 -46769392.03243  24014367.6564                   24014367.5234
 -27700070.35547 -21549302.47245  21114518.0554                   21114516.7894
 -41966469.03947 -32687799.23144  22754941.3524                   22754941.1524
 -21492284.05148 -16735790.67546  20750481.1564                   20750478.9454
   3293762.38347   2587052.28045  22734364.5234                   22734365.7074
 -15450569.03147 -12017951.20646  20853909.4224                   20853907.8674
 -37305260.28548 -29057027.80546  20657453.2034                   20657449.0664
 11  8  2  2 13  0.0000000  0  7G17G10G04G12G25G05G02
 -60076268.43746 -46767338.65243  24014870.1094                   24014868.6684
 -27721305.84047 -21565849.59245  21110477.1024                   21110475.2274
 -41949080.84847 -32674249.99744  22758250.7034                   22758249.8134
 -21576099.19148 -16801101.16146  20734531.5004                   20734529.6374
   3150811.98847   2475662.35445  22707161.6174                   22707163.0004
 -15575999.71148 -12115689.36946  20830041.0084                   20830039.0984
 -37351659.56648 -29093183.08846  20648623.0474                   20648619.2234
 11  8  2  2 13 30.0000000  0  7G17G10G04G12G25G05G02
 -60073367.66846 -46765078.38943  24015422.0394                   24015421.5744
 -27741882.40247 -21581883.26745  21106561.4224                   21106559.7624
 -41931586.98847 -32660618.42444  22761579.5634                   22761578.6844
 -21659262.48848 -16865903.73246  20718706.3914                   20718704.2344
   3008327.16847   2364635.24845  22680047.7974                   22680048.7384
 -15700855.64848 -12212979.67546  20806281.6094                   20806279.8404
 -37397768.58248 -29129112.17546  20639849.1024                   20639845.1174
 11  8  2  2 14  0.0000000  0  7G17G10G04G12G25G05G02
 -60070197.66446 -46762608.25043  24016024.6024                   24016024.5314
 -27761798.19947 -21597402.08345  21102771.7274                   21102770.0664
 -41913985.30947 -32646902.84644  22764928.4844                   22764927.5594
 -21741769.44548 -16930194.86246  20703005.8134                   20703003.7384
   2866313.78147   2253975.47845  22653023.8754                   22653025.1564
 -15825131.47348 -12309817.95246  20782632.8134                   20782631.0124
 -37443585.18048 -29164813.41546  20631130.4774                   20631126.2734
 11  8  2  2 14 30.0000000  0  7G17G10G04G12G25G05G02
 -60066765.24647 -46759933.60944  24016677.9224                   24016677.4064
 -27781061.73047 -21612412.62645  21099105.7734                   21099104.3834
 -41896283.89547 -32633109.53944  22768297.3674                   22768295.9964
 -21823626.30148 -16993979.42146  20687428.8834                   20687426.3794
   2724767.71147   2143679.86245  22626088.3134                   22626089.6564
 -15948831.91448 -12406207.87446  20759093.5704                   20759091.5554
 -37489116.69948 -29200292.50946  20622465.9694                   20622462.0314
 11  8  2  2 15  0.0000000  0  7G17G10G04G12G25G05G02
 -60063069.25047 -46757053.63544  24017381.3594                   24017381.0514
 -27799673.63347 -21626915.39045  21095564.0394                   21095562.1954
 -41878482.75847 -32619238.50844  22771684.7194                   22771683.3984
 -21904830.35948 -17057255.29846  20671976.5314                   20671973.9844
   2583692.58247   2033751.19945  22599242.6174                   22599243.5044
 -16071953.91848 -12502147.06346  20735663.8444                   20735662.3484
 -37534363.29348 -29235549.58046  20613856.1484                   20613851.7464
 11  8  2  2 15 30.0000000  0  7G17G10G04G12G25G05G02
 -60059109.49647 -46753968.16144  24018135.4064                   24018134.8594
 -27817635.84447 -21640911.91845  21092145.8594                   21092144.4104
 -41860583.00047 -32605290.67744  22775090.6174                   22775090.5354
 -21985380.64848 -17120021.75646  20656648.2274                   20656646.0084
   2443090.88747   1924191.48545  22572487.3134                   22572488.1564
 -16194495.55948 -12597634.02046  20712345.1884                   20712343.3524
 -37579326.17648 -29270585.57846  20605299.8284                   20605295.6334
 11  8  2  2 16  0.0000000  0  7G17G10G04G12G25G05G02
 -60054883.16447 -46750674.89644  24018939.0234                   24018938.6604
 -27834947.39547 -21654401.43045  21088851.7344                   21088849.7774
 -41842583.21546 -32591264.89444  22778516.3594                   22778515.2704
 -22065274.69948 -17182276.86346  20641444.6564                   20641442.8914
   2302967.77747   1815004.65545  22545822.6174                   22545823.2424
 -16316452.32848 -12692665.24146  20689137.1644                   20689135.7114
 -37624004.03548 -29305399.49546  20596797.5944                   20596794.0554
 11  8  2  2 16 30.0000000  0  7G17G10G04G12G25G05G02
 -58474976.22347 -45519578.61144  24319585.6024                   24319585.4064
 -26276195.90647 -20439789.89245  21385472.5944                   21385470.6024
 -40249071.29347 -31349567.27144  23081751.1954                   23081750.1024
 -20569094.78148 -16016422.38146  20926158.3204                   20926156.1294
   3738744.28147   2933791.57445  22819041.5784                   22819043.0394
 -14862404.52348 -11559640.94746  20965833.3834                   20965831.8204
 -36092982.23848 -28112395.50746  20888141.7114                   20888137.6134
 11  8  2  2 17  0.0000000  0  7G17G10G04G12G25G05G02
 -58470233.41447 -45515882.92244  24320487.9694                   24320487.7584
 -26292228.92247 -20452283.14145  21382421.4304                   21382419.6524
 -40230891.91847 -31335401.52044  23085210.6254                   23085209.3244
 -20647689.93048 -16077665.33946  20911202.2974                   20911200.0004
   3599568.92247   2825343.28345  22792557.5944                   22792558.4184
 -14983203.03948 -11653769.61946  20942845.8834                   20942844.5824
 -36137109.68748 -28146780.52146  20879744.1804                   20879740.4654
 11  8  2  2 17 30.0000000  0  7G17G10G04G12G25G05G02
 -58465230.53546 -45511984.63644  24321439.9774                   24321439.9884
 -26307623.38747 -20464278.83845  21379492.0004                   21379490.2584
 -40212622.62947 -31321165.71844  23088687.6884                   23088686.2304
 -20725632.51248 -16138399.82246  20896370.0554                   20896367.8594
   3460873.05147   2717268.61445  22766164.5004                   22766165.1024
 -15103417.57048 -11747443.25246  20919970.0004                   20919968.3134
 -36180961.73047 -28180950.95046  20871399.6174                   20871395.6054
 11  8  2  2 18  0.0000000  0  7G17G10G04G12G25G05G02
 -58459969.30946 -45507884.99143  24322440.8364                   24322440.5704
 -26322383.14147 -20475779.93145  21376683.2274                   21376681.5514
 -40194266.38747 -31306862.13844  23092180.4304                   23092179.6954
 -20802923.52048 -16198626.58246  20881662.1254                   20881659.8444
   3322657.28147   2609568.07345  22739863.2114                   22739864.2584
 -15223048.32048 -11840661.99346  20897205.0394                   20897203.1174
 -36224541.37948 -28214909.10446  20863106.5634                   20863102.7114
 11  8  2  2 18 30.0000000  0  7G17G10G04G12G25G05G02
 -58454450.41046 -45503584.56043  24323491.3674                   24323491.1134
 -26336510.93747 -20486788.61345  21373995.2274                   21373993.1644
 -40175824.96546 -31292492.24344  23095690.1484                   23095688.9144
 -20879563.12548 -16258345.75046  20867078.0314                   20867075.8914
   3184923.39147   2502243.00345  22713653.0784                   22713654.1644
 -15342094.14848 -11933424.94746  20874551.3834                   20874549.6564
 -36267850.37948 -28248656.38446  20854865.2664                   20854861.3714
 11  8  2  2 19  0.0000000  0  7G17G10G04G12G25G05G02
 -58448679.82446 -45499088.06643  24324589.9844                   24324588.7894
 -26350014.44147 -20497310.82745  21371425.3594                   21371423.3094
 -40157305.65246 -31278061.59944  23099213.5394                   23099212.7304
 -20955556.47748 -16317561.34446  20852617.0634                   20852614.8524
   3047667.94147   2395290.75145  22687534.2814                   22687535.4144
 -15460559.11748 -12025735.28146  20852008.2734                   20852006.4614
 -36310895.71948 -28282198.19446  20846674.2034                   20846670.2344
 11  8  2  2 19 30.0000000  0  7G17G10G04G12G25G05G02
 -58442654.39146 -45494392.95243  24325735.8984                   24325735.9494
 -26362892.85547 -20507345.95545  21368974.3524                   21368972.4104
 -40138706.62146 -31263568.82744  23102753.0634                   23102752.2734
 -21030900.35948 -16376270.86346  20838279.6174                   20838277.6174
   2910895.99647   2288715.23545  22661506.8444                   22661508.0044
 -15578438.89148 -12117589.61846  20829576.4844                   20829574.7234
 -36353675.73848 -28315533.27446  20838533.5394                   20838529.4024
 11  8  2  2 20  0.0000000  0  8G17G10G04G12G29G25G05G02
 -58436378.05146 -45489502.32442  24326929.5314                   24326929.8794
 -26375151.82847 -20516898.40245  21366641.4534                   21366639.6334
 -40120032.62146 -31249017.66344  23106306.9694                   23106305.9924
 -21105597.54748 -16434476.45346  20824065.2274                   20824062.8014
  21842999.57857  17036935.70253  24695560.0234                   24695558.7544
   2774606.50047   2182515.66145  22635571.7894                   22635573.3594
 -15695735.22748 -12208989.33146  20807255.6414                   20807254.0044
 -36396195.12548 -28348665.26546  20830442.2664                   20830438.1454
 11  8  2  2 20 30.0000000  0  8G17G10G04G12G29G25G05G02
 -58429863.28146 -45484425.96942  24328170.1484                   24328169.4494
 -26386805.82047 -20525979.43245  21364424.2114                   21364422.2704
 -40101296.94946 -31234418.41644  23109872.0084                   23109871.1094
 -21179659.20347 -16492186.82546  20809971.7734                   20809969.2894
  21699157.07446  16924850.66343  24668187.0704                   24668185.8594
   2638789.60247   2076684.34845  22609727.0394                   22609728.0314
 -15812458.80148 -12299942.73246  20785043.8594                   20785042.0084
 -36438467.03547 -28381604.40946  20822397.9774                   20822394.1724
 11  8  2  2 21  0.0000000  0  8G17G10G04G12G29G25G05G02
 -58423113.39846 -45479166.33242  24329454.6094                   24329453.0904
 -26397860.47747 -20534593.45345  21362320.7114                   21362318.1844
 -40082504.66046 -31219775.06144  23113447.7194                   23113447.2664
 -21253089.46147 -16549405.20646  20795998.2894                   20795996.2384
  21555295.46946  16812750.77843  24640811.7734                   24640811.2704
   2503443.93447   1971220.22445  22583971.6954                   22583972.7544
 -15928611.58648 -12390451.38246  20762940.7734                   20762938.9454
 -36480496.46147 -28414354.60246  20814400.0474                   20814396.0314
 11  8  2  2 21 30.0000000  0  8G17G10G04G12G29G25G05G02
 -58416133.47746 -45473727.39743  24330783.1414                   24330781.9454
 -26408322.76247 -20542745.88245  21360329.7034                   21360327.8054
 -40063661.62546 -31205092.16844  23117033.8914                   23117032.5004
 -21325892.75047 -16606135.03246  20782144.2814                   20782141.8014
  21411410.25846  16700632.36043  24613430.9924                   24613429.3094
   2368566.73847   1866121.15045  22558305.4844                   22558306.1604
 -16044197.10548 -12480517.98346  20740945.5394                   20740943.8794
 -36522289.69147 -28446920.75446  20806447.0394                   20806443.0124
 11  8  2  2 22  0.0000000  0  8G17G10G04G12G29G25G05G02
 -58408916.26246 -45468103.56143  24332156.7194                   24332155.8554
 -26418187.27047 -20550432.51445  21358452.4384                   21358450.5704
 -40044761.38746 -31190364.73844  23120629.7734                   23120629.1604
 -21398060.25448 -16662369.43346  20768411.3444                   20768408.8914
  21267509.48445  16588501.90242  24586046.5004                   24586046.1334
   2234168.19547   1761395.02745  22532729.6954                   22532731.0434
 -16159205.88348 -12570135.19446  20719059.7274                   20719058.0434
 -36563840.05147 -28479297.65646  20798540.2814                   20798536.1994
 11  8  2  2 22 30.0000000  0  8G17G10G04G12G29G25G05G02
 -58401465.38346 -45462297.67943  24333574.9614                   24333573.5314
 -26427460.09047 -20557658.10045  21356687.7734                   21356686.0164
 -40025809.02046 -31175596.66544  23124236.7504                   23124235.6024
 -21469595.83248 -16718111.44146  20754798.3754                   20754796.1764
  21123589.89546  16476356.82443  24558660.2344                   24558658.7734
   2100246.58247   1657040.54745  22507245.5704                   22507246.4414
 -16273640.28948 -12659304.83846  20697283.8674                   20697282.0594
 -36605152.50448 -28511489.17646  20790679.0314                   20790674.5864
 11  8  2  2 23  0.0000000  0  8G17G10G04G12G29G25G05G02
 -58393782.68746 -45456311.13843  24335036.1254                   24335035.7344
 -26436144.68047 -20564425.31945  21355035.0634                   21355033.3714
 -40006807.39846 -31160790.22344  23127852.6174                   23127851.6644
 -21540500.53147 -16773361.84046  20741306.0554                   20741303.6024
  20979650.25445  16364196.07042  24531268.7034                   24531267.9144
   1966802.62947   1553058.28045  22481852.5084                   22481852.8204
 -16387500.55548 -12748027.09746  20675616.7664                   20675615.1684
 -36646229.58647 -28543497.26646  20782862.2894                   20782858.2734
 11  8  2  2 23 30.0000000  0  8G17G10G04G12G29G25G05G02
 -58385864.43046 -45450141.08543  24336542.5474                   24336542.0944
 -26444239.35547 -20570732.86845  21353494.6954                   21353493.1524
 -39987753.52346 -31145943.03644  23131478.6564                   23131477.6884
 -21610770.09047 -16828117.33346  20727934.0164                   20727931.8284
  20835695.02345  16252023.13342  24503876.0944                   24503874.6134
   1833842.68847   1449453.16845  22456550.7814                   22456551.7384
 -16500781.13748 -12836297.64246  20654060.2274                   20654058.8834
 -36687068.64847 -28575319.91046  20775090.4064                   20775086.6764
 11  8  2  2 24  0.0000000  0  8G17G10G04G12G29G25G05G02
 -58377715.87146 -45443791.57643  24338094.2894                   24338093.1054
 -26451751.69547 -20576586.63545  21352065.1644                   21352063.4774
 -39968653.72246 -31131060.03344  23135113.2424                   23135112.4734
 -21680409.39147 -16882381.71146  20714682.0084                   20714680.1414
  20691719.36746  16139834.39843  24476478.0474                   24476477.0204
   1701363.71547   1346222.79945  22431340.7034                   22431341.7384
 -16613485.60548 -12924119.28046  20632613.3754                   20632611.7304
 -36727676.09047 -28606962.06946  20767363.4534                   20767359.1884
 11  8  2  2 24 30.0000000  0  8G17G10G04G12G29G25G05G02
 -58369334.54346 -45437260.66043  24339688.8524                   24339688.1644
 -26458681.51647 -20581986.49645  21350746.5554                   21350744.8674
 -39949506.59846 -31116140.24044  23138756.6094                   23138755.8914
 -21749415.31647 -16936152.54946  20701550.6484                   20701548.3444
  20547726.49246  16027632.10943  24449077.3524                   24449076.6454
   1569370.52047   1243370.97945  22406223.0554                   22406224.0554
 -16725610.11348 -13011488.99546  20611276.6334                   20611274.8714
 -36768050.55147 -28638422.66746  20759680.2974                   20759676.1294
 11  8  2  2 25  0.0000000  0  8G17G10G04G12G29G25G05G02
 -58360722.81647 -45430550.18444  24341327.6484                   24341326.6884
 -26465033.30947 -20586935.94445  21349537.6414                   21349536.3204
 -39930315.24646 -31101185.97543  23142408.1334                   23142407.9774
 -21817790.15248 -16989431.63846  20688539.3834                   20688537.0354
  20403714.52046  15915415.04843  24421672.8444                   24421671.4414
   1437863.07847   1140897.66045  22381197.9144                   22381198.9534
 -16837155.54748 -13098407.48846  20590050.5394                   20590048.5744
 -36808195.41447 -28669704.38346  20752040.9774                   20752037.0394
 11  8  2  2 25 30.0000000  0  8G17G10G04G12G29G25G05G02
 -58351876.43746 -45423656.90344  24343011.3594                   24343010.1524
 -26470804.65247 -20591433.13145  21348439.2344                   21348437.9924
 -39911076.46146 -31086194.71643  23146070.1884                   23146068.6134
 -21885529.06647 -17042215.19746  20675648.8914                   20675646.8164
  20259688.63746  15803187.03843  24394265.7974                   24394264.2624
   1306848.19547   1038808.15945  22356267.2194                   22356267.9614
 -16948115.75448 -13184869.96346  20568935.4924                   20568933.2894
 -36848107.20348 -28700804.47746  20744445.9064                   20744441.8014
 11  8  2  2 26  0.0000000  0  8G17G10G04G12G29G25G05G02
 -58342799.07046 -45416583.68543  24344737.9144                   24344737.2624
 -26476001.21547 -20595482.38845  21347451.0474                   21347448.7854
 -39891794.77346 -31071170.04443  23149738.3984                   23149737.6724
 -21952635.06648 -17094505.57846  20662879.3364                   20662876.9964
  20115645.83646  15690945.96543  24366854.3754                   24366854.5864
   1176324.51247    937101.41845  22331428.6644                   22331429.9024
 -17058493.03148 -13270878.19546  20547931.3594                   20547929.4734
 -36887790.71948 -28731726.67746  20736894.2424                   20736890.6524
 11  8  2  2 26 30.0000000  0  8G17G10G04G12G29G25G05G02
 -58333497.34446 -45409335.59343  24346507.5004                   24346508.1094
 -26480631.87547 -20599090.70245  21346569.2814                   21346567.9884
 -39872477.78146 -31056117.88543  23153414.4224                   23153413.8164
 -22019114.89148 -17146308.02346  20650228.3754                   20650226.3284
  19971580.01646  15578686.86743  24339440.4534                   24339440.0434
   1046287.82847    835774.13545  22306683.9774                   22306684.4384
 -17168292.54748 -13356436.23446  20527037.0864                   20527035.4414
 -36927253.25048 -28762476.69546  20729385.0474                   20729381.0904
 11  8  2  2 27  0.0000000  0  8G17G10G04G12G29G25G05G02
 -58323965.75046 -45401908.42543  24348321.5084                   24348321.3054
 -26484693.20347 -20602255.37945  21345796.6644                   21345795.3524
 -39853120.91046 -31041034.60443  23157097.9384                   23157097.1804
 -22084961.99648 -17197617.45146  20637697.8524                   20637695.9884
  19827497.60246  15466414.87744  24312022.1174                   24312021.7854
    916746.04347    734832.49245  22282033.5474                   22282033.9534
 -17277506.89848 -13441538.28746  20506254.2034                   20506252.4104
 -36966490.03148 -28793050.79946  20721918.2114                   20721914.2934
 11  8  2  2 27 30.0000000  0  8G17G10G04G12G29G25G05G02
 -58314204.47346 -45394302.24043  24350179.8284                   24350179.0084
 -26488187.37547 -20604978.09445  21345131.9064                   21345130.1844
 -39833724.85946 -31025920.81443  23160789.1174                   23160788.6174
 -22150176.48847 -17248433.91446  20625288.1174                   20625285.8794
  19683399.33646  15354130.51243  24284601.0394                   24284600.8834
    787701.37547    634278.23245  22257476.4924                   22257477.4884
 -17386135.03148 -13526183.56246  20485583.0704                   20485581.2934
 -37005502.44147 -28823450.06446  20714494.2504                   20714490.6884
 11  8  2  2 28  0.0000000  0  8G17G10G04G12G29G25G05G02
 -58304215.82046 -45386518.94343  24352080.0704                   24352079.8554
 -26491119.34847 -20607262.75745  21344573.7424                   21344572.2974
 -39814293.13746 -31010779.19043  23164487.1484                   23164486.3794
 -22214760.73847 -17298759.31346  20612998.4384                   20612996.1764
  19539283.13746  15241832.16044  24257176.4224                   24257176.9454
    659153.59047    534111.13045  22233014.4614                   22233015.5394
 -17494178.12548 -13610372.95646  20465022.8364                   20465021.1374
 -37044293.93048 -28853677.19746  20707112.5474                   20707108.8954
 11  8  2  2 28 30.0000000  0  8G17G10G04G12G29G25G05G02
 -56718581.93746 -44150960.12843  24653815.8284                   24653816.1414
 -24918072.85247 -19381512.24745  21643914.3524                   21643913.1414
 -38219408.87946 -29768012.32243  23467983.4614                   23467982.3524
 -20703293.78147 -16120992.83146  20900620.6024                   20900618.2274
  20970573.06647  16357123.04644  24529542.4064                   24529541.5704
   2106527.79347   1661935.21945  22508440.3284                   22508441.4494
 -16026212.21548 -12466503.38646  20744367.7114                   20744365.7894
 -35507445.69947 -27656133.10346  20999565.0784                   20999561.1484
 11  8  2  2 29  0.0000000  0  7G10G04G12G29G25G05G02
 -24919890.20347 -19382928.39345  21643568.8444                   21643567.1454
 -38199911.80146 -29752819.77743  23471693.3594                   23471692.6484
 -20766619.45347 -16170337.52346  20888570.2114                   20888567.9884
  20826420.08246  16244796.06544  24502110.3754                   24502110.8954
   1978977.53947   1562545.43945  22484169.0554                   22484169.1524
 -16133083.78548 -12549779.92846  20724030.5704                   20724028.7894
 -35545801.38747 -27686020.64646  20992266.5704                   20992262.7154
 11  8  2  2 29 30.0000000  0  7G10G04G12G29G25G05G02
 -24921153.53947 -19383912.79945  21643328.5784                   21643326.5474
 -38180383.01246 -29737602.58943  23475409.8204                   23475408.5084
 -20829315.60547 -16219191.65246  20876639.7424                   20876637.7624
  20682250.18446  16132455.89143  24474676.3444                   24474676.4454
   1851929.76247   1463547.17945  22459992.7194                   22459993.3984
 -16239366.97748 -12632597.96846  20703805.4224                   20703803.7304
 -35583940.26248 -27715739.23546  20985008.7974                   20985004.7664
 11  8  2  2 30  0.0000000  0  7G10G04G12G29G25G05G02
 -24921855.85247 -19384460.04645  21643194.1804                   21643193.0274
 -38160813.93047 -29722353.92643  23479134.0704                   23479131.9924
 -20891372.43047 -16267547.62446  20864830.9064                   20864828.1844
  20538073.60246  16020110.49644  24447239.3754                   24447240.0744
   1725396.07447   1364949.52545  22435913.9534                   22435914.7304
 -16345051.30548 -12714949.36046  20683694.5704                   20683692.4184
 -35621853.74247 -27745282.20946  20977794.2034                   20977790.2274
 11  8  2  2 30 30.0000000  0  7G10G04G12G29G25G05G02
 -24921991.40647 -19384565.67145  21643168.7274                   21643166.7584
 -38141197.96946 -29707068.77343  23482866.5784                   23482865.5594
 -20952782.23047 -16315399.41146  20853144.7194                   20853142.2664
  20393898.55947  15907766.28444  24419804.3284                   24419805.0634
   1599386.27047   1266760.11045  22411935.0474                   22411935.8524
 -16450127.69148 -12796827.05646  20663698.9844                   20663697.3914
 -35659535.47348 -27774644.60346  20970623.5314                   20970619.8404
 11  8  2  2 31  0.0000000  0  7G10G04G12G29G25G05G02
 -24921566.67247 -19384234.69445  21643249.8204                   21643247.5984
 -38121539.87147 -29691750.82944  23486607.3444                   23486606.7344
 -21013548.80547 -16362749.97446  20841581.2424                   20841578.9454
  20249721.82046  15795420.79344  24392369.1024                   24392368.8874
   1473898.62547   1168977.57045  22388055.0314                   22388056.1684
 -16554598.91448 -12878233.15746  20643818.9454                   20643817.0514
 -35696990.16048 -27803830.04846  20963496.1954                   20963492.4614
 11  8  2  2 31 30.0000000  0  7G10G04G12G29G25G05G02
 -24920589.97747 -19383473.63745  21643435.8364                   21643433.6804
 -38101846.60947 -29676405.45143  23490355.2114                   23490353.8134
 -21073678.09047 -16409603.96246  20830139.2894                   20830136.9844
  20105537.95746  15683069.71343  24364931.8134                   24364931.2114
   1348929.25047   1071598.84745  22364274.4304                   22364275.0634
 -16658470.21948 -12959171.82046  20624052.9534                   20624050.7074
 -35734224.83248 -27832844.06746  20956410.5944                   20956406.8284
 11  8  2  2 32  0.0000000  0  7G10G04G12G29G25G05G02
 -24919067.02047 -19382286.91645  21643725.0704                   21643723.2154
 -38082122.01246 -29661035.69043  23494108.5394                   23494108.1644
 -21133173.07848 -16455963.70146  20818817.1804                   20818815.1764
  19961344.70746  15570711.36043  24337492.7344                   24337492.6094
   1224477.24647    974623.29445  22340592.0864                   22340592.6804
 -16761742.99648 -13039644.09346  20604400.5394                   20604399.0204
 -35771243.59448 -27861689.85146  20949366.1254                   20949362.0164
 11  8  2  2 32 30.0000000  0  7G10G04G12G29G25G05G02
 -24916995.55147 -19380672.77545  21644119.7194                   21644117.6414
 -38062362.37546 -29645638.62843  23497868.7664                   23497868.0514
 -21192029.77048 -16501826.05146  20807617.5084                   20807615.2774
  19817147.16846  15458349.68643  24310051.8674                   24310051.9184
   1100549.19947    878056.02645  22317009.5864                   22317010.1454
 -16864411.86748 -13119645.78246  20584863.5234                   20584861.8524
 -35808042.84848 -27890364.57346  20942363.5084                   20942359.4534
 11  8  2  2 33  0.0000000  0  7G10G04G12G29G25G05G02
 -24914384.41047 -19378638.09445  21644616.1484                   21644614.6024
 -38042575.37546 -29630220.15943  23501633.8594                   23501633.2974
 -21250254.17648 -16547195.71546  20796537.5944                   20796535.3594
  19672939.86746  15345980.48643  24282610.9614                   24282610.0204
    977140.75047    781893.63245  22293525.4924                   22293526.5554
 -16966481.98448 -13199180.90446  20565439.7894                   20565438.1564
 -35844630.27748 -27918874.25646  20935401.2114                   20935396.8094
 11  8  2  2 33 30.0000000  0  7G10G04G12G29G25G05G02
 -24911235.00447 -19376184.01345  21645215.7034                   21645213.9964
 -38022760.38346 -29614779.92243  23505404.0704                   23505403.2664
 -21307845.35547 -16592071.95646  20785578.7424                   20785576.7274
  19528724.74546  15233605.09443  24255167.5314                   24255167.4574
    854255.14547    686138.64145  22270140.5314                   22270141.6524
 -17067950.90648 -13278247.56346  20546130.7814                   20546129.3914
 -35881005.57848 -27947218.62646  20928479.3364                   20928474.8984
 11  8  2  2 34  0.0000000  0  7G10G04G12G29G25G05G02
 -24907554.01647 -19373315.69945  21645916.2114                   21645914.2154
 -38002922.44946 -29599321.88943  23509179.9454                   23509179.0704
 -21364807.50448 -16636458.04346  20774739.0704                   20774736.7664
  19384498.12946  15121220.75843  24227721.9384                   24227721.5004
    731890.41847    590789.53745  22246855.8834                   22246856.3404
 -17168821.55948 -13356848.05546  20526935.6174                   20526934.1094
 -35917173.69548 -27975401.56946  20921596.7424                   20921592.5984
 11  8  2  2 34 30.0000000  0  7G10G04G12G29G25G05G02
 -24903342.83247 -19370034.25845  21646717.7194                   21646715.7274
 -37983061.34846 -29583845.75043  23512958.9774                   23512958.0784
 -21421139.77048 -16680353.31946  20764019.1804                   20764017.0634
  19240262.22346  15008829.17543  24200275.0864                   24200274.2464
    610049.67247    495848.74245  22223670.4384                   22223671.1294
 -17269092.23048 -13434981.02046  20507854.8914                   20507853.3984
 -35953134.33248 -28003422.84446  20914753.8204                   20914749.1684
 11  8  2  2 35  0.0000000  0  7G10G04G12G29G25G05G02
 -24898604.41047 -19366341.96645  21647619.0394                   21647617.4454
 -37963178.41846 -29568352.59643  23516742.4534                   23516741.7894
 -21476842.88748 -16723758.33946  20753419.4144                   20753417.2274
  19096016.66846  14896430.13043  24172826.0314                   24172824.8874
    488734.22347    401317.25445  22200584.3134                   22200585.4304
 -17368762.43448 -13512646.09446  20488888.2894                   20488886.4804
 -35988889.53548 -28031284.03046  20907949.4924                   20907944.9774
 11  8  2  2 35 30.0000000  0  7G10G04G12G29G25G05G02
 -24893341.17647 -19362240.75445  21648620.9064                   21648618.8014
 -37943274.59046 -29552843.12243  23520530.3834                   23520529.2384
 -21531916.84048 -16766673.10346  20742939.1804                   20742936.8134
  18951762.71546  14784024.54943  24145375.2734                   24145373.4884
    367946.25047    307196.78145  22177599.2974                   22177600.4734
 -17467830.81248 -13589842.20146  20470036.4454                   20470034.5124
 -36024439.98048 -28058985.65846  20901184.3754                   20901180.4964
 11  8  2  2 36  0.0000000  0  7G10G04G12G29G25G05G02
 -24887561.44547 -19357737.04445  21649720.1484                   21649718.7974
 -37923356.35246 -29537322.47243  23524320.8674                   23524320.2034
 -21586367.89548 -16809102.50346  20732577.4454                   20732575.4024
  18807495.11346  14671608.22543  24117922.0234                   24117920.5274
    247681.87147    213484.30145  22154713.8754                   22154714.8204
 -17566302.42648 -13666573.29946  20451297.5784                   20451295.7664
 -36059792.57848 -28086533.13846  20894457.1254                   20894452.7504
 11  8  2  2 36 30.0000000  0  7G10G04G12G29G25G05G02
 -24881269.64547 -19352834.34945  21650918.1094                   21650916.5864
 -37903426.33246 -29521792.60743  23528113.3984                   23528112.1374
 -21640198.12548 -16851048.12446  20722334.0234                   20722331.7154
  18663212.97346  14559180.68943  24090465.1174                   24090464.9654
    127941.27047    120179.98445  22131927.7504                   22131929.1054
 -17664177.93748 -13742839.89846  20432672.5784                   20432670.8364
 -36094950.10248 -28113928.59546  20887766.7974                   20887762.8554
 11  8  2  2 37  0.0000000  0  7G10G04G12G29G25G05G02
 -24874462.31247 -19347529.93945  21652213.2734                   21652211.4844
 -37883479.10246 -29506249.35343  23531908.9064                   23531908.0984
 -21693401.31648 -16892505.15546  20712209.4384                   20712207.3634
  18518923.38746  14446747.28243  24063008.4384                   24063007.4144
      8732.74248     27290.26145  22109243.3914                   22109244.3204
 -17761450.18448 -13818636.43046  20414162.3134                   20414160.5124
 -36129907.02747 -28141167.75946  20881114.6644                   20881110.6294
 11  8  2  2 37 30.0000000  0  7G10G04G12G29G25G05G02
 -24867145.51247 -19341828.51945  21653605.8984                   21653603.8984
 -37863519.40246 -29490696.33643  23535706.9064                   23535706.6334
 -21745981.74648 -16933476.90546  20702203.5634                   20702201.5514
  18374623.21946  14334305.66843  24035549.5004                   24035547.8714
   -109945.58248    -65186.33145  22086659.4844                   22086660.4614
 -17858122.44148 -13893965.42746  20395766.2894                   20395764.3874
 -36164668.25047 -28168254.42646  20874500.0634                   20874495.6954
 11  8  2  2 38  0.0000000  0  7G10G04G12G29G25G05G02
 -24859320.78147 -19335731.32645  21655094.7194                   21655092.9654
 -37843546.49646 -29475133.06043  23539507.6644                   23539507.2344
 -21797938.16448 -16973962.42946  20692316.5864                   20692314.3794
  18230314.44946  14221857.30143  24008087.1724                   24008087.1954
   -228090.53547   -157247.28345  22064177.6484                   22064178.1994
 -17954191.90647 -13968824.72646  20377484.7344                   20377482.8094
 -36199233.50447 -28195188.38846  20867922.1254                   20867918.1174
 11  8  2  2 38 30.0000000  0  7G10G04G12G29G25G05G02
 -24850989.35247 -19329239.30145  21656680.5474                   21656678.4734
 -37823559.98846 -29459559.18343  23543311.4064                   23543310.2624
 -21849269.91448 -17013961.18646  20682548.6094                   20682546.1994
  18085999.27046  14109403.93043  23980624.9924                   23980625.1094
   -345698.88747   -248890.12446  22041797.2894                   22041798.1524
 -18049656.77347 -14043212.89946  20359318.6334                   20359316.4884
 -36233602.35947 -28221969.30846  20861381.9224                   20861378.1054
 11  8  2  2 39  0.0000000  0  7G10G04G12G29G25G05G02
 -24842157.26647 -19322357.14845  21658360.7194                   21658359.2034
 -37803564.15646 -29443977.98343  23547116.3284                   23547115.1954
 -21899980.64548 -17053476.03746  20672898.8834                   20672896.7584
  17941675.09046  13996943.61944  23953161.8054                   23953160.9804
   -462772.19948   -340116.05545  22019518.7584                   22019519.5354
 -18144519.70348 -14117132.05246  20341266.5944                   20341264.6604
 -36267779.01247 -28248600.45746  20854878.3754                   20854874.6174
 11  8  2  2 39 30.0000000  0  7G10G04G12G29G25G05G02
 -24832825.02747 -19315085.30045  21660136.4694                   21660134.8834
 -37783557.83247 -29428388.65343  23550923.4534                   23550921.8634
 -21950069.17248 -17092506.04546  20663367.2344                   20663365.0354
  17797344.56646  13884478.29144  23925696.2734                   23925696.1254
   -579306.74247   -430922.15745  21997342.7894                   21997343.8134
 -18238777.89548 -14190579.96146  20323329.8364                   20323327.8794
 -36301762.86748 -28275081.37746  20848411.5474                   20848407.4024
 11  8  2  2 40  0.0000000  0  7G10G04G12G29G25G05G02
 -24822997.90247 -19307427.81645  21662006.8444                   21662005.4884
 -37763544.03546 -29412793.47743  23554732.3134                   23554731.3674
 -21999538.16447 -17131053.31046  20653953.3914                   20653951.4964
  17653006.42646  13772007.12344  23898229.7274                   23898229.3754
   -695302.99248   -521308.80545  21975268.9844                   21975270.2934
 -18332433.10547 -14263558.01646  20305507.8444                   20305505.7154
 -36335556.76247 -28301414.27346  20841981.0234                   20841976.9344
 11  8  2  2 40 30.0000000  0  7G10G04G12G29G25G05G02
 -24812677.05547 -19299385.58945  21663970.3834                   21663969.0904
 -37743522.43046 -29397192.24243  23558542.1884                   23558541.0904
 -22048386.58648 -17169117.00646  20644658.2194                   20644655.9534
  17508662.51646  13659531.39144  23870761.9774                   23870761.9654
   -810757.80948   -611273.57145  21953299.0554                   21953299.9304
 -18425483.09447 -14336064.47646  20287801.0784                   20287799.0044
 -36369160.92647 -28327599.32146  20835586.2424                   20835582.5234
 11  8  2  2 41  0.0000000  0  7G10G04G12G29G25G05G02
 -23226449.62547 -18063364.19945  21965819.6414                   21965818.1214
 -36148078.26246 -28153989.00143  23862144.7974                   23862143.8284
 -20521197.79348 -15979099.75646  20935272.5084                   20935269.9024
  18939734.66046  14774652.57944  24143085.5004                   24143085.4774
    649750.28948    526784.70545  22231225.0784                   22231225.3914
 -16942508.29747 -13180499.66946  20570001.8054                   20569999.5824
 -34827158.72347 -27126039.16046  21129019.3524                   21129015.1214
 11  8  2  2 41 30.0000000  0  7G10G04G12G29G25G05G02
 -23215153.57047 -18054562.08145  21967969.3834                   21967967.4454
 -36128047.16446 -28138380.38743  23865956.2424                   23865956.1374
 -20568811.35948 -16016201.23046  20926211.9304                   20926209.6454
  18795378.09446  14662167.01144  24115615.1174                   24115615.2624
    535379.55948    437664.69945  22209460.5864                   22209461.5314
 -17034349.90648 -13252064.53846  20552525.0474                   20552522.6524
 -34860389.36347 -27151933.14846  21122695.5084                   21122691.5234
 11  8  2  2 42  0.0000000  0  7G10G04G12G29G25G05G02
 -23203371.57447 -18045381.29945  21970211.1334                   21970209.6764
 -36108009.75846 -28122766.78743  23869769.3204                   23869768.9964
 -20615805.66048 -16052820.15046  20917269.5164                   20917266.6994
  18651018.96546  14549679.43244  24088144.5784                   24088144.4924
    421556.11748    348971.14145  22187800.7194                   22187801.1684
 -17125583.79747 -13323155.85246  20535163.3594                   20535161.6214
 -34893432.23047 -27177680.83346  21116407.8914                   21116404.0204
 11  8  2  2 42 30.0000000  0  7G10G04G12G29G25G05G02
 -23191108.82847 -18035825.93145  21972545.0394                   21972542.9924
 -36087969.43046 -28107150.95343  23873583.0944                   23873582.1844
 -20662183.81248 -16088958.98046  20908443.6094                   20908441.3834
  18506655.31346  14437188.33944  24060673.1024                   24060672.6994
    308279.14548    260703.41045  22166244.6884                   22166245.4804
 -17216211.88348 -13393775.11846  20517917.4924                   20517915.6524
 -34926290.82048 -27203284.91346  21110155.3984                   21110151.2664
 11  8  2  2 43  0.0000000  0  7G10G04G12G29G25G05G02
 -23178365.91847 -18025896.38445  21974969.5004                   21974967.9924
 -36067924.56246 -28091531.60443  23877398.1954                   23877396.7274
 -20707944.23848 -16124616.45046  20899735.6724                   20899733.5044
  18362290.41846  14324696.25143  24033201.0944                   24033201.0864
    195552.65248    172864.61645  22144793.6024                   22144794.7034
 -17306231.27348 -13463920.06546  20500787.2274                   20500785.5354
 -34958963.89848 -27228744.46046  21103937.8914                   21103934.1454
 11  8  2  2 43 30.0000000  0  7G10G04G12G29G25G05G02
 -23165150.76647 -18015598.84445  21977484.3524                   21977482.8524
 -36047881.30146 -28075913.52643  23881212.3674                   23881210.6524
 -20753092.97748 -16159797.27246  20891144.2974                   20891141.7934
  18217920.24646  14212200.06344  24005728.5784                   24005728.1094
     83372.98448     85451.91545  22123446.8444                   22123447.6724
 -17395646.87148 -13533594.53846  20483771.7584                   20483770.1054
 -34991457.67248 -27254064.26946  21097754.3524                   21097750.3674
 11  8  2  2 44  0.0000000  0  7G10G04G12G29G25G05G02
 -23151464.15647 -18004933.95945  21980089.0784                   21980087.6334
 -36027838.42246 -28060295.73843  23885025.3524                   23885024.7304
 -20797628.80948 -16194500.51146  20882669.3054                   20882667.3524
  18073547.37946  14099701.83144  23978255.6804                   23978255.3954
    -28256.41848     -1531.99145  22102204.1484                   22102204.4304
 -17484456.51248 -13602796.81646  20466872.5394                   20466870.1644
 -35023770.81248 -27279243.33146  21091605.6884                   21091601.3594
 11  8  2  2 44 30.0000000  0  7G10G04G12G29G25G05G02
 -23137305.52047 -17993901.25744  21982783.1094                   21982781.5394
 -36007793.36346 -28044676.21943  23888840.6024                   23888839.0004
 -20841548.36348 -16228723.53846  20874311.6094                   20874309.2424
  17929175.89846  13987204.65144  23950782.2894                   23950781.7974
   -139330.20348    -88082.95445  22081067.3754                   22081068.1294
 -17572655.48848 -13671523.26646  20450088.5234                   20450086.6724
 -35055901.06248 -27304279.88046  21085491.1954                   21085487.2934
 11  8  2  2 45  0.0000000  0  7G10G04G12G29G25G05G02
 -23122686.18747 -17982509.57444  21985565.3834                   21985563.3324
 -35987755.18446 -28029062.03443  23892653.3364                   23892651.9734
 -20884862.09848 -16262474.50446  20866069.5944                   20866067.1804
  17784798.21146  13874702.62244  23923308.5634                   23923307.7424
   -249855.51648   -174206.52845  22060035.1644                   22060035.8244
 -17660252.18748 -13739780.40946  20433419.2034                   20433417.2934
 -35087858.12548 -27329181.48846  21079409.8594                   21079405.7774
 11  8  2  2 45 30.0000000  0  7G10G04G12G29G25G05G02
 -23107601.32847 -17970755.12044  21988436.0234                   21988434.0084
 -35967716.95346 -28013447.83543  23896466.7504                   23896465.8874
 -20927562.30548 -16295747.38346  20857944.1724                   20857941.6684
  17640422.75846  13762202.30744  23895834.7034                   23895833.9964
   -359823.14148   -259895.54545  22039109.3284                   22039109.3754
 -17747238.67648 -13807562.05546  20416866.2894                   20416864.3594
 -35119635.16048 -27353942.79446  21073362.8524                   21073359.0944
 11  8  2  2 46  0.0000000  0  7G10G04G12G29G25G05G02
 -23092055.01647 -17958641.10245  21991394.3524                   21991392.2734
 -35947681.00046 -27997835.43943  23900279.6564                   23900278.5594
 -20969651.40648 -16328544.08746  20849934.7664                   20849932.2034
  17496049.15246  13649703.46044  23868361.2974                   23868360.7034
   -469232.89548   -345149.85745  22018288.6724                   22018289.5354
 -17833615.78548 -13874868.86846  20400429.5084                   20400427.2344
 -35151234.46547 -27378565.62446  21067349.7814                   21067346.2074
 11  8  2  2 46 30.0000000  0  7G10G04G12G29G25G05G02
 -23076050.14847 -17946169.76545  21994439.9924                   21994437.5234
 -35927648.05546 -27982225.40243  23904092.3594                   23904090.8324
 -21011130.63348 -16360865.55646  20842041.7584                   20842039.3094
  17351678.52046  13537206.93044  23840888.3524                   23840887.5554
   -578083.15248   -429968.19545  21997575.6414                   21997575.7504
 -17919383.25448 -13941700.63646  20384108.3984                   20384106.4304
 -35182656.78548 -27403050.54246  21061370.1414                   21061366.5904
 11  8  2  2 47  0.0000000  0  7G10G04G12G29G25G05G02
 -23059592.10547 -17933345.30445  21997571.8284                   21997569.5864
 -35907620.84846 -27966619.81143  23907902.5634                   23907902.2704
 -21052002.58648 -16392713.84246  20834263.5234                   20834261.4304
  17207309.15646  13424711.36544  23813415.4144                   23813414.7894
   -686374.59848   -514351.11146  21976968.3444                   21976968.7894
 -18004543.04348 -14008058.89246  20367902.9924                   20367900.9344
 -35213905.35547 -27427400.08146  21055423.9384                   21055419.9344
 11  8  2  2 47 30.0000000  0  7G10G04G12G29G25G05G02
 -23042680.39547 -17920167.33044  22000790.2974                   22000788.1214
 -35887596.67646 -27951016.61043  23911714.1254                   23911712.6484
 -21092265.16048 -16424087.27746  20826602.7424                   20826600.0944
  17062945.47746  13312220.23443  23785943.7974                   23785943.9264
   -794102.45348   -598294.84545  21956468.1804                   21956468.7194
 -18089091.20348 -14073940.55046  20351813.8364                   20351812.0274
 -35244977.69148 -27451612.26846  21049510.8524                   21049507.3444
 11  8  2  2 48  0.0000000  0  7G10G04G12G29G25G05G02
 -23025322.42247 -17906641.63744  22004093.0944                   22004091.0434
 -35867581.32946 -27935420.32843  23915522.1254                   23915520.8364
 -21131924.16048 -16454990.40146  20819055.1334                   20819052.6214
  16918583.50046  13199730.48143  23758473.0394                   23758471.1414
   -901270.16448   -681802.11745  21936075.1954                   21936075.9224
 -18173032.73848 -14139349.50746  20335840.1334                   20335838.2624
 -35275879.85947 -27475691.87446  21043630.6484                   21043626.8754
 11  8  2  2 48 30.0000000  0  7G10G04G12G29G25G05G02
 -23007517.82847 -17892767.94644  22007481.5784                   22007479.3284
 -35847572.21946 -27919828.81543  23919329.2424                   23919328.8404
 -21170977.10248 -16485421.25646  20811623.6024                   20811621.2704
  16774227.46546  13087245.27243  23731002.8754                   23731001.4454
  -1007872.85548   -764869.12246  21915789.0704                   21915789.5204
 -18256364.15248 -14204283.05546  20319982.6094                   20319980.7504
 -35306609.29747 -27499636.87946  21037782.8914                   21037779.1134
 11  8  2  2 49  0.0000000  0  7G10G04G12G29G25G05G02
 -22989267.21947 -17878546.67345  22010953.7974                   22010952.1054
 -35827567.37146 -27904240.63743  23923136.5944                   23923135.7664
 -21209422.64548 -16515378.83346  20804307.7114                   20804305.2704
  16629880.82846  12974767.43744  23703534.5234                   23703533.4144
  -1113906.78548   -847492.93146  21895611.4144                   21895612.0314
 -18339082.04748 -14268738.53646  20304241.8754                   20304240.0274
 -35337164.67247 -27523446.25346  21031968.5394                   21031964.3754
 11  8  2  2 49 30.0000000  0  7G10G04G12G29G25G05G02
 -22970570.87547 -17863978.09044  22014511.5164                   22014510.0634
 -35807564.83246 -27888654.27743  23926942.7664                   23926942.5204
 -21247259.21948 -16544861.88246  20797107.8134                   20797105.3284
  16485546.95747  12862299.52044  23676068.7894                   23676068.0594
  -1219367.80548   -929670.32746  21875542.6644                   21875543.5514
 -18421184.06648 -14332714.12046  20288618.7194                   20288616.5594
 -35367544.07847 -27547118.52746  21026187.4534                   21026183.5204
 11  8  2  2 50  0.0000000  0  7G10G04G12G29G25G05G02
 -22951435.93747 -17849067.74944  22018153.1024                   22018151.0744
 -35787569.83246 -27873073.80243  23930748.0784                   23930747.4734
 -21284492.15648 -16573874.55946  20790022.6024                   20790020.0944
  16341222.17247  12749838.70144  23648604.3134                   23648604.0704
  -1324259.07848  -1011403.74346  21855582.6254                   21855583.3204
 -18502674.12548 -14396212.83946  20273111.5474                   20273109.4534
 -35397752.73447 -27570657.71446  21020438.6724                   21020434.8674
 11  8  2  2 50 30.0000000  0  7G10G04G12G29G25G05G02
 -22931869.25847 -17833820.96944  22021876.6954                   22021874.7274
 -35767587.01646 -27857502.79943  23934550.1024                   23934549.6644
 -21321126.59448 -16602420.87646  20783050.9614                   20783048.6564
  16196903.97747  12637383.04344  23621141.2344                   23621141.2034
  -1428583.16448  -1092695.21546  21835730.3984                   21835730.7074
 -18583556.42648 -14459237.98646  20257720.5084                   20257718.2034
 -35427795.88347 -27594067.94146  21014722.0234                   21014718.1214
 11  8  2  2 51  0.0000000  0  7G10G04G12G29G25G05G02
 -22911869.82047 -17818236.99244  22025682.2194                   22025680.3284
 -35747612.76646 -27841938.50243  23938350.9304                   23938351.3244
 -21357159.62948 -16630498.57246  20776194.1024                   20776191.9884
  16052597.37547  12524936.39444  23593681.0944                   23593680.5044
  -1532334.65648  -1173540.49946  21815987.1724                   21815987.5474
 -18663826.63348 -14521786.18246  20242445.3204                   20242443.2074
 -35457669.88748 -27617346.36646  21009037.1024                   21009033.0394
 11  8  2  2 51 30.0000000  0  7G10G04G12G29G25G05G02
 -22891436.87547 -17802315.22844  22029570.5314                   22029568.7774
 -35727644.27046 -27826378.61742  23942151.7504                   23942150.8204
 -21392588.43048 -16658105.44046  20769452.6644                   20769450.3794
  15908306.68446  12412502.16344  23566222.6484                   23566222.5704
  -1635508.49648  -1253935.67246  21796353.9224                   21796354.5824
 -18743481.00048 -14583854.50046  20227287.5314                   20227285.7274
 -35487372.08247 -27640490.93446  21003384.7274                   21003380.8554
 11  8  2  2 52  0.0000000  0  7G10G04G12G29G25G05G02
 -22870576.54347 -17786060.42644  22033540.6484                   22033537.9384
 -35707684.96546 -27810825.88342  23945949.2734                   23945947.9694
 -21427417.29348 -16685244.81446  20762824.6484                   20762822.5904
  15764029.97746  12300078.81244  23538768.1564                   23538768.0124
  -1738106.51248  -1333882.14846  21776830.0234                   21776830.6024
 -18822522.62948 -14645445.36346  20212246.3674                   20212244.1214
 -35516906.37547 -27663504.65946  20997764.6644                   20997760.4304
 11  8  2  2 52 30.0000000  0  7G10G04G12G29G25G05G02
 -22849293.00047 -17769475.82644  22037590.5634                   22037588.7814
 -35687736.94146 -27795281.95342  23949745.0944                   23949744.7894
 -21461648.49248 -16711918.47246  20756311.0784                   20756308.6484
  15619767.10946  12187666.29444  23511315.9534                   23511315.1054
  -1840128.48048  -1413379.77446  21757415.9534                   21757416.2504
 -18900952.26648 -14706559.35346  20197321.9454                   20197319.7114
 -35546275.07447 -27686389.34746  20992175.8284                   20992171.7664
 11  8  2  2 53  0.0000000  0  7G10G04G12G29G25G05G02
 -22827588.64547 -17752563.34644  22041720.4534                   22041718.5084
 -35667800.01645 -27779746.71542  23953539.3054                   23953538.7074
 -21495283.34848 -16738127.45746  20749910.4144                   20749907.9924
  15475519.40647  12075265.52644  23483866.3914                   23483865.4344
  -1941572.74248  -1492427.21446  21738111.6414                   21738112.7624
 -18978769.54348 -14767196.16346  20182513.5704                   20182511.3204
 -35575478.25047 -27709145.05146  20986618.9534                   20986614.8874
 11  8  2  2 53 30.0000000  0  7G10G04G12G29G25G05G02
 -22805465.59847 -17735324.60744  22045930.7034                   22045928.8484
 -35647874.41846 -27764220.34042  23957330.5314                   23957330.4614
 -21528322.17248 -16763871.99746  20743623.0474                   20743621.2584
  15331288.40646  11962877.82244  23456420.1094                   23456419.5664
  -2042437.59448  -1571023.18746  21718918.0004                   21718918.6684
 -19055973.98848 -14827355.45746  20167822.0634                   20167819.9184
 -35604516.36747 -27731772.14245  20981092.6954                   20981088.6644
 11  8  2  2 54  0.0000000  0  7G10G04G12G29G25G05G02
 -21207507.64147 -16490162.58944  22350011.6804                   22350009.3134
 -34052541.32846 -26521103.68742  24260912.7194                   24260911.5744
 -19985344.87548 -15561552.01946  21037242.1484                   21037239.3984
  16762500.53147  13078108.13244  23728770.8524                   23728770.5634
   -567298.21148   -421563.89546  21999627.7424                   21999627.7304
 -17557142.88348 -13659435.09147  20453039.9774                   20453038.0634
 -34057969.16448 -26526670.39646  21275391.0234                   21275386.9924
 11  8  2  2 54 30.0000000  0  7G10G04G12G29G25G05G02
 -21184558.95747 -16472280.50144  22354378.5944                   22354376.6994
 -34032643.11346 -26505598.64542  24264698.9454                   24264698.5204
 -20017198.03148 -15586372.66646  21031180.5084                   21031178.2814
  16618303.75047  12965747.09044  23701330.5004                   23701329.4884
   -667003.23448   -499256.11646  21980654.3284                   21980654.9654
 -17633124.69948 -13718641.68447  20438581.3204                   20438579.1564
 -34086682.58648 -26549044.48946  21269926.9454                   21269922.7034
 11  8  2  2 55  0.0000000  0  7G10G04G12G29G25G05G02
 -21161201.51247 -16454079.88144  22358823.2194                   22358821.0234
 -34012758.99646 -26490104.57643  24268483.6174                   24268481.7504
 -20048460.07848 -15610732.70946  21025231.7034                   21025229.3634
  16474125.71547  12853400.66144  23673894.4534                   23673893.8754
   -766126.37148   -576494.89846  21961791.6024                   21961792.3954
 -17708494.88348 -13777371.68047  20424239.0704                   20424236.8674
 -34115234.57047 -26571292.78246  21264494.0474                   21264489.5474
 11  8  2  2 55 30.0000000  0  7G10G04G12G29G25G05G02
 -21137434.58647 -16435560.18244  22363346.2664                   22363344.1214
 -33992885.52846 -26474618.66943  24272264.4384                   24272263.9144
 -20079127.95348 -15634629.74146  21019395.8834                   21019393.3594
  16329971.84847  12741073.04644  23646462.7734                   23646462.1454
   -864662.23848   -653276.08746  21943040.8984                   21943041.5234
 -17783249.40248 -13835621.92846  20410013.5474                   20410011.6644
 -34143621.56648 -26593412.49646  21259092.0234                   21259087.5394
 11  8  2  2 56  0.0000000  0  7G10G04G12G29G25G05G02
 -21113263.62547 -16416725.68044  22367946.0164                   22367943.9734
 -33973025.82846 -26459143.68143  24276044.1334                   24276043.6454
 -20109205.94547 -15658067.13746  21013672.3834                   21013670.1644
  16185840.43047  12628762.90844  23619035.9224                   23619035.1054
   -962612.44548   -729600.89246  21924401.5554                   21924402.3164
 -17857391.05948 -13893394.62446  20395904.7194                   20395902.6094
 -34171847.37148 -26615406.61346  21253720.8444                   21253716.8524
 11  8  2  2 56 30.0000000  0  7G10G04G12G29G25G05G02
 -21088694.58647 -16397580.96744  22372620.8834                   22372619.0634
 -33953183.74246 -26443682.34443  24279820.0234                   24279819.3524
 -20138698.54747 -15681048.37946  21008059.8284                   21008057.3244
  16041729.59447  12516468.84044  23591612.1884                   23591611.4884
  -1059978.91048   -805470.86246  21905873.1644                   21905873.8984
 -17930922.91448 -13950692.14746  20381912.1644                   20381909.7424
 -34199915.79748 -26637278.10846  21248379.4534                   21248375.3794
 11  8  2  2 57  0.0000000  0  7G10G04G12G29G25G05G02
 -21063728.71547 -16378127.05144  22377371.7034                   22377370.4104
 -33933357.98046 -26428233.77543  24283592.6024                   24283592.3364
 -20167605.19148 -15703573.03746  21002558.6954                   21002556.6454
  15897642.10547  12404192.93844  23564193.2584                   23564192.4454
  -1156758.80148   -880883.74446  21887456.5634                   21887457.6484
 -18003843.59048 -14007513.43046  20368036.0864                   20368033.2814
 -34227825.98448 -26659026.28546  21243068.7814                   21243064.3874
 11  8  2  2 57 30.0000000  0  7G10G04G12G29G25G05G02
 -21038371.60247 -16358368.28044  22382196.7734                   22382195.2664
 -33913551.30146 -26412800.02243  24287362.2734                   24287361.1134
 -20195929.80548 -15725644.16546  20997169.0164                   20997166.6334
  15753576.60547  12291934.18644  23536778.3204                   23536776.9734
  -1252953.52048   -955840.64946  21869151.5314                   21869151.7154
 -18076155.68448 -14063860.49346  20354274.9614                   20354273.0634
 -34255581.14548 -26680653.66846  21237786.7974                   21237782.8444
 11  8  2  2 58  0.0000000  0  7G10G04G12G29G25G05G02
 -21012622.75447 -16338304.22344  22387097.0164                   22387095.2584
 -33893761.37146 -26397379.30743  24291127.6024                   24291127.5354
 -20223670.47348 -15747260.26746  20991890.3444                   20991887.7424
  15609537.07847  12179695.64544  23509368.4144                   23509367.8094
  -1348558.87548  -1030338.30446  21850958.4304                   21850958.7624
 -18147856.11748 -14119730.94046  20340630.5314                   20340628.6914
 -34283178.80548 -26702158.32146  21232535.1884                   21232531.0634
 11  8  2  2 58 30.0000000  0  7G10G04G12G29G25G05G02
 -20986488.75446 -16317940.08844  22392070.3134                   22392068.5554
 -33873991.97346 -26381974.63143  24294889.9534                   24294889.7274
 -20250832.53948 -15768425.51346  20986721.3834                   20986718.8714
  15465521.49247  12067475.76144  23481963.1564                   23481962.2624
  -1443577.17648  -1104378.51946  21832876.9614                   21832877.5904
 -18218948.92648 -14175127.90247  20327101.9144                   20327100.2194
 -34310623.19948 -26723543.55346  21227312.6644                   21227308.5004
 11  8  2  2 59  0.0000000  0  7G10G04G12G29G25G05G02
 -20959969.84047 -16297275.98444  22397116.3284                   22397114.8484
 -33854240.74246 -26366584.14143  24298648.4454                   24298647.4884
 -20277414.57848 -15789138.78646  20981663.3284                   20981660.7304
  15321533.61347  11955277.46144  23454563.0864                   23454562.0634
  -1538004.80948  -1177958.46846  21814908.0314                   21814908.4804
 -18289431.39548 -14230049.28747  20313689.7344                   20313688.2774
 -34337912.39148 -26744807.84546  21222119.8834                   21222115.5554
 11  8  2  2 59 30.0000000  0  7G10G04G12G29G25G05G02
 -20933070.14547 -16276315.21544  22402235.5004                   22402233.5084
 -33834509.53946 -26351209.19043  24302403.9774                   24302402.6294
 -20303418.99648 -15809401.97046  20976714.4844                   20976712.2814
  15177573.67647  11843100.90744  23427168.5864                   23427167.6414
  -1631841.77748  -1251078.17246  21797051.5234                   21797052.0434
 -18359304.84448 -14284496.10447  20300393.6334                   20300391.4384
 -34365048.19948 -26765952.62046  21216956.2504                   21216951.9224
 11  8  2  3  0  0.0000000  0  7G10G04G12G29G25G05G02
 -20905791.54747 -16255059.17744  22407426.0704                   22407424.3404
 -33814797.47746 -26335849.20243  24306154.5004                   24306153.3284
 -20328846.34048 -15829215.48846  20971875.7424                   20971873.6024
  15033643.80147  11730947.79944  23399779.7734                   23399779.1724
  -1725086.08248  -1323736.06246  21779307.5314                   21779308.0124
 -18428568.59848 -14338467.84647  20287213.2424                   20287211.0554
 -34392030.21948 -26786977.55046  21211821.4384                   21211817.0164
 11  8  2  3  0 30.0000000  0  7G10G04G12G29G25G05G02
 -20878136.25046 -16233509.57644  22412688.9384                   22412686.9414
 -33795104.50446 -26320504.09243  24309901.8754                   24309900.9494
 -20353697.10248 -15848579.71246  20967146.6254                   20967144.4454
  14889746.12547  11618819.77644  23372396.4224                   23372395.6764
  -1817735.91447  -1395930.70246  21761677.0004                   21761676.8914
 -18497222.12548 -14391964.07046  20274148.5394                   20274146.7034
 -34418858.41048 -26807882.61246  21206716.0084                   21206712.1524
 11  8  2  3  1  0.0000000  0  8G26G10G04G12G29G25G05G02
  26553449.26656  20708713.58652  24781512.1484                   24781508.9414
 -20850109.16447 -16211670.32844  22418022.2504                   22418020.8754
 -33775433.07846 -26305175.77043  24313645.1644                   24313644.7934
 -20377975.16848 -15867497.67946  20962526.8284                   20962524.6454
  14745879.52346  11506715.98344  23345019.6484                   23345018.7504
  -1909792.67248  -1467663.23246  21744159.2814                   21744159.4224
 -18565267.86348 -14444986.70746  20261200.1884                   20261197.8484
 -34445535.70748 -26828670.11846  21201639.3754                   21201635.6024
 11  8  2  3  1 30.0000000  0  8G26G10G04G12G29G25G05G02
  26398753.496 5                  24752074.164
 -20821722.98047 -16189551.24344  22423424.3914                   22423422.2034
 -33755793.02746 -26289871.81843  24317383.0234                   24317382.1764
 -20401691.73048 -15885978.12046  20958013.7194                   20958011.4494
  14602036.00046  11394630.15144  23317647.5234                   23317646.5824
  -2001264.71947  -1538940.12546  21726752.3204                   21726752.8984
 -18632715.89548 -14497543.59146  20248364.8914                   20248362.8164
 -34472072.45747 -26849348.09146  21196589.8134                   21196585.4694
 11  8  2  3  2  0.0000000  0  8G26G10G04G12G29G25G05G02
  26243949.895 5                  24722616.680
 -20792987.25047 -16167159.74244  22428892.0784                   22428890.5704
 -33736191.62146 -26274598.02742  24321112.0944                   24321112.1214
 -20424855.27048 -15904027.63046  20953605.7034                   20953603.4104
  14458209.80546  11282557.85944  23290278.1174                   23290277.3754
  -2092157.97348  -1609766.01546  21709456.3134                   21709456.6764
 -18699572.86748 -14549639.91347  20235642.7504                   20235640.2194
 -34498475.74248 -26869922.08146  21191565.7344                   21191561.0744
 11  8  2  3  2 30.0000000  0  8G26G10G04G12G29G25G05G02
  26089043.844 5                  24693137.898
 -20763902.27046 -16144496.14844  22434427.2114                   22434425.6844
 -33716626.45746 -26259352.47342  24324835.3054                   24324835.3094
 -20447464.03548 -15921644.85846  20949303.5634                   20949301.1524
  14314405.14147  11170502.33044  23262912.9534                   23262912.1134
  -2182468.73447  -1680138.01446  21692270.2504                   21692270.9804
 -18765836.55548 -14601273.93247  20223032.7974                   20223031.1844
 -34524743.64548 -26890390.57346  21186567.1954                   21186562.8014
 11  8  2  3  3  0.0000000  0  8G26G10G04G12G29G25G05G02
  25934040.820 5                  24663641.578
 -20734468.20747 -16121560.51444  22440027.9534                   22440026.4384
 -33697095.48046 -26244133.55142  24328552.7664                   24328551.8874
 -20469517.56248 -15938829.42646  20945106.9694                   20945104.5434
  14170625.53146  11058466.36244  23235552.5864                   23235551.3834
  -2272193.76247  -1750053.61046  21675196.5314                   21675196.4144
 -18831505.25048 -14652444.32846  20210537.0084                   20210534.5204
 -34550874.49648 -26910752.25846  21181594.4454                   21181590.6094
 11  8  2  3  3 30.0000000  0  8G26G10G04G12G29G25G05G02
  25778945.176 5                  24634127.313
 -20704686.82446 -16098354.26744  22445695.1414                   22445693.4654
 -33677597.31646 -26228940.18742  24332262.4304                   24332262.9024
 -20491015.79348 -15955581.29846  20941016.2274                   20941013.3594
  14026874.06647  10946452.29344  23208197.0474                   23208196.1804
  -2361330.55148  -1819510.82946  21658234.3444                   21658234.8874
 -18896577.65648 -14703150.08047  20198154.0314                   20198151.6804
 -34576867.15248 -26931006.26446  21176648.0394                   21176643.8244
 11  8  2  3  4  0.0000000  0  8G26G10G04G12G29G25G05G02
  25623760.83646  19984280.65353  24604597.7194                   24604597.5274
 -20674559.88346 -16074878.72344  22451428.5314                   22451426.4534
 -33658131.44546 -26213772.00042  24335966.4534                   24335966.9184
 -20511958.98048 -15971900.66746  20937030.4064                   20937028.0164
  13883152.94546  10834461.88944  23180847.7664                   23180846.7424
  -2449877.12148  -1888508.14346  21641384.4454                   21641384.5434
 -18961052.76648 -14753390.40646  20185884.7034                   20185882.5744
 -34602721.03148 -26951152.14646  21171728.0314                   21171724.0314
 11  8  2  3  4 30.0000000  0  8G26G10G04G12G29G25G05G02
  25468491.67246  19863291.82743  24575050.7344                   24575050.9064
 -20644089.35946 -16051135.48344  22457226.7274                   22457224.7344
 -33638697.10546 -26198628.42642  24339665.6254                   24339664.6334
 -20532348.26648 -15987788.43046  20933150.4924                   20933148.4184
  13739464.55946  10722497.02044  23153505.0314                   23153504.0594
  -2537831.95348  -1957044.35146  21624646.9064                   21624647.4884
 -19024930.67648 -14803165.37346  20173729.0784                   20173726.6174
 -34628436.10948 -26971189.87046  21166834.7344                   21166830.9414
 11  8  2  3  5  0.0000000  0  8G26G10G04G12G29G25G05G02
  25313142.29747  19742240.44043  24545489.0164                   24545488.1484
 -20613276.50046 -16027125.46744  22463090.3754                   22463088.5744
 -33619293.19946 -26183508.47742  24343358.2584                   24343356.8094
 -20552183.62548 -16003244.56446  20929376.1484                   20929373.9844
  13595811.82046  10610559.89644  23126168.2664                   23126168.2974
  -2625192.47348  -2025117.46846  21608023.1414                   21608023.1684
 -19088209.87548 -14852473.82746  20161686.9774                   20161685.2074
 -34654011.34447 -26991118.62546  21161967.8524                   21161963.8134
 11  8  2  3  5 30.0000000  0  8G26G10G04G12G29G25G05G02
  25157715.61346  19621128.85343  24515912.4384                   24515912.0474
 -20582123.82846 -16002850.69244  22469018.1954                   22469016.2304
 -33599919.60246 -26168412.12542  24347044.4384                   24347043.1564
 -20571466.50448 -16018270.19046  20925706.8134                   20925704.7304
  13452196.32046  10498651.83544  23098839.5944                   23098839.2624
  -2711957.68447  -2092726.70146  21591512.1024                   21591512.2304
 -19150890.55147 -14901315.88846  20149759.9454                   20149757.7384
 -34679446.95747 -27010938.58246  21157127.6414                   21157123.5904
 11  8  2  3  6  0.0000000  0  8G26G10G04G12G29G25G05G02
  25002218.17247  19499962.13443  24486322.0314                   24486321.2544
 -20550631.12147 -15978310.93844  22475011.4384                   22475009.4304
 -33580573.20746 -26153336.99242  24350726.7974                   24350724.8134
 -20590195.30148 -16032864.05446  20922142.8444                   20922140.4654
  13308622.98846  10386776.61644  23071518.9384                   23071517.2194
  -2798123.39548  -2159868.80646  21575115.5864                   21575115.6134
 -19212969.98848 -14949689.45746  20137946.3834                   20137944.1454
 -34704740.07847 -27030647.50646  21152314.6484                   21152310.7774
 11  8  2  3  6 30.0000000  0  8G26G10G04G12G29G25G05G02
  24846647.46546  19378738.27543  24456717.1414                   24456717.1214
 -20518806.56247 -15953512.57744  22481067.0234                   22481065.9384
 -33561259.89146 -26138287.62542  24354401.4614                   24354399.5984
 -20608377.09448 -16047031.70146  20918682.8204                   20918680.3674
  13165087.62546  10274930.97744  23044203.9924                   23044203.4184
  -2883694.26248  -2226547.39446  21558831.7424                   21558832.0594
 -19274454.20748 -14997599.21646  20126246.3134                   20126244.0474
 -34729896.78548 -27050250.12046  21147527.4384                   21147523.4694
 11  8  2  3  7  0.0000000  0  8G26G10G04G12G29G25G05G02
  26266436.71946  20485067.60243  24726894.2034                   24726894.0394
 -18911229.10946 -14700854.85944  22786978.6954                   22786977.4774
 -31966555.20746 -24895660.60242  24657863.1724                   24657861.6254
 -19050587.76648 -14833169.89046  21215120.1884                   21215118.2274
  14597021.62147  11390723.79944  23316692.3914                   23316690.9494
  -1393241.67648  -1065155.74446  21842455.5634                   21842455.6564
 -17759916.51648 -13817439.94447  20414452.9614                   20414450.8324
 -33179491.91447 -25842142.40646  21442559.7894                   21442555.7774
 11  8  2  3  7 30.0000000  0  8G26G10G04G12G29G25G05G02
  26110736.63346  20363742.86143  24697265.5004                   24697265.5704
 -18878741.52046 -14675539.86444  22793161.5314                   22793159.4344
 -31947300.52346 -24880656.91042  24661527.9144                   24661526.2464
 -19067672.38748 -14846482.59646  21211869.2114                   21211866.9024
  14453574.61346  11278946.97244  23289395.1414                   23289394.5044
  -1477612.69948  -1130899.38646  21826400.0784                   21826400.5554
 -17820203.78948 -13864417.02447  20402980.9534                   20402978.5784
 -33204369.47747 -25861527.51646  21437825.4064                   21437821.6024
 11  8  2  3  8  0.0000000  0  8G26G10G04G12G29G25G05G02
  25954976.16846  20242371.16443  24667625.7114                   24667624.9494
 -18845926.87947 -14649970.02944  22799405.7194                   22799403.6684
 -31928075.70346 -24865676.52643  24665185.5164                   24665184.8754
 -19084211.05148 -14859369.87546  21208721.8594                   21208719.5904
  14310173.59447  11167206.01344  23262107.3834                   23262105.6054
  -1561382.96547  -1196174.91646  21810458.7974                   21810459.6994
 -17879893.35948 -13910928.35947  20391622.4534                   20391619.8364
 -33229108.26247 -25880804.48846  21433118.1024                   21433113.8984
 11  8  2  3  8 30.0000000  0  8G26G10G04G12G29G25G05G02
  25799157.78146  20120954.38943  24637973.1334                   24637973.3554
 -18812788.88346 -14624148.22244  22805711.8674                   22805709.7814
 -31908881.55547 -24850719.99143  24668838.8284                   24668838.0004
 -19100206.36748 -14871833.76346  21205678.1174                   21205675.9614
  14166819.64547  11055501.68944  23234827.7894                   23234826.1374
  -1644552.34448  -1260982.21546  21794632.5864                   21794632.6214
 -17938986.69147 -13956975.08247  20380377.1414                   20380375.0514
 -33253709.39847 -25899974.20246  21428436.3754                   21428432.6174
 11  8  2  3  9  0.0000000  0  8G26G10G04G12G29G25G05G02
  25643287.54746  19999497.08242  24608313.1884                   24608311.8204
 -18779327.45346 -14598074.40444  22812079.3444                   22812077.6524
 -31889715.30147 -24835785.28543  24672485.5164                   24672484.9224
 -19115657.35548 -14883873.50746  21202737.7814                   21202735.8524
  14023517.06246  10943837.46544  23207557.8284                   23207556.7504
  -1727117.19148  -1325318.43446  21778920.8674                   21778921.4384
 -17997481.29748 -14002555.28147  20369245.8524                   20369243.9924
 -33278170.41447 -25919034.72246  21423781.9304                   21423777.6914
 11  8  2  3  9 30.0000000  0  8G26G10G04G12G29G25G05G02
  25487369.99646  19878003.02342  24578642.9384                   24578641.3754
 -18745543.78546 -14571749.49444  22818507.6564                   22818506.2504
 -31870575.66446 -24820871.20143  24676127.2424                   24676127.6134
 -19130563.84048 -14895488.95446  21199901.1414                   21199899.0864
  13880269.15247  10832215.79544  23180299.1724                   23180297.5474
  -1809075.33648  -1389181.92246  21763324.7974                   21763325.0664
 -18055376.59048 -14047668.47446  20358229.1484                   20358226.8554
 -33302490.53947 -25937985.47146  21419153.6334                   21419149.8014
 11  8  2  3 10  0.0000000  0  8G26G10G04G12G29G25G05G02
  25331407.27746  19756473.66442  24548963.7274                   24548962.2034
 -18711441.52046 -14545176.33644  22824997.4144                   22824995.5314
 -31851463.88346 -24805978.88343  24679764.6724                   24679764.2194
 -19144929.05948 -14906682.64346  21197168.1644                   21197165.7154
  13737076.18047  10720636.88944  23153049.6174                   23153048.0474
  -1890427.25048  -1452573.00446  21747843.9844                   21747844.3984
 -18112674.00848 -14092315.79247  20347325.6724                   20347323.5594
 -33326670.94147 -25956827.33146  21414552.2734                   21414548.6644
 11  8  2  3 10 30.0000000  0  8G26G10G04G12G29G25G05G02
  25175398.47746  19634908.38342  24519275.9534                   24519275.0664
 -18677027.30446 -14518360.12744  22831546.5234                   22831544.2894
 -31832384.02746 -24791111.47243  24683395.4774                   24683394.6374
 -19158758.48848 -14917458.83246  21194536.3524                   21194533.9574
  13593935.78547  10609099.03644  23125810.6644                   23125808.9804
  -1971176.16048  -1515494.22646  21732477.9144                   21732478.0234
 -18169378.07448 -14136500.76946  20336535.2344                   20336533.1374
 -33350715.85947 -25975563.63146  21409977.0394                   21409973.0124
 11  8  2  3 11  0.0000000  0  8G26G10G04G12G29G25G05G02
  25019345.62946  19513308.77742  24489579.9144                   24489578.6724
 -18642305.58246 -14491304.21644  22838153.8054                   22838151.9264
 -31813337.28146 -24776269.88143  24687020.5944                   24687019.2704
 -19172055.12948 -14927819.84946  21192005.7034                   21192004.0044
  13450848.22347  10497602.25744  23098582.2114                   23098580.3914
  -2051322.62148  -1577945.98646  21717226.4614                   21717226.8634
 -18225490.63347 -14180224.81647  20325857.4924                   20325855.3674
 -33374627.21147 -25994195.84445  21405426.2894                   21405422.7464
 11  8  2  3 11 30.0000000  0  8G26G10G04G12G29G25G05G02
  24863257.16046  19391681.45943  24459877.0474                   24459876.9414
 -18607273.86346 -14464006.78844  22844819.7734                   22844817.9614
 -31794318.67246 -24761450.16543  24690638.9064                   24690638.8954
 -19184815.88348 -14937763.29146  21189577.6414                   21189575.2734
  13307820.37147  10386152.07544  23071365.2194                   23071362.9184
  -2130861.00448  -1639923.93146  21702090.8674                   21702091.2034
 -18281007.30147 -14223484.53546  20315292.8204                   20315290.8914
 -33398400.03947 -26012720.14046  21400902.6484                   21400898.7464
 11  8  2  3 12  0.0000000  0  8G26G10G04G12G29G25G05G02
  24707134.64846  19270027.59143  24430168.2894                   24430167.5124
 -18571936.23446 -14436470.97544  22851544.7664                   22851542.4184
 -31775329.78945 -24746653.70143  24694252.7664                   24694252.3094
 -19197043.68748 -14947291.47246  21187250.7814                   21187248.7274
  13164852.54747  10274748.61444  23044159.0704                   23044157.3874
  -2209792.12548  -1701428.68446  21687070.9534                   21687071.4304
 -18335930.19147 -14266281.58346  20304841.2974                   20304839.4924
 -33422036.37147 -26031138.04546  21396404.5084                   21396400.9304
 11  8  2  3 12 30.0000000  0  8G26G10G04G12G29G25G05G02
  24550980.76646  19148349.28143  24400452.9224                   24400452.6484
 -18536296.23046 -14408699.60844  22858326.7734                   22858324.6724
                                  24697859.3444                   24697859.3484
 -19208741.05548 -14956406.31546  21185024.6414                   21185022.3954
  13021945.64546  10163392.67044  23016964.8364                   23016963.2154
  -2288115.97348  -1762460.23146  21672166.0634                   21672166.8014
 -18390260.43747 -14308616.82247  20294502.6334                   20294500.3984
 -33445537.04347 -26049450.24846  21391933.1724                   21391928.7854
 11  8  2  3 13  0.0000000  0  7G26G10G12G29G25G05G02
  24394798.95746  19026649.23543  24370733.5704                   24370732.3164
 -18500356.59046 -14380694.70943  22865165.4694                   22865164.1254
 -19219909.94548 -14965109.34546  21182899.2734                   21182897.0434
  12879101.49647  10052085.59144  22989783.0234                   22989780.4924
  -2365831.96148  -1823018.11746  21657377.1564                   21657377.8134
 -18443998.73847 -14350490.79346  20284276.2814                   20284274.3014
 -33468902.33647 -26067656.96146  21387486.3754                   21387482.6054
 11  8  2  3 13 30.0000000  0  7G26G10G12G29G25G05G02
  24238597.65646  18904934.04143  24341008.2424                   24341008.0594
 -18464114.46946 -14352454.07643  22872062.0864                   22872060.5944
 -19230546.79348 -14973397.80046  21180875.5164                   21180873.0314
  12736327.18847   9940832.92744  22962613.8444                   22962612.4454
  -2442934.13748  -1883097.72146  21642705.1094                   21642705.9264
 -18497140.53548 -14391899.97747  20274163.4614                   20274161.7704
 -33492127.05547 -26085754.15446  21383067.0474                   21383063.2424
 11  8  2  3 14  0.0000000  0  7G26G10G12G29G25G05G02
  24082385.19146  18783210.13343  24311282.1644                   24311282.2814
 -18427567.90246 -14323976.28643  22879017.3984                   22879015.3484
 -19240648.50048 -14981269.26746  21178953.3524                   21178950.5864
  12593629.19547   9829639.78045  22935458.6954                   22935457.3674
  -2519417.16048  -1942694.86046  21628151.0944                   21628151.4344
 -18549681.52048 -14432840.98946  20264165.7584                   20264163.4024
 -33515206.67647 -26103738.26945  21378675.0164                   21378671.3284
 11  8  2  3 14 30.0000000  0  7G26G10G12G29G25G05G02
  23926171.78946  18661485.38543  24281555.5164                   24281554.9614
 -18390712.83246 -14295258.08843  22886030.6644                   22886028.2774
 -19250210.18048 -14988719.93546  21177133.1484                   21177131.2504
  12451015.88747   9718512.56744  22908320.2034                   22908319.0784
  -2595273.68048  -2001803.80446  21613716.0474                   21613716.4024
 -18601616.15247 -14473309.52047  20254282.5944                   20254280.3914
 -33538134.55147 -26121604.14545  21374311.8134                   21374308.0594
 11  8  2  3 15  0.0000000  0  7G26G10G12G29G25G05G02
  23769961.03146  18539762.87443  24251830.0164                   24251829.3524
 -18353551.33646 -14266301.04143  22893101.5784                   22893099.4884
 -19259233.00048 -14995750.71746  21175416.6884                   21175414.4224
  12308489.47747   9607453.08945  22881197.9144                   22881197.4774
  -2670502.75448  -2060423.84346  21599400.4844                   21599400.9144
 -18652944.25448 -14513305.43547  20244515.5474                   20244513.3554
 -33560910.52347 -26139351.64245  21369977.8524                   21369973.8204
 11  8  2  3 15 30.0000000  0  7G26G10G12G29G25G05G02
  23613750.05146  18418040.14843  24222103.9384                   24222103.2774
 -18316092.62146 -14237112.50443  22900229.8444                   22900228.0704
 -19267725.81648 -15002368.50346  21173800.2194                   21173798.1174
  12166045.45347   9496457.80444  22854091.7274                   22854091.0634
  -2745110.34848  -2118559.60646  21585202.9454                   21585203.2114
 -18703673.03948 -14552834.34947  20234862.0084                   20234859.6524
 -33583541.46147 -26156986.14546  21365671.4774                   21365667.3594
 11  8  2  3 16  0.0000000  0  7G26G10G12G29G25G05G02
  23457541.96546  18296319.61243  24192378.0864                   24192377.4384
 -18278339.62147 -14207694.58344  22907413.9144                   22907412.0434
 -19275690.63348 -15008574.85646  21172284.6564                   21172282.0554
  12023685.61747   9385528.09045  22827001.8054                   22827000.3244
  -2819096.01248  -2176210.76446  21571123.9774                   21571124.1954
 -18753803.27348 -14591896.85147  20225322.9304                   20225320.3054
 -33606027.33247 -26174507.59245  21361392.3204                   21361388.0984
 11  8  2  3 16 30.0000000  0  7G26G10G12G29G25G05G02
  23301342.69146  18174605.93543  24162654.4534                   24162653.9414
 -18240292.29746 -14178047.33444  22914654.3914                   22914652.6914
 -19283126.35548 -15014368.93246  21170869.7424                   21170867.5474
  11881414.25447   9274667.31845  22799927.9454                   22799927.2584
  -2892456.86748  -2233375.04646  21557163.8914                   21557164.3554
 -18803333.20748 -14630491.59747  20215897.2584                   20215894.7114
 -33628366.12147 -26191914.44445  21357141.7274                   21357137.4924
 11  8  2  3 17  0.0000000  0  7G26G10G12G29G25G05G02
  23145152.35946  18052899.30943  24132932.1644                   24132932.2894
 -18201956.44147 -14148175.24744  22921949.9454                   22921948.4494
 -19290037.84848 -15019754.50446  21169554.2034                   21169552.3404
  11739229.90647   9163874.34245  22772871.7734                   22772870.0864
  -2965195.59048  -2290054.56046  21543322.0554                   21543322.6724
 -18852266.98848 -14668621.80446  20206585.6254                   20206583.0744
 -33650561.14547 -26209209.25845  21352918.2114                   21352913.9804
 11  8  2  3 17 30.0000000  0  7G26G10G12G29G25G05G02
  22988971.04346  17931199.63243  24103212.1804                   24103211.8164
 -18163338.41846 -14118083.30344  22929298.6414                   22929296.4804
 -19296431.24248 -15024736.38246  21168338.2664                   21168335.8984
  11597130.82847   9053147.83744  22745831.0864                   22745830.1094
  -3037315.39148  -2346251.79146  21529597.9144                   21529598.6374
 -18900608.76248 -14706290.70846  20197386.5554                   20197384.0354
 -33672616.23847 -26226395.04245  21348721.2344                   21348717.1294
 11  8  2  3 18  0.0000000  0  7G26G10G12G29G25G05G02
  22832802.98446  17809510.36343  24073494.5634                   24073493.6954
 -18124439.79746 -14087772.71144  22936701.2194                   22936699.3714
 -19302307.01648 -15029314.91146  21167219.7424                   21167217.6294
  11455119.96147   8942490.08244  22718806.8204                   22718805.3914
  -3108814.85948  -2401965.63746  21515992.4064                   21515992.8364
 -18948358.68048 -14743498.43147  20188299.7894                   20188297.2464
 -33694530.62947 -26243471.18445  21344550.8594                   21344546.9304
 11  8  2  3 18 30.0000000  0  7G26G10G12G29G25G05G02
  22676648.27746  17687831.41243  24043778.8834                   24043778.5274
 -18085266.52046 -14057248.07944  22944154.8284                   22944153.1134
 -19307670.80948 -15033494.49246  21166199.3914                   21166196.8634
  11313195.69947   8831899.79444  22691800.0864                   22691798.5514
  -3179697.01248  -2457198.47946  21502503.7734                   21502503.9804
 -18995520.96548 -14780248.25446  20179324.9144                   20179322.9304
 -33716307.57847 -26260440.23545  21340407.0084                   21340402.8244
 11  8  2  3 19  0.0000000  0  7G26G10G12G29G25G05G02
  22520510.60246  17566165.81043  24014065.6484                   24014066.4224
 -18045821.25846 -14026511.53744  22951661.0784                   22951659.5234
 -19312524.50448 -15037276.59746  21165275.6334                   21165273.4454
  11171360.01647   8721378.50345  22664809.7344                   22664807.6954
  -3249961.57448  -2511950.07746  21489132.5554                   21489132.9534
 -19042096.53948 -14816540.89046  20170462.1724                   20170459.7624
 -33737947.24247 -26277302.31045  21336288.8674                   21336284.7584
 11  8  2  3 19 30.0000000  0  7G26G10G12G29G25G05G02
  22364391.17246  17444514.46843  23984357.7504                   23984357.2034
 -18006108.85246 -13995566.75444  22959217.6484                   22959216.6604
 -19316872.27348 -15040664.48046  21164448.2344                   21164446.1564
  11029612.50847   8610925.93945  22637835.3524                   22637834.0354
  -3319610.34848  -2566221.83746  21475879.0164                   21475879.8204
 -19088088.32448 -14852378.63046  20161710.0704                   20161707.9964
 -33759451.93047 -26294059.20045  21332196.7274                   21332192.6294
 11  8  2  3 20  0.0000000  0  7G26G10G12G29G25G05G02
  23783720.58646  18550485.54143  24254447.7664                   24254447.1134
 -16390710.99646 -12736815.24843  23266617.5394                   23266616.2464
 -17745293.79347 -13816057.88046  21463509.5864                   21463507.5314
  12463381.96547   9728148.94345  22910673.2814                   22910671.8324
  -1813218.83248  -1392410.26246  21762536.0944                   21762536.2274
 -17558073.71148 -13660159.44347  20452862.5704                   20452860.1414
 -32205399.32847 -25083109.11045  21627923.0864                   21627918.8634
 11  8  2  3 20 30.0000000  0  7G26G10G12G29G25G05G02
  23627649.54346  18428871.82943  24224747.7034                   24224747.5784
 -16350470.38346 -12705458.92143  23274275.9924                   23274273.8754
 -17748633.87948 -13818660.55446  21462874.1564                   21462871.9844
  12321818.28947   9617839.63045  22883734.1644                   22883732.8674
  -1881633.61748  -1445720.47546  21749517.2034                   21749517.4384
 -17602899.16848 -13695088.36546  20444332.2584                   20444329.9804
 -32226633.16048 -25099654.94445  21623882.5164                   21623878.1724
 11  8  2  3 21  0.0000000  0  7G26G10G12G29G25G05G02
  23471607.30946  18307280.58743  24195053.7034                   24195052.9884
 -16309970.28946 -12673900.45543  23281982.7114                   23281981.1174
 -17751474.19548 -13820873.79246  21462333.6024                   21462331.1884
  12180348.77347   9507603.68845  22856813.4924                   22856811.9924
  -1949431.72348  -1498550.16146  21736615.7974                   21736615.8954
 -17647143.34848 -13729564.33146  20435913.0004                   20435910.3524
 -32247732.25848 -25116095.79445  21619867.2584                   21619863.2464
 11  8  2  3 21 30.0000000  0  7G26G10G12G29G25G05G02
  23315596.59846  18185713.86043  24165366.7194                   24165365.3794
 -16269214.23846 -12642142.44843  23289738.0784                   23289736.3054
 -17753817.67248 -13822699.89446  21461887.5084                   21461885.1954
  12038974.11347   9397441.68145  22829910.5004                   22829909.0594
  -2016613.92248  -1550899.92546  21723831.1094                   21723831.3204
 -17690808.47348 -13763589.09046  20427603.5084                   20427601.4694
 -32268697.89548 -25132432.65445  21615877.8524                   21615873.9414
 11  8  2  3 22  0.0000000  0  7G26G10G12G29G25G05G02
  23159617.62946  18064171.79443  24135685.0394                   24135683.2274
 -16228207.82846 -12610189.46443  23297541.2974                   23297539.8244
 -17755668.86348 -13824142.38746  21461535.4614                   21461533.2344
  11897693.60547   9287353.02445  22803026.1564                   22803024.7854
  -2083182.85948  -1602771.81346  21711163.7194                   21711163.8204
 -17733898.35548 -13797165.61247  20419403.8364                   20419401.4694
 -32289533.07048 -25148667.85145  21611913.0944                   21611908.8134
 11  8  2  3 22 30.0000000  0  7G26G10G12G29G25G05G02
  23003673.13346  17942656.65043  24106009.6954                   24106007.8984
 -16186954.90646 -12578044.30643  23305391.4384                   23305389.5594
 -17757031.15647 -13825203.92546  21461276.0474                   21461274.0204
  11756507.97747   9177338.30945  22776159.0704                   22776157.7734
  -2149139.55548  -1654166.63146  21698612.2664                   21698612.6564
 -17776415.18048 -13830295.59446  20411313.5234                   20411310.9454
 -32310238.71948 -25164802.11345  21607973.1334                   21607968.9654
 11  8  2  3 23  0.0000000  0  7G26G10G12G29G25G05G02
  22847767.66446  17821172.00543  24076341.0394                   24076340.2704
 -16145456.84046 -12545708.18943  23313288.2894                   23313286.3134
 -17757905.77747 -13825885.44646  21461109.7734                   21461107.6484
  11615420.28147   9067399.92345  22749311.0554                   22749309.1414
  -2214482.77748  -1705083.43546  21686177.7274                   21686178.1604
 -17818358.65648 -13862978.81446  20403331.5474                   20403329.3874
 -32330813.84048 -25180834.67345  21604057.6644                   21604053.8014
 11  8  2  3 23 30.0000000  0  7G26G10G12G29G25G05G02
  22691906.57846  17699721.85943  24046681.8834                   24046680.4614
 -16103714.64146 -12513181.76543  23321231.5004                   23321229.7424
 -17758293.01647 -13826187.19546  21461035.7034                   21461033.9574
  11474434.31647   8957540.78245  22722482.0234                   22722480.6454
  -2279210.66048  -1755520.74546  21673860.5554                   21673861.0664
 -17859728.32048 -13895214.91046  20395459.2194                   20395456.9884
 -32351257.04748 -25196764.44446  21600167.5704                   21600163.1994
 11  8  2  3 24  0.0000000  0  7G26G10G12G29G25G05G02
  22536091.39846  17578307.49643  24017031.2584                   24017030.0434
 -16061732.47346 -12480468.42943  23329220.6174                   23329219.0514
 -17758196.84847 -13826112.27146  21461054.4224                   21461052.1724
  11333550.16847   8847760.98445  22695672.8834                   22695671.1884
  -2343325.03948  -1805479.99246  21661660.1254                   21661660.2814
 -17900526.91848 -13927006.00946  20387695.6024                   20387693.4384
 -32371570.35548 -25212592.98145  21596301.8444                   21596297.7734
 11  8  2  3 24 30.0000000  0  7G26G10G12G29G25G05G02
  22380326.19946  17456932.07743  23987390.6954                   23987389.6024
 -16019512.83646 -12447570.01043  23337254.5554                   23337252.9844
 -17757619.33648 -13825662.26946  21461164.4614                   21461162.0164
  11192769.94147   8738062.16545  22668883.4384                   22668881.1914
  -2406825.59448  -1854960.91446  21649575.9064                   21649576.3164
 -17940755.48848 -13958352.93146  20380040.3204                   20380038.2664
 -32391753.35948 -25228320.00245  21592461.1884                   21592456.7504
 11  8  2  3 25  0.0000000  0  7G26G10G12G29G25G05G02
  22224612.61746  17335596.98643  23957758.5314                   23957758.3914
 -15977060.27746 -12414490.11143  23345332.8984                   23345331.6094
 -17756564.25847 -13824840.13846  21461364.6094                   21461362.6254
  11052093.79747   8628444.45045  22642113.4454                   22642111.4184
  -2469714.18748  -1903965.01546  21637609.1094                   21637609.1914
 -17980416.99248 -13989257.98346  20372492.8674                   20372490.7854
 -32411807.87947 -25243946.91945  21588645.0704                   21588640.6914
 11  8  2  3 25 30.0000000  0  7G26G10G12G29G25G05G02
  22068954.60546  17214305.06143  23928137.8364                   23928136.9344
 -15934376.70746 -12381230.20743  23353455.5474                   23353454.1884
 -17755033.31647 -13823647.20046  21461656.6414                   21461654.3284
  10911523.95747   8518909.55745  22615364.2274                   22615362.4654
  -2531990.36748  -1952491.90546  21625758.3284                   21625758.1914
 -18019512.12148 -14019721.71346  20365053.2274                   20365051.1254
 -32431733.68048 -25259473.50245  21584853.4144                   21584849.3134
 11  8  2  3 26  0.0000000  0  7G26G10G12G29G25G05G02
  21913354.46946  17093058.19243  23898527.8674                   23898527.3914
 -15891465.89546 -12347793.20743  23361621.4384                   23361619.8204
 -17753030.18447 -13822086.32946  21462037.5314                   21462035.3554
  10771061.71547   8409458.50745  22588634.5004                   22588633.2704
  -2593655.32848  -2000542.50346  21614023.7424                   21614024.2664
 -18058043.35248 -14049746.04046  20357721.3204                   20357718.9654
 -32451532.10947 -25274900.85045  21581085.5784                   21581081.5394
 11  8  2  3 26 30.0000000  0  7G26G10G12G29G25G05G02
  21757814.28546  16971858.23743  23868929.4534                   23868929.1414
 -15848332.34046 -12314182.64843  23369829.2734                   23369827.2424
 -17750558.49247 -13820160.35646  21462508.0634                   21462505.8364
  10630707.10247   8300091.36145  22561926.2504                   22561924.6604
  -2654710.83647  -2048118.21346  21602405.4304                   21602405.9494
 -18096013.48848 -14079333.15746  20350495.5944                   20350493.3594
 -32471204.64548 -25290230.10145  21577342.1644                   21577337.5944
 11  8  2  3 27  0.0000000  0  7G26G10G12G29G25G05G02
  21602339.12146  16850708.79243  23839342.7344                   23839343.3714
 -15804976.82846 -12280399.18143  23378079.8204                   23378078.1294
 -17747619.08648 -13817869.92346  21463067.1724                   21463065.6644
  10490463.64147   8190810.79945  22535238.7584                   22535236.9064
  -2715155.53947  -2095217.95346  21590902.9224                   21590903.4304
 -18133422.35248 -14108482.90046  20343376.8834                   20343374.5904
 -32490749.98047 -25305460.23445  21573622.8054                   21573618.4534
 11  8  2  3 27 30.0000000  0  7G26G10G12G29G25G05G02
  21446932.59846  16729612.92243  23809770.9614                   23809770.0204
 -15761401.60546 -12246444.43543  23386371.6094                   23386369.8554
 -17744213.98848 -13815216.60646  21463714.8594                   21463712.9494
  10350333.69947   8081618.67845  22508572.9454                   22508571.3164
  -2774989.30547  -2141841.66446  21579516.9534                   21579517.3444
 -18170270.78148 -14137195.94346  20336364.8674                   20336362.5124
 -32510167.87547 -25320591.06245  21569927.4614                   21569923.3364
 11  8  2  3 28  0.0000000  0  7G26G10G12G29G25G05G02
  21291597.23446  16608572.47643  23780210.9614                   23780210.9384
 -15717610.90246 -12212321.92543  23394704.6804                   23394703.5274
 -17740346.58648 -13812203.05746  21464451.7424                   21464449.1174
  10210317.77747   7972515.41345  22481928.5234                   22481927.2074
  -2834213.66848  -2187990.50246  21568246.9064                   21568247.4454
 -18206561.49248 -14165474.40746  20329459.0944                   20329456.7774
 -32529459.48848 -25335623.49445  21566256.8914                   21566252.2384
 11  8  2  3 28 30.0000000  0  7G26G10G12G29G25G05G02
  21136340.17246  16487592.99443  23750666.9224                   23750666.1954
 -15673603.69546 -12178030.54743  23403078.9454                   23403077.3284
 -17736016.19948 -13808828.73646  21465275.2974                   21465273.2664
  10070421.53947   7863505.41245  22455306.7194                   22455305.6884
  -2892825.16847  -2233661.78446  21557093.4384                   21557093.6414
 -18242291.91048 -14193316.27746  20322659.3984                   20322657.4804
 -32548621.60948 -25350555.01245  21562610.2664                   21562605.4964
 11  8  2  3 29  0.0000000  0  7G26G10G12G29G25G05G02
  20981161.37946  16366674.51043  23721137.0704                   23721136.4144
 -15629386.44146 -12143575.60943  23411493.8054                   23411492.3244
 -17731228.68448 -13805098.22046  21466186.4614                   21466184.1644
   9930643.04347   7754587.14045  22428707.8054                   22428706.0394
  -2950827.99647  -2278858.78046  21546055.9694                   21546056.0434
 -18277467.50848 -14220725.82347  20315966.1724                   20315963.5904
 -32567658.43747 -25365388.90545  21558987.6484                   21558983.2344
 11  8  2  3 29 30.0000000  0  7G26G10G12G29G25G05G02
  20826068.68046  16245823.15743  23691625.0084                   23691623.7194
 -15584956.76646 -12108955.08243  23419948.4304                   23419947.2304
 -17725981.31647 -13801009.37746  21467184.4224                   21467182.6764
   9790989.42247   7645766.18245  22402133.0704                   22402131.2424
  -3008217.53948  -2323577.90346  21535135.0634                   21535135.5234
 -18312084.53948 -14247700.11646  20309378.7034                   20309376.3524
 -32586564.87547 -25380121.18945  21555389.5314                   21555385.3954
 11  8  2  3 30  0.0000000  0  7G26G10G12G29G25G05G02
  20671060.28146  16125037.43643  23662126.7814                   23662126.0084
 -15540323.20746 -12074175.72543  23428442.1094                   23428441.1804
 -17720282.69547 -13796568.90446  21468269.6724                   21468267.3164
   9651456.55147   7537039.32445  22375580.6954                   22375578.6414
  -3065000.05948  -2367824.01246  21524329.7894                   21524329.9144
 -18346150.46548 -14274244.98146  20302896.0554                   20302893.7114
 -32605346.72347 -25394756.39845  21551815.6254                   21551811.5664
 11  8  2  3 30 30.0000000  0  7G26G10G12G29G25G05G02
  20516141.44546  16004321.51643  23632646.7814                   23632645.5864
 -15495486.47347 -12039238.04843  23436974.2974                   23436972.1374
 -17714133.35248 -13791777.21946  21469439.5634                   21469437.4884
   9512048.34847   7428409.61145  22349052.0234                   22349050.6484
  -3121173.94948  -2411595.85646  21513640.3444                   21513640.2584
 -18379665.00448 -14300360.18246  20296518.4614                   20296516.2114
 -32624002.19947 -25409293.14145  21548266.0234                   21548261.5984
 11  8  2  3 31  0.0000000  0  7G26G10G12G29G25G05G02
  20361313.41047  15883676.39144  23603183.8984                   23603182.6764
 -15450451.75047 -12004146.06143  23445543.6804                   23445542.6294
 -17707538.66047 -13786638.52546  21470694.3054                   21470692.2424
   9372764.16047   7319876.53445  22322547.1644                   22322545.3054
  -3176742.25448  -2454895.83346  21503065.7114                   21503066.4414
 -18412632.06248 -14326048.79346  20290245.3204                   20290242.6254
 -32642533.92247 -25423733.44445  21544739.4064                   21544734.9414
 11  8  2  3 31 30.0000000  0  7G26G10G12G29G25G05G02
  20206583.78947  15763107.92043  23573739.7504                   23573738.7704
 -15405217.40247 -11968898.53443  23454151.7664                   23454149.8984
 -17700496.24647 -13781150.94846  21472034.4774                   21472032.1604
   9233610.65647   7211445.27945  22296066.2734                   22296065.0984
  -3231701.12947  -2497720.93746  21492607.4614                   21492608.2504
 -18445048.80948 -14351308.58246  20284076.4694                   20284073.9884
 -32660937.88347 -25438074.18645  21541236.7734                   21541232.6804
 11  8  2  3 32  0.0000000  0  7G26G10G12G29G25G05G02
  20051954.35546  15642617.47743  23544314.6094                   23544313.3014
 -15359787.95747 -11933498.98343  23462797.0314                   23462793.9964
 -17693010.55547 -13775317.95646  21473458.6334                   21473456.9774
   9094587.63747   7103115.72745  22269611.3284                   22269609.6134
  -3286052.86748  -2540072.92646  21482265.1884                   21482265.2974
 -18476918.43048 -14376142.03246  20278011.6804                   20278009.2934
 -32679215.98047 -25452316.86045  21537758.8524                   21537754.3524
 11  8  2  3 32 30.0000000  0  8G26G10G15G12G29G25G05G02
  19897426.16846  15522205.97943  23514908.9774                   23514907.4384
 -15314168.58647 -11897951.41343  23471477.8984                   23471475.7464
  29706476.39856  23165488.46453  24469774.6954                   24469773.2624
 -17685086.63347 -13769143.48946  21474966.8594                   21474964.6524
   8955694.55547   6994887.41045  22243181.0944                   22243179.4064
  -3339800.44948  -2581954.15546  21472036.8754                   21472037.3554
 -18508245.16048 -14400552.46546  20272050.2274                   20272048.0124
 -32697370.86747 -25466463.53445  21534304.3134                   21534300.0314
